<?xml version="1.0" encoding="UTF-8" standalone="no" ?>
<gpx xmlns="http://www.topografix.com/GPX/1/1" xmlns:xsi="http://www.w3.org/2001/XMLSchema-instance" xsi:schemaLocation="http://www.topografix.com/GPX/1/1 http://www.topografix.com/GPX/1/1/gpx.xsd" version="1.1" creator="VisuGPX - https://www.visugpx.com">
  <metadata>
    <name>Tour de la vallee de Munster 2</name>
  </metadata>
  <trk>
    <name><![CDATA[5941389-Munster]]></name>
    <trkseg>
      <trkpt lat="48.03869" lon="7.15093">
        <ele>368</ele>
        <time>2019-04-29T20:07:34Z</time>
      </trkpt>
      <trkpt lat="48.03846" lon="7.14906">
        <ele>371</ele>
        <time>2019-04-29T20:08:34Z</time>
      </trkpt>
      <trkpt lat="48.03822" lon="7.14667">
        <ele>376</ele>
        <time>2019-04-29T20:09:34Z</time>
      </trkpt>
      <trkpt lat="48.03812" lon="7.14442">
        <ele>381</ele>
        <time>2019-04-29T20:10:34Z</time>
      </trkpt>
      <trkpt lat="48.03815" lon="7.14309">
        <ele>376</ele>
        <time>2019-04-29T20:11:34Z</time>
      </trkpt>
      <trkpt lat="48.03808" lon="7.14215">
        <ele>374</ele>
        <time>2019-04-29T20:12:34Z</time>
      </trkpt>
      <trkpt lat="48.03803" lon="7.14194">
        <ele>374</ele>
        <time>2019-04-29T20:13:34Z</time>
      </trkpt>
      <trkpt lat="48.0379" lon="7.14173">
        <ele>374</ele>
        <time>2019-04-29T20:14:34Z</time>
      </trkpt>
      <trkpt lat="48.03785" lon="7.14156">
        <ele>374</ele>
        <time>2019-04-29T20:15:34Z</time>
      </trkpt>
      <trkpt lat="48.0377" lon="7.14066">
        <ele>375</ele>
        <time>2019-04-29T20:16:34Z</time>
      </trkpt>
      <trkpt lat="48.03775" lon="7.14056">
        <ele>375</ele>
        <time>2019-04-29T20:17:34Z</time>
      </trkpt>
      <trkpt lat="48.03786" lon="7.14051">
        <ele>374</ele>
        <time>2019-04-29T20:18:34Z</time>
      </trkpt>
      <trkpt lat="48.03795" lon="7.14053">
        <ele>374</ele>
        <time>2019-04-29T20:19:34Z</time>
      </trkpt>
      <trkpt lat="48.0382" lon="7.14044">
        <ele>373</ele>
        <time>2019-04-29T20:20:34Z</time>
      </trkpt>
      <trkpt lat="48.03824" lon="7.14046">
        <ele>373</ele>
        <time>2019-04-29T20:21:34Z</time>
      </trkpt>
      <trkpt lat="48.03856" lon="7.14037">
        <ele>373</ele>
        <time>2019-04-29T20:22:34Z</time>
      </trkpt>
      <trkpt lat="48.0386" lon="7.14033">
        <ele>373</ele>
        <time>2019-04-29T20:23:34Z</time>
      </trkpt>
      <trkpt lat="48.03856" lon="7.14018">
        <ele>373</ele>
        <time>2019-04-29T20:24:34Z</time>
      </trkpt>
      <trkpt lat="48.03866" lon="7.14001">
        <ele>373</ele>
        <time>2019-04-29T20:25:34Z</time>
      </trkpt>
      <trkpt lat="48.03883" lon="7.13995">
        <ele>374</ele>
        <time>2019-04-29T20:26:34Z</time>
      </trkpt>
      <trkpt lat="48.03905" lon="7.13992">
        <ele>374</ele>
        <time>2019-04-29T20:27:34Z</time>
      </trkpt>
      <trkpt lat="48.03917" lon="7.14021">
        <ele>374</ele>
        <time>2019-04-29T20:28:34Z</time>
      </trkpt>
      <trkpt lat="48.03928" lon="7.14015">
        <ele>374</ele>
        <time>2019-04-29T20:29:34Z</time>
      </trkpt>
      <trkpt lat="48.0394" lon="7.14013">
        <ele>374</ele>
        <time>2019-04-29T20:30:34Z</time>
      </trkpt>
      <trkpt lat="48.03951" lon="7.14015">
        <ele>374</ele>
        <time>2019-04-29T20:31:34Z</time>
      </trkpt>
      <trkpt lat="48.03959" lon="7.14008">
        <ele>374</ele>
        <time>2019-04-29T20:32:34Z</time>
      </trkpt>
      <trkpt lat="48.03962" lon="7.14001">
        <ele>374</ele>
        <time>2019-04-29T20:33:34Z</time>
      </trkpt>
      <trkpt lat="48.03975" lon="7.13985">
        <ele>374</ele>
        <time>2019-04-29T20:34:34Z</time>
      </trkpt>
      <trkpt lat="48.0401" lon="7.13977">
        <ele>375</ele>
        <time>2019-04-29T20:35:34Z</time>
      </trkpt>
      <trkpt lat="48.04065" lon="7.13947">
        <ele>378</ele>
        <time>2019-04-29T20:36:34Z</time>
      </trkpt>
      <trkpt lat="48.04095" lon="7.13867">
        <ele>379</ele>
        <time>2019-04-29T20:37:34Z</time>
      </trkpt>
      <trkpt lat="48.04095" lon="7.13835">
        <ele>379</ele>
        <time>2019-04-29T20:38:34Z</time>
      </trkpt>
      <trkpt lat="48.04087" lon="7.13744">
        <ele>380</ele>
        <time>2019-04-29T20:39:34Z</time>
      </trkpt>
      <trkpt lat="48.04096" lon="7.1372">
        <ele>382</ele>
        <time>2019-04-29T20:40:34Z</time>
      </trkpt>
      <trkpt lat="48.04111" lon="7.13696">
        <ele>383</ele>
        <time>2019-04-29T20:41:34Z</time>
      </trkpt>
      <trkpt lat="48.04113" lon="7.13686">
        <ele>383</ele>
        <time>2019-04-29T20:42:34Z</time>
      </trkpt>
      <trkpt lat="48.04118" lon="7.13653">
        <ele>384</ele>
        <time>2019-04-29T20:43:34Z</time>
      </trkpt>
      <trkpt lat="48.0412" lon="7.13612">
        <ele>384</ele>
        <time>2019-04-29T20:44:34Z</time>
      </trkpt>
      <trkpt lat="48.04137" lon="7.13524">
        <ele>384</ele>
        <time>2019-04-29T20:45:34Z</time>
      </trkpt>
      <trkpt lat="48.04146" lon="7.13437">
        <ele>385</ele>
        <time>2019-04-29T20:46:34Z</time>
      </trkpt>
      <trkpt lat="48.04155" lon="7.13391">
        <ele>386</ele>
        <time>2019-04-29T20:47:34Z</time>
      </trkpt>
      <trkpt lat="48.04166" lon="7.13353">
        <ele>387</ele>
        <time>2019-04-29T20:48:34Z</time>
      </trkpt>
      <trkpt lat="48.04175" lon="7.133">
        <ele>388</ele>
        <time>2019-04-29T20:49:34Z</time>
      </trkpt>
      <trkpt lat="48.04176" lon="7.13252">
        <ele>389</ele>
        <time>2019-04-29T20:50:34Z</time>
      </trkpt>
      <trkpt lat="48.04174" lon="7.1321">
        <ele>390</ele>
        <time>2019-04-29T20:51:34Z</time>
      </trkpt>
      <trkpt lat="48.04176" lon="7.13196">
        <ele>390</ele>
        <time>2019-04-29T20:52:34Z</time>
      </trkpt>
      <trkpt lat="48.04184" lon="7.13171">
        <ele>390</ele>
        <time>2019-04-29T20:53:34Z</time>
      </trkpt>
      <trkpt lat="48.04224" lon="7.13064">
        <ele>391</ele>
        <time>2019-04-29T20:54:34Z</time>
      </trkpt>
      <trkpt lat="48.04271" lon="7.12921">
        <ele>395</ele>
        <time>2019-04-29T20:55:34Z</time>
      </trkpt>
      <trkpt lat="48.04284" lon="7.12886">
        <ele>395</ele>
        <time>2019-04-29T20:56:34Z</time>
      </trkpt>
      <trkpt lat="48.0431" lon="7.1283">
        <ele>395</ele>
        <time>2019-04-29T20:57:34Z</time>
      </trkpt>
      <trkpt lat="48.04337" lon="7.12798">
        <ele>395</ele>
        <time>2019-04-29T20:58:34Z</time>
      </trkpt>
      <trkpt lat="48.04356" lon="7.12767">
        <ele>396</ele>
        <time>2019-04-29T20:59:34Z</time>
      </trkpt>
      <trkpt lat="48.0442" lon="7.12675">
        <ele>399</ele>
        <time>2019-04-29T21:00:34Z</time>
      </trkpt>
      <trkpt lat="48.0444" lon="7.1264">
        <ele>400</ele>
        <time>2019-04-29T21:01:34Z</time>
      </trkpt>
      <trkpt lat="48.04462" lon="7.12593">
        <ele>401</ele>
        <time>2019-04-29T21:02:34Z</time>
      </trkpt>
      <trkpt lat="48.04521" lon="7.12436">
        <ele>405</ele>
        <time>2019-04-29T21:03:34Z</time>
      </trkpt>
      <trkpt lat="48.04543" lon="7.12391">
        <ele>406</ele>
        <time>2019-04-29T21:04:34Z</time>
      </trkpt>
      <trkpt lat="48.04604" lon="7.12299">
        <ele>407</ele>
        <time>2019-04-29T21:05:34Z</time>
      </trkpt>
      <trkpt lat="48.04707" lon="7.12131">
        <ele>409</ele>
        <time>2019-04-29T21:06:34Z</time>
      </trkpt>
      <trkpt lat="48.04727" lon="7.12095">
        <ele>410</ele>
        <time>2019-04-29T21:07:34Z</time>
      </trkpt>
      <trkpt lat="48.04745" lon="7.12053">
        <ele>410</ele>
        <time>2019-04-29T21:08:34Z</time>
      </trkpt>
      <trkpt lat="48.0478" lon="7.11929">
        <ele>412</ele>
        <time>2019-04-29T21:09:34Z</time>
      </trkpt>
      <trkpt lat="48.04813" lon="7.11845">
        <ele>413</ele>
        <time>2019-04-29T21:10:34Z</time>
      </trkpt>
      <trkpt lat="48.04834" lon="7.11774">
        <ele>414</ele>
        <time>2019-04-29T21:11:34Z</time>
      </trkpt>
      <trkpt lat="48.04868" lon="7.11674">
        <ele>418</ele>
        <time>2019-04-29T21:12:34Z</time>
      </trkpt>
      <trkpt lat="48.04893" lon="7.11576">
        <ele>420</ele>
        <time>2019-04-29T21:13:34Z</time>
      </trkpt>
      <trkpt lat="48.04918" lon="7.11501">
        <ele>422</ele>
        <time>2019-04-29T21:14:34Z</time>
      </trkpt>
      <trkpt lat="48.05031" lon="7.11123">
        <ele>432</ele>
        <time>2019-04-29T21:15:34Z</time>
      </trkpt>
      <trkpt lat="48.05057" lon="7.11025">
        <ele>435</ele>
        <time>2019-04-29T21:16:34Z</time>
      </trkpt>
      <trkpt lat="48.051" lon="7.10908">
        <ele>438</ele>
        <time>2019-04-29T21:17:34Z</time>
      </trkpt>
      <trkpt lat="48.05171" lon="7.10682">
        <ele>446</ele>
        <time>2019-04-29T21:18:34Z</time>
      </trkpt>
      <trkpt lat="48.05257" lon="7.10433">
        <ele>449</ele>
        <time>2019-04-29T21:19:34Z</time>
      </trkpt>
      <trkpt lat="48.05367" lon="7.10093">
        <ele>456</ele>
        <time>2019-04-29T21:20:34Z</time>
      </trkpt>
      <trkpt lat="48.05381" lon="7.10064">
        <ele>458</ele>
        <time>2019-04-29T21:21:34Z</time>
      </trkpt>
      <trkpt lat="48.05384" lon="7.1006">
        <ele>458</ele>
        <time>2019-04-29T21:22:34Z</time>
      </trkpt>
      <trkpt lat="48.05394" lon="7.10057">
        <ele>458</ele>
        <time>2019-04-29T21:23:34Z</time>
      </trkpt>
      <trkpt lat="48.054" lon="7.10058">
        <ele>459</ele>
        <time>2019-04-29T21:24:34Z</time>
      </trkpt>
      <trkpt lat="48.05415" lon="7.10071">
        <ele>460</ele>
        <time>2019-04-29T21:25:34Z</time>
      </trkpt>
      <trkpt lat="48.05424" lon="7.10091">
        <ele>462</ele>
        <time>2019-04-29T21:26:34Z</time>
      </trkpt>
      <trkpt lat="48.05439" lon="7.10208">
        <ele>465</ele>
        <time>2019-04-29T21:27:34Z</time>
      </trkpt>
      <trkpt lat="48.05456" lon="7.10268">
        <ele>466</ele>
        <time>2019-04-29T21:28:34Z</time>
      </trkpt>
      <trkpt lat="48.05472" lon="7.10307">
        <ele>466</ele>
        <time>2019-04-29T21:29:34Z</time>
      </trkpt>
      <trkpt lat="48.05484" lon="7.10329">
        <ele>465</ele>
        <time>2019-04-29T21:30:34Z</time>
      </trkpt>
      <trkpt lat="48.055" lon="7.10347">
        <ele>465</ele>
        <time>2019-04-29T21:31:34Z</time>
      </trkpt>
      <trkpt lat="48.05524" lon="7.10363">
        <ele>465</ele>
        <time>2019-04-29T21:32:34Z</time>
      </trkpt>
      <trkpt lat="48.05549" lon="7.10368">
        <ele>466</ele>
        <time>2019-04-29T21:33:34Z</time>
      </trkpt>
      <trkpt lat="48.0556" lon="7.10367">
        <ele>467</ele>
        <time>2019-04-29T21:34:34Z</time>
      </trkpt>
      <trkpt lat="48.05591" lon="7.10357">
        <ele>471</ele>
        <time>2019-04-29T21:35:34Z</time>
      </trkpt>
      <trkpt lat="48.05804" lon="7.10243">
        <ele>479</ele>
        <time>2019-04-29T21:36:34Z</time>
      </trkpt>
      <trkpt lat="48.05844" lon="7.1022">
        <ele>480</ele>
        <time>2019-04-29T21:37:34Z</time>
      </trkpt>
      <trkpt lat="48.05899" lon="7.10181">
        <ele>484</ele>
        <time>2019-04-29T21:38:34Z</time>
      </trkpt>
      <trkpt lat="48.05921" lon="7.10168">
        <ele>486</ele>
        <time>2019-04-29T21:39:34Z</time>
      </trkpt>
      <trkpt lat="48.05945" lon="7.10159">
        <ele>488</ele>
        <time>2019-04-29T21:40:34Z</time>
      </trkpt>
      <trkpt lat="48.0596" lon="7.10159">
        <ele>488</ele>
        <time>2019-04-29T21:41:34Z</time>
      </trkpt>
      <trkpt lat="48.0597" lon="7.10163">
        <ele>488</ele>
        <time>2019-04-29T21:42:34Z</time>
      </trkpt>
      <trkpt lat="48.06068" lon="7.10212">
        <ele>492</ele>
        <time>2019-04-29T21:43:34Z</time>
      </trkpt>
      <trkpt lat="48.0612" lon="7.10248">
        <ele>494</ele>
        <time>2019-04-29T21:44:34Z</time>
      </trkpt>
      <trkpt lat="48.06161" lon="7.10273">
        <ele>496</ele>
        <time>2019-04-29T21:45:34Z</time>
      </trkpt>
      <trkpt lat="48.06194" lon="7.10302">
        <ele>498</ele>
        <time>2019-04-29T21:46:34Z</time>
      </trkpt>
      <trkpt lat="48.06228" lon="7.10346">
        <ele>498</ele>
        <time>2019-04-29T21:47:34Z</time>
      </trkpt>
      <trkpt lat="48.06236" lon="7.10353">
        <ele>499</ele>
        <time>2019-04-29T21:48:34Z</time>
      </trkpt>
      <trkpt lat="48.06255" lon="7.10357">
        <ele>500</ele>
        <time>2019-04-29T21:49:34Z</time>
      </trkpt>
      <trkpt lat="48.06286" lon="7.10345">
        <ele>502</ele>
        <time>2019-04-29T21:50:34Z</time>
      </trkpt>
      <trkpt lat="48.06359" lon="7.10276">
        <ele>507</ele>
        <time>2019-04-29T21:51:34Z</time>
      </trkpt>
      <trkpt lat="48.06398" lon="7.10245">
        <ele>511</ele>
        <time>2019-04-29T21:52:34Z</time>
      </trkpt>
      <trkpt lat="48.06411" lon="7.10244">
        <ele>511</ele>
        <time>2019-04-29T21:53:34Z</time>
      </trkpt>
      <trkpt lat="48.06416" lon="7.10238">
        <ele>512</ele>
        <time>2019-04-29T21:54:34Z</time>
      </trkpt>
      <trkpt lat="48.06432" lon="7.10203">
        <ele>515</ele>
        <time>2019-04-29T21:55:34Z</time>
      </trkpt>
      <trkpt lat="48.06451" lon="7.10188">
        <ele>517</ele>
        <time>2019-04-29T21:56:34Z</time>
      </trkpt>
      <trkpt lat="48.06478" lon="7.10184">
        <ele>517</ele>
        <time>2019-04-29T21:57:34Z</time>
      </trkpt>
      <trkpt lat="48.06497" lon="7.10192">
        <ele>517</ele>
        <time>2019-04-29T21:58:34Z</time>
      </trkpt>
      <trkpt lat="48.06546" lon="7.10219">
        <ele>518</ele>
        <time>2019-04-29T21:59:34Z</time>
      </trkpt>
      <trkpt lat="48.06584" lon="7.10221">
        <ele>520</ele>
        <time>2019-04-29T22:00:34Z</time>
      </trkpt>
      <trkpt lat="48.0665" lon="7.10242">
        <ele>528</ele>
        <time>2019-04-29T22:01:34Z</time>
      </trkpt>
      <trkpt lat="48.06665" lon="7.10241">
        <ele>530</ele>
        <time>2019-04-29T22:02:34Z</time>
      </trkpt>
      <trkpt lat="48.06679" lon="7.10246">
        <ele>531</ele>
        <time>2019-04-29T22:03:34Z</time>
      </trkpt>
      <trkpt lat="48.06699" lon="7.10249">
        <ele>532</ele>
        <time>2019-04-29T22:04:34Z</time>
      </trkpt>
      <trkpt lat="48.06735" lon="7.10247">
        <ele>534</ele>
        <time>2019-04-29T22:05:34Z</time>
      </trkpt>
      <trkpt lat="48.0678" lon="7.10255">
        <ele>538</ele>
        <time>2019-04-29T22:06:34Z</time>
      </trkpt>
      <trkpt lat="48.06804" lon="7.10263">
        <ele>541</ele>
        <time>2019-04-29T22:07:34Z</time>
      </trkpt>
      <trkpt lat="48.06828" lon="7.10279">
        <ele>544</ele>
        <time>2019-04-29T22:08:34Z</time>
      </trkpt>
      <trkpt lat="48.06844" lon="7.10285">
        <ele>546</ele>
        <time>2019-04-29T22:09:34Z</time>
      </trkpt>
      <trkpt lat="48.0686" lon="7.10283">
        <ele>548</ele>
        <time>2019-04-29T22:10:34Z</time>
      </trkpt>
      <trkpt lat="48.06874" lon="7.1026">
        <ele>547</ele>
        <time>2019-04-29T22:11:34Z</time>
      </trkpt>
      <trkpt lat="48.0696" lon="7.10213">
        <ele>555</ele>
        <time>2019-04-29T22:12:34Z</time>
      </trkpt>
      <trkpt lat="48.06983" lon="7.10193">
        <ele>557</ele>
        <time>2019-04-29T22:13:34Z</time>
      </trkpt>
      <trkpt lat="48.07005" lon="7.10162">
        <ele>557</ele>
        <time>2019-04-29T22:14:34Z</time>
      </trkpt>
      <trkpt lat="48.07021" lon="7.10127">
        <ele>560</ele>
        <time>2019-04-29T22:15:34Z</time>
      </trkpt>
      <trkpt lat="48.07039" lon="7.10104">
        <ele>562</ele>
        <time>2019-04-29T22:16:34Z</time>
      </trkpt>
      <trkpt lat="48.07056" lon="7.10042">
        <ele>566</ele>
        <time>2019-04-29T22:17:34Z</time>
      </trkpt>
      <trkpt lat="48.0707" lon="7.10024">
        <ele>567</ele>
        <time>2019-04-29T22:18:34Z</time>
      </trkpt>
      <trkpt lat="48.07079" lon="7.10022">
        <ele>567</ele>
        <time>2019-04-29T22:19:34Z</time>
      </trkpt>
      <trkpt lat="48.07119" lon="7.10002">
        <ele>570</ele>
        <time>2019-04-29T22:20:34Z</time>
      </trkpt>
      <trkpt lat="48.07143" lon="7.10002">
        <ele>572</ele>
        <time>2019-04-29T22:21:34Z</time>
      </trkpt>
      <trkpt lat="48.07181" lon="7.10013">
        <ele>577</ele>
        <time>2019-04-29T22:22:34Z</time>
      </trkpt>
      <trkpt lat="48.07217" lon="7.10018">
        <ele>582</ele>
        <time>2019-04-29T22:23:34Z</time>
      </trkpt>
      <trkpt lat="48.07281" lon="7.10044">
        <ele>588</ele>
        <time>2019-04-29T22:24:34Z</time>
      </trkpt>
      <trkpt lat="48.07307" lon="7.10063">
        <ele>589</ele>
        <time>2019-04-29T22:25:34Z</time>
      </trkpt>
      <trkpt lat="48.07316" lon="7.10068">
        <ele>589</ele>
        <time>2019-04-29T22:26:34Z</time>
      </trkpt>
      <trkpt lat="48.07327" lon="7.1007">
        <ele>590</ele>
        <time>2019-04-29T22:27:34Z</time>
      </trkpt>
      <trkpt lat="48.07373" lon="7.10068">
        <ele>594</ele>
        <time>2019-04-29T22:28:34Z</time>
      </trkpt>
      <trkpt lat="48.07392" lon="7.10071">
        <ele>595</ele>
        <time>2019-04-29T22:29:34Z</time>
      </trkpt>
      <trkpt lat="48.07416" lon="7.10065">
        <ele>598</ele>
        <time>2019-04-29T22:30:34Z</time>
      </trkpt>
      <trkpt lat="48.07458" lon="7.10064">
        <ele>601</ele>
        <time>2019-04-29T22:31:34Z</time>
      </trkpt>
      <trkpt lat="48.07517" lon="7.10048">
        <ele>609</ele>
        <time>2019-04-29T22:32:34Z</time>
      </trkpt>
      <trkpt lat="48.07586" lon="7.10039">
        <ele>615</ele>
        <time>2019-04-29T22:33:34Z</time>
      </trkpt>
      <trkpt lat="48.07611" lon="7.10032">
        <ele>616</ele>
        <time>2019-04-29T22:34:34Z</time>
      </trkpt>
      <trkpt lat="48.07662" lon="7.09998">
        <ele>617</ele>
        <time>2019-04-29T22:35:34Z</time>
      </trkpt>
      <trkpt lat="48.07716" lon="7.09949">
        <ele>622</ele>
        <time>2019-04-29T22:36:34Z</time>
      </trkpt>
      <trkpt lat="48.07746" lon="7.09904">
        <ele>621</ele>
        <time>2019-04-29T22:37:34Z</time>
      </trkpt>
      <trkpt lat="48.07776" lon="7.09851">
        <ele>626</ele>
        <time>2019-04-29T22:38:34Z</time>
      </trkpt>
      <trkpt lat="48.07787" lon="7.09839">
        <ele>627</ele>
        <time>2019-04-29T22:39:34Z</time>
      </trkpt>
      <trkpt lat="48.07801" lon="7.09834">
        <ele>628</ele>
        <time>2019-04-29T22:40:34Z</time>
      </trkpt>
      <trkpt lat="48.0781" lon="7.09837">
        <ele>628</ele>
        <time>2019-04-29T22:41:34Z</time>
      </trkpt>
      <trkpt lat="48.0783" lon="7.09867">
        <ele>629</ele>
        <time>2019-04-29T22:42:34Z</time>
      </trkpt>
      <trkpt lat="48.07834" lon="7.09889">
        <ele>630</ele>
        <time>2019-04-29T22:43:34Z</time>
      </trkpt>
      <trkpt lat="48.07833" lon="7.09976">
        <ele>630</ele>
        <time>2019-04-29T22:44:34Z</time>
      </trkpt>
      <trkpt lat="48.07848" lon="7.10128">
        <ele>639</ele>
        <time>2019-04-29T22:45:34Z</time>
      </trkpt>
      <trkpt lat="48.07863" lon="7.10223">
        <ele>643</ele>
        <time>2019-04-29T22:46:34Z</time>
      </trkpt>
      <trkpt lat="48.07859" lon="7.1025">
        <ele>641</ele>
        <time>2019-04-29T22:47:34Z</time>
      </trkpt>
      <trkpt lat="48.0785" lon="7.10257">
        <ele>642</ele>
        <time>2019-04-29T22:48:34Z</time>
      </trkpt>
      <trkpt lat="48.07831" lon="7.10259">
        <ele>641</ele>
        <time>2019-04-29T22:49:34Z</time>
      </trkpt>
      <trkpt lat="48.07813" lon="7.10257">
        <ele>640</ele>
        <time>2019-04-29T22:50:34Z</time>
      </trkpt>
      <trkpt lat="48.07683" lon="7.10258">
        <ele>645</ele>
        <time>2019-04-29T22:51:34Z</time>
      </trkpt>
      <trkpt lat="48.07621" lon="7.10263">
        <ele>647</ele>
        <time>2019-04-29T22:52:34Z</time>
      </trkpt>
      <trkpt lat="48.07559" lon="7.10271">
        <ele>650</ele>
        <time>2019-04-29T22:53:34Z</time>
      </trkpt>
      <trkpt lat="48.07508" lon="7.10282">
        <ele>654</ele>
        <time>2019-04-29T22:54:34Z</time>
      </trkpt>
      <trkpt lat="48.07453" lon="7.10286">
        <ele>655</ele>
        <time>2019-04-29T22:55:34Z</time>
      </trkpt>
      <trkpt lat="48.07424" lon="7.10295">
        <ele>657</ele>
        <time>2019-04-29T22:56:34Z</time>
      </trkpt>
      <trkpt lat="48.07358" lon="7.10321">
        <ele>657</ele>
        <time>2019-04-29T22:57:34Z</time>
      </trkpt>
      <trkpt lat="48.07345" lon="7.10341">
        <ele>659</ele>
        <time>2019-04-29T22:58:34Z</time>
      </trkpt>
      <trkpt lat="48.07348" lon="7.10363">
        <ele>660</ele>
        <time>2019-04-29T22:59:34Z</time>
      </trkpt>
      <trkpt lat="48.07361" lon="7.10372">
        <ele>662</ele>
        <time>2019-04-29T23:00:34Z</time>
      </trkpt>
      <trkpt lat="48.07365" lon="7.10371">
        <ele>663</ele>
        <time>2019-04-29T23:01:34Z</time>
      </trkpt>
      <trkpt lat="48.07395" lon="7.10341">
        <ele>666</ele>
        <time>2019-04-29T23:02:34Z</time>
      </trkpt>
      <trkpt lat="48.07417" lon="7.10336">
        <ele>668</ele>
        <time>2019-04-29T23:03:34Z</time>
      </trkpt>
      <trkpt lat="48.07517" lon="7.10348">
        <ele>672</ele>
        <time>2019-04-29T23:04:34Z</time>
      </trkpt>
      <trkpt lat="48.07546" lon="7.10355">
        <ele>674</ele>
        <time>2019-04-29T23:05:34Z</time>
      </trkpt>
      <trkpt lat="48.07572" lon="7.10365">
        <ele>678</ele>
        <time>2019-04-29T23:06:34Z</time>
      </trkpt>
      <trkpt lat="48.07638" lon="7.10374">
        <ele>679</ele>
        <time>2019-04-29T23:07:34Z</time>
      </trkpt>
      <trkpt lat="48.07671" lon="7.10395">
        <ele>684</ele>
        <time>2019-04-29T23:08:34Z</time>
      </trkpt>
      <trkpt lat="48.07694" lon="7.1042">
        <ele>688</ele>
        <time>2019-04-29T23:09:34Z</time>
      </trkpt>
      <trkpt lat="48.07722" lon="7.10446">
        <ele>690</ele>
        <time>2019-04-29T23:10:34Z</time>
      </trkpt>
      <trkpt lat="48.07734" lon="7.10454">
        <ele>690</ele>
        <time>2019-04-29T23:11:34Z</time>
      </trkpt>
      <trkpt lat="48.07829" lon="7.105">
        <ele>694</ele>
        <time>2019-04-29T23:12:34Z</time>
      </trkpt>
      <trkpt lat="48.07902" lon="7.10546">
        <ele>700</ele>
        <time>2019-04-29T23:13:34Z</time>
      </trkpt>
      <trkpt lat="48.07925" lon="7.10558">
        <ele>701</ele>
        <time>2019-04-29T23:14:34Z</time>
      </trkpt>
      <trkpt lat="48.07961" lon="7.10569">
        <ele>705</ele>
        <time>2019-04-29T23:15:34Z</time>
      </trkpt>
      <trkpt lat="48.08" lon="7.10576">
        <ele>707</ele>
        <time>2019-04-29T23:16:34Z</time>
      </trkpt>
      <trkpt lat="48.08033" lon="7.10576">
        <ele>705</ele>
        <time>2019-04-29T23:17:34Z</time>
      </trkpt>
      <trkpt lat="48.08043" lon="7.10583">
        <ele>706</ele>
        <time>2019-04-29T23:18:34Z</time>
      </trkpt>
      <trkpt lat="48.08045" lon="7.10587">
        <ele>707</ele>
        <time>2019-04-29T23:19:34Z</time>
      </trkpt>
      <trkpt lat="48.08045" lon="7.10602">
        <ele>710</ele>
        <time>2019-04-29T23:20:34Z</time>
      </trkpt>
      <trkpt lat="48.08035" lon="7.10613">
        <ele>712</ele>
        <time>2019-04-29T23:21:34Z</time>
      </trkpt>
      <trkpt lat="48.08017" lon="7.10604">
        <ele>712</ele>
        <time>2019-04-29T23:22:34Z</time>
      </trkpt>
      <trkpt lat="48.08" lon="7.10602">
        <ele>713</ele>
        <time>2019-04-29T23:23:34Z</time>
      </trkpt>
      <trkpt lat="48.07981" lon="7.1061">
        <ele>714</ele>
        <time>2019-04-29T23:24:34Z</time>
      </trkpt>
      <trkpt lat="48.07949" lon="7.10629">
        <ele>717</ele>
        <time>2019-04-29T23:25:34Z</time>
      </trkpt>
      <trkpt lat="48.0793" lon="7.10632">
        <ele>718</ele>
        <time>2019-04-29T23:26:34Z</time>
      </trkpt>
      <trkpt lat="48.07903" lon="7.10628">
        <ele>718</ele>
        <time>2019-04-29T23:27:34Z</time>
      </trkpt>
      <trkpt lat="48.07828" lon="7.10608">
        <ele>720</ele>
        <time>2019-04-29T23:28:34Z</time>
      </trkpt>
      <trkpt lat="48.07805" lon="7.10608">
        <ele>720</ele>
        <time>2019-04-29T23:29:34Z</time>
      </trkpt>
      <trkpt lat="48.07767" lon="7.10614">
        <ele>721</ele>
        <time>2019-04-29T23:30:34Z</time>
      </trkpt>
      <trkpt lat="48.07751" lon="7.10621">
        <ele>722</ele>
        <time>2019-04-29T23:31:34Z</time>
      </trkpt>
      <trkpt lat="48.07745" lon="7.10628">
        <ele>722</ele>
        <time>2019-04-29T23:32:34Z</time>
      </trkpt>
      <trkpt lat="48.07744" lon="7.1065">
        <ele>724</ele>
        <time>2019-04-29T23:33:34Z</time>
      </trkpt>
      <trkpt lat="48.07754" lon="7.10668">
        <ele>726</ele>
        <time>2019-04-29T23:34:34Z</time>
      </trkpt>
      <trkpt lat="48.0776" lon="7.10673">
        <ele>726</ele>
        <time>2019-04-29T23:35:34Z</time>
      </trkpt>
      <trkpt lat="48.07853" lon="7.10721">
        <ele>735</ele>
        <time>2019-04-29T23:36:34Z</time>
      </trkpt>
      <trkpt lat="48.07878" lon="7.10738">
        <ele>737</ele>
        <time>2019-04-29T23:37:34Z</time>
      </trkpt>
      <trkpt lat="48.07904" lon="7.10762">
        <ele>740</ele>
        <time>2019-04-29T23:38:34Z</time>
      </trkpt>
      <trkpt lat="48.07958" lon="7.10821">
        <ele>746</ele>
        <time>2019-04-29T23:39:34Z</time>
      </trkpt>
      <trkpt lat="48.0801" lon="7.10852">
        <ele>749</ele>
        <time>2019-04-29T23:40:34Z</time>
      </trkpt>
      <trkpt lat="48.08052" lon="7.10883">
        <ele>753</ele>
        <time>2019-04-29T23:41:34Z</time>
      </trkpt>
      <trkpt lat="48.08069" lon="7.10899">
        <ele>754</ele>
        <time>2019-04-29T23:42:34Z</time>
      </trkpt>
      <trkpt lat="48.08175" lon="7.11025">
        <ele>765</ele>
        <time>2019-04-29T23:43:34Z</time>
      </trkpt>
      <trkpt lat="48.08189" lon="7.11037">
        <ele>765</ele>
        <time>2019-04-29T23:44:34Z</time>
      </trkpt>
      <trkpt lat="48.08241" lon="7.11097">
        <ele>771</ele>
        <time>2019-04-29T23:45:34Z</time>
      </trkpt>
      <trkpt lat="48.08279" lon="7.11132">
        <ele>777</ele>
        <time>2019-04-29T23:46:34Z</time>
      </trkpt>
      <trkpt lat="48.08328" lon="7.11172">
        <ele>782</ele>
        <time>2019-04-29T23:47:34Z</time>
      </trkpt>
      <trkpt lat="48.08341" lon="7.11179">
        <ele>784</ele>
        <time>2019-04-29T23:48:34Z</time>
      </trkpt>
      <trkpt lat="48.0837" lon="7.11188">
        <ele>789</ele>
        <time>2019-04-29T23:49:34Z</time>
      </trkpt>
      <trkpt lat="48.08401" lon="7.11186">
        <ele>790</ele>
        <time>2019-04-29T23:50:34Z</time>
      </trkpt>
      <trkpt lat="48.08427" lon="7.11177">
        <ele>791</ele>
        <time>2019-04-29T23:51:34Z</time>
      </trkpt>
      <trkpt lat="48.08445" lon="7.11162">
        <ele>792</ele>
        <time>2019-04-29T23:52:34Z</time>
      </trkpt>
      <trkpt lat="48.0846" lon="7.11154">
        <ele>796</ele>
        <time>2019-04-29T23:53:34Z</time>
      </trkpt>
      <trkpt lat="48.08463" lon="7.11157">
        <ele>796</ele>
        <time>2019-04-29T23:54:34Z</time>
      </trkpt>
      <trkpt lat="48.08467" lon="7.11175">
        <ele>799</ele>
        <time>2019-04-29T23:55:34Z</time>
      </trkpt>
      <trkpt lat="48.08459" lon="7.1119">
        <ele>800</ele>
        <time>2019-04-29T23:56:34Z</time>
      </trkpt>
      <trkpt lat="48.0837" lon="7.11226">
        <ele>799</ele>
        <time>2019-04-29T23:57:34Z</time>
      </trkpt>
      <trkpt lat="48.08348" lon="7.11228">
        <ele>799</ele>
        <time>2019-04-29T23:58:34Z</time>
      </trkpt>
      <trkpt lat="48.08314" lon="7.11223">
        <ele>799</ele>
        <time>2019-04-29T23:59:34Z</time>
      </trkpt>
      <trkpt lat="48.08252" lon="7.11222">
        <ele>802</ele>
        <time>2019-04-30T00:00:34Z</time>
      </trkpt>
      <trkpt lat="48.08173" lon="7.11237">
        <ele>807</ele>
        <time>2019-04-30T00:01:34Z</time>
      </trkpt>
      <trkpt lat="48.08155" lon="7.11243">
        <ele>808</ele>
        <time>2019-04-30T00:02:34Z</time>
      </trkpt>
      <trkpt lat="48.08123" lon="7.11261">
        <ele>810</ele>
        <time>2019-04-30T00:03:34Z</time>
      </trkpt>
      <trkpt lat="48.08115" lon="7.11263">
        <ele>810</ele>
        <time>2019-04-30T00:04:34Z</time>
      </trkpt>
      <trkpt lat="48.08104" lon="7.11263">
        <ele>809</ele>
        <time>2019-04-30T00:05:34Z</time>
      </trkpt>
      <trkpt lat="48.08076" lon="7.11251">
        <ele>806</ele>
        <time>2019-04-30T00:06:34Z</time>
      </trkpt>
      <trkpt lat="48.08061" lon="7.1125">
        <ele>804</ele>
        <time>2019-04-30T00:07:34Z</time>
      </trkpt>
      <trkpt lat="48.08052" lon="7.11258">
        <ele>803</ele>
        <time>2019-04-30T00:08:34Z</time>
      </trkpt>
      <trkpt lat="48.08049" lon="7.11278">
        <ele>804</ele>
        <time>2019-04-30T00:09:34Z</time>
      </trkpt>
      <trkpt lat="48.08054" lon="7.11294">
        <ele>806</ele>
        <time>2019-04-30T00:10:34Z</time>
      </trkpt>
      <trkpt lat="48.08062" lon="7.11304">
        <ele>808</ele>
        <time>2019-04-30T00:11:34Z</time>
      </trkpt>
      <trkpt lat="48.0809" lon="7.11319">
        <ele>815</ele>
        <time>2019-04-30T00:12:34Z</time>
      </trkpt>
      <trkpt lat="48.08118" lon="7.11327">
        <ele>818</ele>
        <time>2019-04-30T00:13:34Z</time>
      </trkpt>
      <trkpt lat="48.08176" lon="7.11328">
        <ele>824</ele>
        <time>2019-04-30T00:14:34Z</time>
      </trkpt>
      <trkpt lat="48.08215" lon="7.11332">
        <ele>828</ele>
        <time>2019-04-30T00:15:34Z</time>
      </trkpt>
      <trkpt lat="48.08282" lon="7.11328">
        <ele>831</ele>
        <time>2019-04-30T00:16:34Z</time>
      </trkpt>
      <trkpt lat="48.08348" lon="7.11343">
        <ele>837</ele>
        <time>2019-04-30T00:17:34Z</time>
      </trkpt>
      <trkpt lat="48.08386" lon="7.11343">
        <ele>839</ele>
        <time>2019-04-30T00:18:34Z</time>
      </trkpt>
      <trkpt lat="48.08469" lon="7.11355">
        <ele>847</ele>
        <time>2019-04-30T00:19:34Z</time>
      </trkpt>
      <trkpt lat="48.08527" lon="7.11357">
        <ele>851</ele>
        <time>2019-04-30T00:20:34Z</time>
      </trkpt>
      <trkpt lat="48.08612" lon="7.11373">
        <ele>859</ele>
        <time>2019-04-30T00:21:34Z</time>
      </trkpt>
      <trkpt lat="48.08642" lon="7.11383">
        <ele>861</ele>
        <time>2019-04-30T00:22:34Z</time>
      </trkpt>
      <trkpt lat="48.08678" lon="7.11402">
        <ele>864</ele>
        <time>2019-04-30T00:23:34Z</time>
      </trkpt>
      <trkpt lat="48.08696" lon="7.11405">
        <ele>866</ele>
        <time>2019-04-30T00:24:34Z</time>
      </trkpt>
      <trkpt lat="48.08711" lon="7.11403">
        <ele>866</ele>
        <time>2019-04-30T00:25:34Z</time>
      </trkpt>
      <trkpt lat="48.08721" lon="7.11398">
        <ele>866</ele>
        <time>2019-04-30T00:26:34Z</time>
      </trkpt>
      <trkpt lat="48.08741" lon="7.11377">
        <ele>866</ele>
        <time>2019-04-30T00:27:34Z</time>
      </trkpt>
      <trkpt lat="48.08751" lon="7.11353">
        <ele>866</ele>
        <time>2019-04-30T00:28:34Z</time>
      </trkpt>
      <trkpt lat="48.08766" lon="7.11304">
        <ele>869</ele>
        <time>2019-04-30T00:29:34Z</time>
      </trkpt>
      <trkpt lat="48.08776" lon="7.11301">
        <ele>872</ele>
        <time>2019-04-30T00:30:34Z</time>
      </trkpt>
      <trkpt lat="48.08783" lon="7.11307">
        <ele>873</ele>
        <time>2019-04-30T00:31:34Z</time>
      </trkpt>
      <trkpt lat="48.08787" lon="7.11317">
        <ele>874</ele>
        <time>2019-04-30T00:32:34Z</time>
      </trkpt>
      <trkpt lat="48.08788" lon="7.11334">
        <ele>874</ele>
        <time>2019-04-30T00:33:34Z</time>
      </trkpt>
      <trkpt lat="48.08771" lon="7.11474">
        <ele>880</ele>
        <time>2019-04-30T00:34:34Z</time>
      </trkpt>
      <trkpt lat="48.08774" lon="7.11539">
        <ele>885</ele>
        <time>2019-04-30T00:35:34Z</time>
      </trkpt>
      <trkpt lat="48.08786" lon="7.11602">
        <ele>889</ele>
        <time>2019-04-30T00:36:34Z</time>
      </trkpt>
      <trkpt lat="48.08786" lon="7.1162">
        <ele>889</ele>
        <time>2019-04-30T00:37:34Z</time>
      </trkpt>
      <trkpt lat="48.08779" lon="7.11634">
        <ele>889</ele>
        <time>2019-04-30T00:38:34Z</time>
      </trkpt>
      <trkpt lat="48.08739" lon="7.11667">
        <ele>890</ele>
        <time>2019-04-30T00:39:34Z</time>
      </trkpt>
      <trkpt lat="48.08718" lon="7.11689">
        <ele>894</ele>
        <time>2019-04-30T00:40:34Z</time>
      </trkpt>
      <trkpt lat="48.0871" lon="7.11701">
        <ele>895</ele>
        <time>2019-04-30T00:41:34Z</time>
      </trkpt>
      <trkpt lat="48.0867" lon="7.11769">
        <ele>899</ele>
        <time>2019-04-30T00:42:34Z</time>
      </trkpt>
      <trkpt lat="48.0866" lon="7.11793">
        <ele>901</ele>
        <time>2019-04-30T00:43:34Z</time>
      </trkpt>
      <trkpt lat="48.0863" lon="7.11847">
        <ele>906</ele>
        <time>2019-04-30T00:44:34Z</time>
      </trkpt>
      <trkpt lat="48.08625" lon="7.11862">
        <ele>907</ele>
        <time>2019-04-30T00:45:34Z</time>
      </trkpt>
      <trkpt lat="48.0862" lon="7.11896">
        <ele>908</ele>
        <time>2019-04-30T00:46:34Z</time>
      </trkpt>
      <trkpt lat="48.08623" lon="7.11951">
        <ele>908</ele>
        <time>2019-04-30T00:47:34Z</time>
      </trkpt>
      <trkpt lat="48.08627" lon="7.11974">
        <ele>908</ele>
        <time>2019-04-30T00:48:34Z</time>
      </trkpt>
      <trkpt lat="48.08634" lon="7.12057">
        <ele>910</ele>
        <time>2019-04-30T00:49:34Z</time>
      </trkpt>
      <trkpt lat="48.0863" lon="7.12104">
        <ele>912</ele>
        <time>2019-04-30T00:50:34Z</time>
      </trkpt>
      <trkpt lat="48.08634" lon="7.12182">
        <ele>913</ele>
        <time>2019-04-30T00:51:34Z</time>
      </trkpt>
      <trkpt lat="48.08634" lon="7.12233">
        <ele>914</ele>
        <time>2019-04-30T00:52:34Z</time>
      </trkpt>
      <trkpt lat="48.08631" lon="7.12306">
        <ele>916</ele>
        <time>2019-04-30T00:53:34Z</time>
      </trkpt>
      <trkpt lat="48.08622" lon="7.12356">
        <ele>918</ele>
        <time>2019-04-30T00:54:34Z</time>
      </trkpt>
      <trkpt lat="48.08622" lon="7.12396">
        <ele>919</ele>
        <time>2019-04-30T00:55:34Z</time>
      </trkpt>
      <trkpt lat="48.08605" lon="7.12448">
        <ele>922</ele>
        <time>2019-04-30T00:56:34Z</time>
      </trkpt>
      <trkpt lat="48.08579" lon="7.12497">
        <ele>927</ele>
        <time>2019-04-30T00:57:34Z</time>
      </trkpt>
      <trkpt lat="48.08561" lon="7.12516">
        <ele>928</ele>
        <time>2019-04-30T00:58:34Z</time>
      </trkpt>
      <trkpt lat="48.08538" lon="7.12534">
        <ele>929</ele>
        <time>2019-04-30T00:59:34Z</time>
      </trkpt>
      <trkpt lat="48.08507" lon="7.1255">
        <ele>932</ele>
        <time>2019-04-30T01:00:34Z</time>
      </trkpt>
      <trkpt lat="48.0846" lon="7.12568">
        <ele>934</ele>
        <time>2019-04-30T01:01:34Z</time>
      </trkpt>
      <trkpt lat="48.0842" lon="7.1259">
        <ele>934</ele>
        <time>2019-04-30T01:02:34Z</time>
      </trkpt>
      <trkpt lat="48.08387" lon="7.126">
        <ele>934</ele>
        <time>2019-04-30T01:03:34Z</time>
      </trkpt>
      <trkpt lat="48.08361" lon="7.12606">
        <ele>934</ele>
        <time>2019-04-30T01:04:34Z</time>
      </trkpt>
      <trkpt lat="48.08338" lon="7.12601">
        <ele>935</ele>
        <time>2019-04-30T01:05:34Z</time>
      </trkpt>
      <trkpt lat="48.08325" lon="7.12594">
        <ele>935</ele>
        <time>2019-04-30T01:06:34Z</time>
      </trkpt>
      <trkpt lat="48.08298" lon="7.12571">
        <ele>937</ele>
        <time>2019-04-30T01:07:34Z</time>
      </trkpt>
      <trkpt lat="48.08279" lon="7.12563">
        <ele>938</ele>
        <time>2019-04-30T01:08:34Z</time>
      </trkpt>
      <trkpt lat="48.08267" lon="7.12563">
        <ele>937</ele>
        <time>2019-04-30T01:09:34Z</time>
      </trkpt>
      <trkpt lat="48.08242" lon="7.12571">
        <ele>934</ele>
        <time>2019-04-30T01:10:34Z</time>
      </trkpt>
      <trkpt lat="48.08213" lon="7.12595">
        <ele>930</ele>
        <time>2019-04-30T01:11:34Z</time>
      </trkpt>
      <trkpt lat="48.08194" lon="7.12602">
        <ele>929</ele>
        <time>2019-04-30T01:12:34Z</time>
      </trkpt>
      <trkpt lat="48.08158" lon="7.12599">
        <ele>929</ele>
        <time>2019-04-30T01:13:34Z</time>
      </trkpt>
      <trkpt lat="48.08115" lon="7.12591">
        <ele>932</ele>
        <time>2019-04-30T01:14:34Z</time>
      </trkpt>
      <trkpt lat="48.08077" lon="7.1259">
        <ele>933</ele>
        <time>2019-04-30T01:15:34Z</time>
      </trkpt>
      <trkpt lat="48.08058" lon="7.12605">
        <ele>935</ele>
        <time>2019-04-30T01:16:34Z</time>
      </trkpt>
      <trkpt lat="48.08051" lon="7.12627">
        <ele>935</ele>
        <time>2019-04-30T01:17:34Z</time>
      </trkpt>
      <trkpt lat="48.08051" lon="7.12652">
        <ele>936</ele>
        <time>2019-04-30T01:18:34Z</time>
      </trkpt>
      <trkpt lat="48.0806" lon="7.12735">
        <ele>938</ele>
        <time>2019-04-30T01:19:34Z</time>
      </trkpt>
      <trkpt lat="48.0805" lon="7.12829">
        <ele>941</ele>
        <time>2019-04-30T01:20:34Z</time>
      </trkpt>
      <trkpt lat="48.08045" lon="7.12851">
        <ele>940</ele>
        <time>2019-04-30T01:21:34Z</time>
      </trkpt>
      <trkpt lat="48.08031" lon="7.1288">
        <ele>941</ele>
        <time>2019-04-30T01:22:34Z</time>
      </trkpt>
      <trkpt lat="48.08001" lon="7.12925">
        <ele>943</ele>
        <time>2019-04-30T01:23:34Z</time>
      </trkpt>
      <trkpt lat="48.07987" lon="7.12951">
        <ele>944</ele>
        <time>2019-04-30T01:24:34Z</time>
      </trkpt>
      <trkpt lat="48.07982" lon="7.12968">
        <ele>944</ele>
        <time>2019-04-30T01:25:34Z</time>
      </trkpt>
      <trkpt lat="48.07973" lon="7.13061">
        <ele>945</ele>
        <time>2019-04-30T01:26:34Z</time>
      </trkpt>
      <trkpt lat="48.07943" lon="7.13151">
        <ele>950</ele>
        <time>2019-04-30T01:27:34Z</time>
      </trkpt>
      <trkpt lat="48.07938" lon="7.13189">
        <ele>953</ele>
        <time>2019-04-30T01:28:34Z</time>
      </trkpt>
      <trkpt lat="48.07941" lon="7.13217">
        <ele>955</ele>
        <time>2019-04-30T01:29:34Z</time>
      </trkpt>
      <trkpt lat="48.07951" lon="7.13241">
        <ele>956</ele>
        <time>2019-04-30T01:30:34Z</time>
      </trkpt>
      <trkpt lat="48.08037" lon="7.13396">
        <ele>969</ele>
        <time>2019-04-30T01:31:34Z</time>
      </trkpt>
      <trkpt lat="48.0808" lon="7.13453">
        <ele>971</ele>
        <time>2019-04-30T01:32:34Z</time>
      </trkpt>
      <trkpt lat="48.08132" lon="7.13556">
        <ele>975</ele>
        <time>2019-04-30T01:33:34Z</time>
      </trkpt>
      <trkpt lat="48.08173" lon="7.13642">
        <ele>979</ele>
        <time>2019-04-30T01:34:34Z</time>
      </trkpt>
      <trkpt lat="48.08204" lon="7.1373">
        <ele>988</ele>
        <time>2019-04-30T01:35:34Z</time>
      </trkpt>
      <trkpt lat="48.08238" lon="7.13787">
        <ele>988</ele>
        <time>2019-04-30T01:36:34Z</time>
      </trkpt>
      <trkpt lat="48.08318" lon="7.13911">
        <ele>985</ele>
        <time>2019-04-30T01:37:34Z</time>
      </trkpt>
      <trkpt lat="48.08328" lon="7.13928">
        <ele>984</ele>
        <time>2019-04-30T01:38:34Z</time>
      </trkpt>
      <trkpt lat="48.08341" lon="7.13959">
        <ele>983</ele>
        <time>2019-04-30T01:39:34Z</time>
      </trkpt>
      <trkpt lat="48.0834" lon="7.13981">
        <ele>984</ele>
        <time>2019-04-30T01:40:34Z</time>
      </trkpt>
      <trkpt lat="48.08335" lon="7.13991">
        <ele>985</ele>
        <time>2019-04-30T01:41:34Z</time>
      </trkpt>
      <trkpt lat="48.0833" lon="7.13998">
        <ele>986</ele>
        <time>2019-04-30T01:42:34Z</time>
      </trkpt>
      <trkpt lat="48.08317" lon="7.14003">
        <ele>988</ele>
        <time>2019-04-30T01:43:34Z</time>
      </trkpt>
      <trkpt lat="48.08306" lon="7.14003">
        <ele>989</ele>
        <time>2019-04-30T01:44:34Z</time>
      </trkpt>
      <trkpt lat="48.08271" lon="7.1399">
        <ele>993</ele>
        <time>2019-04-30T01:45:34Z</time>
      </trkpt>
      <trkpt lat="48.08226" lon="7.13987">
        <ele>997</ele>
        <time>2019-04-30T01:46:34Z</time>
      </trkpt>
      <trkpt lat="48.08182" lon="7.14">
        <ele>998</ele>
        <time>2019-04-30T01:47:34Z</time>
      </trkpt>
      <trkpt lat="48.08156" lon="7.14013">
        <ele>998</ele>
        <time>2019-04-30T01:48:34Z</time>
      </trkpt>
      <trkpt lat="48.08125" lon="7.14037">
        <ele>998</ele>
        <time>2019-04-30T01:49:34Z</time>
      </trkpt>
      <trkpt lat="48.08104" lon="7.14059">
        <ele>998</ele>
        <time>2019-04-30T01:50:34Z</time>
      </trkpt>
      <trkpt lat="48.08089" lon="7.14092">
        <ele>995</ele>
        <time>2019-04-30T01:51:34Z</time>
      </trkpt>
      <trkpt lat="48.08075" lon="7.14143">
        <ele>993</ele>
        <time>2019-04-30T01:52:34Z</time>
      </trkpt>
      <trkpt lat="48.08065" lon="7.14196">
        <ele>989</ele>
        <time>2019-04-30T01:53:34Z</time>
      </trkpt>
      <trkpt lat="48.08051" lon="7.14249">
        <ele>985</ele>
        <time>2019-04-30T01:54:34Z</time>
      </trkpt>
      <trkpt lat="48.08034" lon="7.14276">
        <ele>985</ele>
        <time>2019-04-30T01:55:34Z</time>
      </trkpt>
      <trkpt lat="48.08004" lon="7.14296">
        <ele>986</ele>
        <time>2019-04-30T01:56:34Z</time>
      </trkpt>
      <trkpt lat="48.07952" lon="7.14316">
        <ele>984</ele>
        <time>2019-04-30T01:57:34Z</time>
      </trkpt>
      <trkpt lat="48.07936" lon="7.14328">
        <ele>983</ele>
        <time>2019-04-30T01:58:34Z</time>
      </trkpt>
      <trkpt lat="48.07922" lon="7.14362">
        <ele>981</ele>
        <time>2019-04-30T01:59:34Z</time>
      </trkpt>
      <trkpt lat="48.07919" lon="7.14381">
        <ele>980</ele>
        <time>2019-04-30T02:00:34Z</time>
      </trkpt>
      <trkpt lat="48.0792" lon="7.144">
        <ele>980</ele>
        <time>2019-04-30T02:01:34Z</time>
      </trkpt>
      <trkpt lat="48.07971" lon="7.14528">
        <ele>981</ele>
        <time>2019-04-30T02:02:34Z</time>
      </trkpt>
      <trkpt lat="48.07985" lon="7.14557">
        <ele>981</ele>
        <time>2019-04-30T02:03:34Z</time>
      </trkpt>
      <trkpt lat="48.08007" lon="7.14593">
        <ele>979</ele>
        <time>2019-04-30T02:04:34Z</time>
      </trkpt>
      <trkpt lat="48.08061" lon="7.14658">
        <ele>978</ele>
        <time>2019-04-30T02:05:34Z</time>
      </trkpt>
      <trkpt lat="48.0809" lon="7.1469">
        <ele>977</ele>
        <time>2019-04-30T02:06:34Z</time>
      </trkpt>
      <trkpt lat="48.08122" lon="7.14719">
        <ele>975</ele>
        <time>2019-04-30T02:07:34Z</time>
      </trkpt>
      <trkpt lat="48.08167" lon="7.14744">
        <ele>971</ele>
        <time>2019-04-30T02:08:34Z</time>
      </trkpt>
      <trkpt lat="48.08187" lon="7.1475">
        <ele>970</ele>
        <time>2019-04-30T02:09:34Z</time>
      </trkpt>
      <trkpt lat="48.0823" lon="7.1477">
        <ele>967</ele>
        <time>2019-04-30T02:10:34Z</time>
      </trkpt>
      <trkpt lat="48.08313" lon="7.14828">
        <ele>961</ele>
        <time>2019-04-30T02:11:34Z</time>
      </trkpt>
      <trkpt lat="48.08352" lon="7.14868">
        <ele>958</ele>
        <time>2019-04-30T02:12:34Z</time>
      </trkpt>
      <trkpt lat="48.08408" lon="7.14941">
        <ele>951</ele>
        <time>2019-04-30T02:13:34Z</time>
      </trkpt>
      <trkpt lat="48.08413" lon="7.14952">
        <ele>949</ele>
        <time>2019-04-30T02:14:34Z</time>
      </trkpt>
      <trkpt lat="48.08418" lon="7.14975">
        <ele>948</ele>
        <time>2019-04-30T02:15:34Z</time>
      </trkpt>
      <trkpt lat="48.08415" lon="7.14997">
        <ele>948</ele>
        <time>2019-04-30T02:16:34Z</time>
      </trkpt>
      <trkpt lat="48.0841" lon="7.15006">
        <ele>949</ele>
        <time>2019-04-30T02:17:34Z</time>
      </trkpt>
      <trkpt lat="48.08398" lon="7.15019">
        <ele>950</ele>
        <time>2019-04-30T02:18:34Z</time>
      </trkpt>
      <trkpt lat="48.08355" lon="7.15044">
        <ele>957</ele>
        <time>2019-04-30T02:19:34Z</time>
      </trkpt>
      <trkpt lat="48.08261" lon="7.15071">
        <ele>971</ele>
        <time>2019-04-30T02:20:34Z</time>
      </trkpt>
      <trkpt lat="48.08249" lon="7.15077">
        <ele>973</ele>
        <time>2019-04-30T02:21:34Z</time>
      </trkpt>
      <trkpt lat="48.08231" lon="7.15091">
        <ele>973</ele>
        <time>2019-04-30T02:22:34Z</time>
      </trkpt>
      <trkpt lat="48.08216" lon="7.15108">
        <ele>973</ele>
        <time>2019-04-30T02:23:34Z</time>
      </trkpt>
      <trkpt lat="48.0821" lon="7.15128">
        <ele>973</ele>
        <time>2019-04-30T02:24:34Z</time>
      </trkpt>
      <trkpt lat="48.0821" lon="7.1519">
        <ele>971</ele>
        <time>2019-04-30T02:25:34Z</time>
      </trkpt>
      <trkpt lat="48.08229" lon="7.15237">
        <ele>968</ele>
        <time>2019-04-30T02:26:34Z</time>
      </trkpt>
      <trkpt lat="48.08282" lon="7.15321">
        <ele>961</ele>
        <time>2019-04-30T02:27:34Z</time>
      </trkpt>
      <trkpt lat="48.08289" lon="7.15359">
        <ele>959</ele>
        <time>2019-04-30T02:28:34Z</time>
      </trkpt>
      <trkpt lat="48.08285" lon="7.15376">
        <ele>959</ele>
        <time>2019-04-30T02:29:34Z</time>
      </trkpt>
      <trkpt lat="48.08275" lon="7.1539">
        <ele>960</ele>
        <time>2019-04-30T02:30:34Z</time>
      </trkpt>
      <trkpt lat="48.08247" lon="7.15414">
        <ele>962</ele>
        <time>2019-04-30T02:31:34Z</time>
      </trkpt>
      <trkpt lat="48.08179" lon="7.15437">
        <ele>965</ele>
        <time>2019-04-30T02:32:34Z</time>
      </trkpt>
      <trkpt lat="48.08019" lon="7.15463">
        <ele>974</ele>
        <time>2019-04-30T02:33:34Z</time>
      </trkpt>
      <trkpt lat="48.08001" lon="7.1547">
        <ele>974</ele>
        <time>2019-04-30T02:34:34Z</time>
      </trkpt>
      <trkpt lat="48.07978" lon="7.15505">
        <ele>971</ele>
        <time>2019-04-30T02:35:34Z</time>
      </trkpt>
      <trkpt lat="48.07964" lon="7.15543">
        <ele>968</ele>
        <time>2019-04-30T02:36:34Z</time>
      </trkpt>
      <trkpt lat="48.07957" lon="7.15587">
        <ele>964</ele>
        <time>2019-04-30T02:37:34Z</time>
      </trkpt>
      <trkpt lat="48.0796" lon="7.15607">
        <ele>964</ele>
        <time>2019-04-30T02:38:34Z</time>
      </trkpt>
      <trkpt lat="48.07972" lon="7.15633">
        <ele>963</ele>
        <time>2019-04-30T02:39:34Z</time>
      </trkpt>
      <trkpt lat="48.08006" lon="7.15693">
        <ele>963</ele>
        <time>2019-04-30T02:40:34Z</time>
      </trkpt>
      <trkpt lat="48.08045" lon="7.15791">
        <ele>962</ele>
        <time>2019-04-30T02:41:34Z</time>
      </trkpt>
      <trkpt lat="48.0806" lon="7.15822">
        <ele>961</ele>
        <time>2019-04-30T02:42:34Z</time>
      </trkpt>
      <trkpt lat="48.08102" lon="7.15895">
        <ele>960</ele>
        <time>2019-04-30T02:43:34Z</time>
      </trkpt>
      <trkpt lat="48.08123" lon="7.1594">
        <ele>959</ele>
        <time>2019-04-30T02:44:34Z</time>
      </trkpt>
      <trkpt lat="48.08149" lon="7.16048">
        <ele>962</ele>
        <time>2019-04-30T02:45:34Z</time>
      </trkpt>
      <trkpt lat="48.08167" lon="7.1611">
        <ele>962</ele>
        <time>2019-04-30T02:46:34Z</time>
      </trkpt>
      <trkpt lat="48.0821" lon="7.1621">
        <ele>963</ele>
        <time>2019-04-30T02:47:34Z</time>
      </trkpt>
      <trkpt lat="48.08219" lon="7.16258">
        <ele>963</ele>
        <time>2019-04-30T02:48:34Z</time>
      </trkpt>
      <trkpt lat="48.08213" lon="7.16299">
        <ele>961</ele>
        <time>2019-04-30T02:49:34Z</time>
      </trkpt>
      <trkpt lat="48.08194" lon="7.16337">
        <ele>959</ele>
        <time>2019-04-30T02:50:34Z</time>
      </trkpt>
      <trkpt lat="48.08164" lon="7.16376">
        <ele>957</ele>
        <time>2019-04-30T02:51:34Z</time>
      </trkpt>
      <trkpt lat="48.08137" lon="7.16395">
        <ele>956</ele>
        <time>2019-04-30T02:52:34Z</time>
      </trkpt>
      <trkpt lat="48.08126" lon="7.16399">
        <ele>955</ele>
        <time>2019-04-30T02:53:34Z</time>
      </trkpt>
      <trkpt lat="48.08053" lon="7.16409">
        <ele>956</ele>
        <time>2019-04-30T02:54:34Z</time>
      </trkpt>
      <trkpt lat="48.08037" lon="7.1641">
        <ele>956</ele>
        <time>2019-04-30T02:55:34Z</time>
      </trkpt>
      <trkpt lat="48.08003" lon="7.16405">
        <ele>958</ele>
        <time>2019-04-30T02:56:34Z</time>
      </trkpt>
      <trkpt lat="48.0799" lon="7.1641">
        <ele>958</ele>
        <time>2019-04-30T02:57:34Z</time>
      </trkpt>
      <trkpt lat="48.07981" lon="7.16423">
        <ele>956</ele>
        <time>2019-04-30T02:58:34Z</time>
      </trkpt>
      <trkpt lat="48.07949" lon="7.16585">
        <ele>944</ele>
        <time>2019-04-30T02:59:34Z</time>
      </trkpt>
      <trkpt lat="48.07947" lon="7.1672">
        <ele>937</ele>
        <time>2019-04-30T03:00:34Z</time>
      </trkpt>
      <trkpt lat="48.07957" lon="7.16801">
        <ele>935</ele>
        <time>2019-04-30T03:01:34Z</time>
      </trkpt>
      <trkpt lat="48.07975" lon="7.16877">
        <ele>935</ele>
        <time>2019-04-30T03:02:34Z</time>
      </trkpt>
      <trkpt lat="48.08039" lon="7.17038">
        <ele>930</ele>
        <time>2019-04-30T03:03:34Z</time>
      </trkpt>
      <trkpt lat="48.08077" lon="7.17126">
        <ele>927</ele>
        <time>2019-04-30T03:04:34Z</time>
      </trkpt>
      <trkpt lat="48.08116" lon="7.17176">
        <ele>921</ele>
        <time>2019-04-30T03:05:34Z</time>
      </trkpt>
      <trkpt lat="48.08161" lon="7.17249">
        <ele>919</ele>
        <time>2019-04-30T03:06:34Z</time>
      </trkpt>
      <trkpt lat="48.08177" lon="7.17268">
        <ele>915</ele>
        <time>2019-04-30T03:07:34Z</time>
      </trkpt>
      <trkpt lat="48.08195" lon="7.17306">
        <ele>911</ele>
        <time>2019-04-30T03:08:34Z</time>
      </trkpt>
      <trkpt lat="48.08205" lon="7.17352">
        <ele>909</ele>
        <time>2019-04-30T03:09:34Z</time>
      </trkpt>
      <trkpt lat="48.08228" lon="7.17511">
        <ele>904</ele>
        <time>2019-04-30T03:10:34Z</time>
      </trkpt>
      <trkpt lat="48.08236" lon="7.17616">
        <ele>904</ele>
        <time>2019-04-30T03:11:34Z</time>
      </trkpt>
      <trkpt lat="48.08248" lon="7.17668">
        <ele>906</ele>
        <time>2019-04-30T03:12:34Z</time>
      </trkpt>
      <trkpt lat="48.08267" lon="7.17702">
        <ele>904</ele>
        <time>2019-04-30T03:13:34Z</time>
      </trkpt>
      <trkpt lat="48.08305" lon="7.17748">
        <ele>899</ele>
        <time>2019-04-30T03:14:34Z</time>
      </trkpt>
      <trkpt lat="48.08358" lon="7.17805">
        <ele>891</ele>
        <time>2019-04-30T03:15:34Z</time>
      </trkpt>
      <trkpt lat="48.08376" lon="7.17837">
        <ele>890</ele>
        <time>2019-04-30T03:16:34Z</time>
      </trkpt>
      <trkpt lat="48.08389" lon="7.17873">
        <ele>890</ele>
        <time>2019-04-30T03:17:34Z</time>
      </trkpt>
      <trkpt lat="48.08398" lon="7.1791">
        <ele>891</ele>
        <time>2019-04-30T03:18:34Z</time>
      </trkpt>
      <trkpt lat="48.08408" lon="7.17968">
        <ele>892</ele>
        <time>2019-04-30T03:19:34Z</time>
      </trkpt>
      <trkpt lat="48.08416" lon="7.18135">
        <ele>897</ele>
        <time>2019-04-30T03:20:34Z</time>
      </trkpt>
      <trkpt lat="48.08423" lon="7.18211">
        <ele>898</ele>
        <time>2019-04-30T03:21:34Z</time>
      </trkpt>
      <trkpt lat="48.08434" lon="7.18249">
        <ele>896</ele>
        <time>2019-04-30T03:22:34Z</time>
      </trkpt>
      <trkpt lat="48.08457" lon="7.18308">
        <ele>894</ele>
        <time>2019-04-30T03:23:34Z</time>
      </trkpt>
      <trkpt lat="48.08473" lon="7.18367">
        <ele>893</ele>
        <time>2019-04-30T03:24:34Z</time>
      </trkpt>
      <trkpt lat="48.08486" lon="7.18429">
        <ele>894</ele>
        <time>2019-04-30T03:25:34Z</time>
      </trkpt>
      <trkpt lat="48.08492" lon="7.18485">
        <ele>895</ele>
        <time>2019-04-30T03:26:34Z</time>
      </trkpt>
      <trkpt lat="48.08486" lon="7.18567">
        <ele>897</ele>
        <time>2019-04-30T03:27:34Z</time>
      </trkpt>
      <trkpt lat="48.08466" lon="7.18619">
        <ele>893</ele>
        <time>2019-04-30T03:28:34Z</time>
      </trkpt>
      <trkpt lat="48.08459" lon="7.18661">
        <ele>890</ele>
        <time>2019-04-30T03:29:34Z</time>
      </trkpt>
      <trkpt lat="48.08459" lon="7.18754">
        <ele>891</ele>
        <time>2019-04-30T03:30:34Z</time>
      </trkpt>
      <trkpt lat="48.0845" lon="7.18834">
        <ele>892</ele>
        <time>2019-04-30T03:31:34Z</time>
      </trkpt>
      <trkpt lat="48.08433" lon="7.1892">
        <ele>891</ele>
        <time>2019-04-30T03:32:34Z</time>
      </trkpt>
      <trkpt lat="48.08425" lon="7.18948">
        <ele>892</ele>
        <time>2019-04-30T03:33:34Z</time>
      </trkpt>
      <trkpt lat="48.08413" lon="7.18974">
        <ele>891</ele>
        <time>2019-04-30T03:34:34Z</time>
      </trkpt>
      <trkpt lat="48.08387" lon="7.19006">
        <ele>889</ele>
        <time>2019-04-30T03:35:34Z</time>
      </trkpt>
      <trkpt lat="48.08331" lon="7.19061">
        <ele>881</ele>
        <time>2019-04-30T03:36:34Z</time>
      </trkpt>
      <trkpt lat="48.08314" lon="7.19083">
        <ele>880</ele>
        <time>2019-04-30T03:37:34Z</time>
      </trkpt>
      <trkpt lat="48.083" lon="7.19109">
        <ele>878</ele>
        <time>2019-04-30T03:38:34Z</time>
      </trkpt>
      <trkpt lat="48.08278" lon="7.1917">
        <ele>875</ele>
        <time>2019-04-30T03:39:34Z</time>
      </trkpt>
      <trkpt lat="48.08268" lon="7.19241">
        <ele>872</ele>
        <time>2019-04-30T03:40:34Z</time>
      </trkpt>
      <trkpt lat="48.08267" lon="7.19297">
        <ele>869</ele>
        <time>2019-04-30T03:41:34Z</time>
      </trkpt>
      <trkpt lat="48.0828" lon="7.19425">
        <ele>866</ele>
        <time>2019-04-30T03:42:34Z</time>
      </trkpt>
      <trkpt lat="48.08294" lon="7.19496">
        <ele>862</ele>
        <time>2019-04-30T03:43:34Z</time>
      </trkpt>
      <trkpt lat="48.08305" lon="7.19528">
        <ele>858</ele>
        <time>2019-04-30T03:44:34Z</time>
      </trkpt>
      <trkpt lat="48.08321" lon="7.19556">
        <ele>855</ele>
        <time>2019-04-30T03:45:34Z</time>
      </trkpt>
      <trkpt lat="48.08342" lon="7.19577">
        <ele>852</ele>
        <time>2019-04-30T03:46:34Z</time>
      </trkpt>
      <trkpt lat="48.08366" lon="7.19593">
        <ele>849</ele>
        <time>2019-04-30T03:47:34Z</time>
      </trkpt>
      <trkpt lat="48.0839" lon="7.19604">
        <ele>848</ele>
        <time>2019-04-30T03:48:34Z</time>
      </trkpt>
      <trkpt lat="48.08415" lon="7.19612">
        <ele>847</ele>
        <time>2019-04-30T03:49:34Z</time>
      </trkpt>
      <trkpt lat="48.0849" lon="7.19625">
        <ele>845</ele>
        <time>2019-04-30T03:50:34Z</time>
      </trkpt>
      <trkpt lat="48.08538" lon="7.19626">
        <ele>842</ele>
        <time>2019-04-30T03:51:34Z</time>
      </trkpt>
      <trkpt lat="48.08587" lon="7.1962">
        <ele>839</ele>
        <time>2019-04-30T03:52:34Z</time>
      </trkpt>
      <trkpt lat="48.08635" lon="7.19605">
        <ele>835</ele>
        <time>2019-04-30T03:53:34Z</time>
      </trkpt>
      <trkpt lat="48.08683" lon="7.19577">
        <ele>834</ele>
        <time>2019-04-30T03:54:34Z</time>
      </trkpt>
      <trkpt lat="48.08728" lon="7.19544">
        <ele>831</ele>
        <time>2019-04-30T03:55:34Z</time>
      </trkpt>
      <trkpt lat="48.08761" lon="7.19514">
        <ele>829</ele>
        <time>2019-04-30T03:56:34Z</time>
      </trkpt>
      <trkpt lat="48.0879" lon="7.19478">
        <ele>826</ele>
        <time>2019-04-30T03:57:34Z</time>
      </trkpt>
      <trkpt lat="48.08848" lon="7.19386">
        <ele>828</ele>
        <time>2019-04-30T03:58:34Z</time>
      </trkpt>
      <trkpt lat="48.08864" lon="7.19365">
        <ele>831</ele>
        <time>2019-04-30T03:59:34Z</time>
      </trkpt>
      <trkpt lat="48.08882" lon="7.19357">
        <ele>831</ele>
        <time>2019-04-30T04:00:34Z</time>
      </trkpt>
      <trkpt lat="48.08902" lon="7.19357">
        <ele>829</ele>
        <time>2019-04-30T04:01:34Z</time>
      </trkpt>
      <trkpt lat="48.08926" lon="7.19364">
        <ele>825</ele>
        <time>2019-04-30T04:02:34Z</time>
      </trkpt>
      <trkpt lat="48.08951" lon="7.19379">
        <ele>821</ele>
        <time>2019-04-30T04:03:34Z</time>
      </trkpt>
      <trkpt lat="48.08976" lon="7.19397">
        <ele>816</ele>
        <time>2019-04-30T04:04:34Z</time>
      </trkpt>
      <trkpt lat="48.09" lon="7.19419">
        <ele>812</ele>
        <time>2019-04-30T04:05:34Z</time>
      </trkpt>
      <trkpt lat="48.09022" lon="7.19447">
        <ele>807</ele>
        <time>2019-04-30T04:06:34Z</time>
      </trkpt>
      <trkpt lat="48.09038" lon="7.19481">
        <ele>802</ele>
        <time>2019-04-30T04:07:34Z</time>
      </trkpt>
      <trkpt lat="48.09062" lon="7.19596">
        <ele>794</ele>
        <time>2019-04-30T04:08:34Z</time>
      </trkpt>
      <trkpt lat="48.09092" lon="7.19679">
        <ele>790</ele>
        <time>2019-04-30T04:09:34Z</time>
      </trkpt>
      <trkpt lat="48.09114" lon="7.19803">
        <ele>786</ele>
        <time>2019-04-30T04:10:34Z</time>
      </trkpt>
      <trkpt lat="48.09147" lon="7.19912">
        <ele>787</ele>
        <time>2019-04-30T04:11:34Z</time>
      </trkpt>
      <trkpt lat="48.09156" lon="7.1996">
        <ele>787</ele>
        <time>2019-04-30T04:12:34Z</time>
      </trkpt>
      <trkpt lat="48.09156" lon="7.20076">
        <ele>786</ele>
        <time>2019-04-30T04:13:34Z</time>
      </trkpt>
      <trkpt lat="48.09165" lon="7.20156">
        <ele>788</ele>
        <time>2019-04-30T04:14:34Z</time>
      </trkpt>
      <trkpt lat="48.09187" lon="7.20227">
        <ele>784</ele>
        <time>2019-04-30T04:15:34Z</time>
      </trkpt>
      <trkpt lat="48.09205" lon="7.20268">
        <ele>783</ele>
        <time>2019-04-30T04:16:34Z</time>
      </trkpt>
      <trkpt lat="48.09226" lon="7.20301">
        <ele>782</ele>
        <time>2019-04-30T04:17:34Z</time>
      </trkpt>
      <trkpt lat="48.09254" lon="7.20328">
        <ele>783</ele>
        <time>2019-04-30T04:18:34Z</time>
      </trkpt>
      <trkpt lat="48.09312" lon="7.20376">
        <ele>781</ele>
        <time>2019-04-30T04:19:34Z</time>
      </trkpt>
      <trkpt lat="48.09343" lon="7.20396">
        <ele>778</ele>
        <time>2019-04-30T04:20:34Z</time>
      </trkpt>
      <trkpt lat="48.09432" lon="7.20441">
        <ele>768</ele>
        <time>2019-04-30T04:21:34Z</time>
      </trkpt>
      <trkpt lat="48.09451" lon="7.20441">
        <ele>765</ele>
        <time>2019-04-30T04:22:34Z</time>
      </trkpt>
      <trkpt lat="48.09458" lon="7.20436">
        <ele>765</ele>
        <time>2019-04-30T04:23:34Z</time>
      </trkpt>
      <trkpt lat="48.09472" lon="7.20418">
        <ele>763</ele>
        <time>2019-04-30T04:24:34Z</time>
      </trkpt>
      <trkpt lat="48.09475" lon="7.20406">
        <ele>762</ele>
        <time>2019-04-30T04:25:34Z</time>
      </trkpt>
      <trkpt lat="48.09487" lon="7.20389">
        <ele>760</ele>
        <time>2019-04-30T04:26:34Z</time>
      </trkpt>
      <trkpt lat="48.09493" lon="7.20384">
        <ele>759</ele>
        <time>2019-04-30T04:27:34Z</time>
      </trkpt>
      <trkpt lat="48.09506" lon="7.20381">
        <ele>757</ele>
        <time>2019-04-30T04:28:34Z</time>
      </trkpt>
      <trkpt lat="48.09585" lon="7.20423">
        <ele>751</ele>
        <time>2019-04-30T04:29:34Z</time>
      </trkpt>
      <trkpt lat="48.09667" lon="7.20444">
        <ele>750</ele>
        <time>2019-04-30T04:30:34Z</time>
      </trkpt>
      <trkpt lat="48.09806" lon="7.20493">
        <ele>747</ele>
        <time>2019-04-30T04:31:34Z</time>
      </trkpt>
      <trkpt lat="48.09814" lon="7.20499">
        <ele>747</ele>
        <time>2019-04-30T04:32:34Z</time>
      </trkpt>
      <trkpt lat="48.09827" lon="7.20517">
        <ele>746</ele>
        <time>2019-04-30T04:33:34Z</time>
      </trkpt>
      <trkpt lat="48.09833" lon="7.2053">
        <ele>746</ele>
        <time>2019-04-30T04:34:34Z</time>
      </trkpt>
      <trkpt lat="48.0984" lon="7.2056">
        <ele>745</ele>
        <time>2019-04-30T04:35:34Z</time>
      </trkpt>
      <trkpt lat="48.09846" lon="7.20677">
        <ele>742</ele>
        <time>2019-04-30T04:36:34Z</time>
      </trkpt>
      <trkpt lat="48.09846" lon="7.20771">
        <ele>741</ele>
        <time>2019-04-30T04:37:34Z</time>
      </trkpt>
      <trkpt lat="48.09849" lon="7.20824">
        <ele>741</ele>
        <time>2019-04-30T04:38:34Z</time>
      </trkpt>
      <trkpt lat="48.0986" lon="7.20912">
        <ele>741</ele>
        <time>2019-04-30T04:39:34Z</time>
      </trkpt>
      <trkpt lat="48.09876" lon="7.20979">
        <ele>742</ele>
        <time>2019-04-30T04:40:34Z</time>
      </trkpt>
      <trkpt lat="48.09908" lon="7.21057">
        <ele>739</ele>
        <time>2019-04-30T04:41:34Z</time>
      </trkpt>
      <trkpt lat="48.0992" lon="7.211">
        <ele>737</ele>
        <time>2019-04-30T04:42:34Z</time>
      </trkpt>
      <trkpt lat="48.09947" lon="7.21228">
        <ele>728</ele>
        <time>2019-04-30T04:43:34Z</time>
      </trkpt>
      <trkpt lat="48.09971" lon="7.21398">
        <ele>716</ele>
        <time>2019-04-30T04:44:34Z</time>
      </trkpt>
      <trkpt lat="48.09979" lon="7.21431">
        <ele>715</ele>
        <time>2019-04-30T04:45:34Z</time>
      </trkpt>
      <trkpt lat="48.0999" lon="7.2146">
        <ele>714</ele>
        <time>2019-04-30T04:46:34Z</time>
      </trkpt>
      <trkpt lat="48.10005" lon="7.21487">
        <ele>713</ele>
        <time>2019-04-30T04:47:34Z</time>
      </trkpt>
      <trkpt lat="48.10024" lon="7.21529">
        <ele>711</ele>
        <time>2019-04-30T04:48:34Z</time>
      </trkpt>
      <trkpt lat="48.10027" lon="7.21545">
        <ele>711</ele>
        <time>2019-04-30T04:49:34Z</time>
      </trkpt>
      <trkpt lat="48.10026" lon="7.21562">
        <ele>711</ele>
        <time>2019-04-30T04:50:34Z</time>
      </trkpt>
      <trkpt lat="48.1002" lon="7.21577">
        <ele>711</ele>
        <time>2019-04-30T04:51:34Z</time>
      </trkpt>
      <trkpt lat="48.10011" lon="7.21589">
        <ele>711</ele>
        <time>2019-04-30T04:52:34Z</time>
      </trkpt>
      <trkpt lat="48.09961" lon="7.21628">
        <ele>709</ele>
        <time>2019-04-30T04:53:34Z</time>
      </trkpt>
      <trkpt lat="48.09939" lon="7.21639">
        <ele>708</ele>
        <time>2019-04-30T04:54:34Z</time>
      </trkpt>
      <trkpt lat="48.09916" lon="7.21637">
        <ele>707</ele>
        <time>2019-04-30T04:55:34Z</time>
      </trkpt>
      <trkpt lat="48.09895" lon="7.21623">
        <ele>706</ele>
        <time>2019-04-30T04:56:34Z</time>
      </trkpt>
      <trkpt lat="48.09838" lon="7.21571">
        <ele>706</ele>
        <time>2019-04-30T04:57:34Z</time>
      </trkpt>
      <trkpt lat="48.09809" lon="7.21559">
        <ele>708</ele>
        <time>2019-04-30T04:58:34Z</time>
      </trkpt>
      <trkpt lat="48.09777" lon="7.21554">
        <ele>710</ele>
        <time>2019-04-30T04:59:34Z</time>
      </trkpt>
      <trkpt lat="48.09765" lon="7.21557">
        <ele>711</ele>
        <time>2019-04-30T05:00:34Z</time>
      </trkpt>
      <trkpt lat="48.09733" lon="7.21576">
        <ele>709</ele>
        <time>2019-04-30T05:01:34Z</time>
      </trkpt>
      <trkpt lat="48.09773" lon="7.2174">
        <ele>692</ele>
        <time>2019-04-30T05:02:34Z</time>
      </trkpt>
      <trkpt lat="48.09768" lon="7.21757">
        <ele>691</ele>
        <time>2019-04-30T05:03:34Z</time>
      </trkpt>
      <trkpt lat="48.09764" lon="7.21808">
        <ele>690</ele>
        <time>2019-04-30T05:04:34Z</time>
      </trkpt>
      <trkpt lat="48.09765" lon="7.21825">
        <ele>689</ele>
        <time>2019-04-30T05:05:34Z</time>
      </trkpt>
      <trkpt lat="48.09781" lon="7.21922">
        <ele>688</ele>
        <time>2019-04-30T05:06:34Z</time>
      </trkpt>
      <trkpt lat="48.09802" lon="7.21982">
        <ele>687</ele>
        <time>2019-04-30T05:07:34Z</time>
      </trkpt>
      <trkpt lat="48.09807" lon="7.22012">
        <ele>687</ele>
        <time>2019-04-30T05:08:34Z</time>
      </trkpt>
      <trkpt lat="48.09811" lon="7.22043">
        <ele>686</ele>
        <time>2019-04-30T05:09:34Z</time>
      </trkpt>
      <trkpt lat="48.09818" lon="7.22149">
        <ele>681</ele>
        <time>2019-04-30T05:10:34Z</time>
      </trkpt>
      <trkpt lat="48.0984" lon="7.22287">
        <ele>682</ele>
        <time>2019-04-30T05:11:34Z</time>
      </trkpt>
      <trkpt lat="48.09843" lon="7.22318">
        <ele>682</ele>
        <time>2019-04-30T05:12:34Z</time>
      </trkpt>
      <trkpt lat="48.09842" lon="7.2235">
        <ele>683</ele>
        <time>2019-04-30T05:13:34Z</time>
      </trkpt>
      <trkpt lat="48.09834" lon="7.22397">
        <ele>684</ele>
        <time>2019-04-30T05:14:34Z</time>
      </trkpt>
      <trkpt lat="48.09821" lon="7.22443">
        <ele>681</ele>
        <time>2019-04-30T05:15:34Z</time>
      </trkpt>
      <trkpt lat="48.09813" lon="7.22488">
        <ele>678</ele>
        <time>2019-04-30T05:16:34Z</time>
      </trkpt>
      <trkpt lat="48.09809" lon="7.22597">
        <ele>677</ele>
        <time>2019-04-30T05:17:34Z</time>
      </trkpt>
      <trkpt lat="48.09803" lon="7.22658">
        <ele>676</ele>
        <time>2019-04-30T05:18:34Z</time>
      </trkpt>
      <trkpt lat="48.09777" lon="7.22743">
        <ele>677</ele>
        <time>2019-04-30T05:19:34Z</time>
      </trkpt>
      <trkpt lat="48.09744" lon="7.22821">
        <ele>676</ele>
        <time>2019-04-30T05:20:34Z</time>
      </trkpt>
      <trkpt lat="48.09738" lon="7.22847">
        <ele>674</ele>
        <time>2019-04-30T05:21:34Z</time>
      </trkpt>
      <trkpt lat="48.09738" lon="7.22861">
        <ele>674</ele>
        <time>2019-04-30T05:22:34Z</time>
      </trkpt>
      <trkpt lat="48.09753" lon="7.22897">
        <ele>674</ele>
        <time>2019-04-30T05:23:34Z</time>
      </trkpt>
      <trkpt lat="48.09768" lon="7.22914">
        <ele>674</ele>
        <time>2019-04-30T05:24:34Z</time>
      </trkpt>
      <trkpt lat="48.09803" lon="7.22945">
        <ele>669</ele>
        <time>2019-04-30T05:25:34Z</time>
      </trkpt>
      <trkpt lat="48.09854" lon="7.22986">
        <ele>661</ele>
        <time>2019-04-30T05:26:34Z</time>
      </trkpt>
      <trkpt lat="48.09939" lon="7.23028">
        <ele>660</ele>
        <time>2019-04-30T05:27:34Z</time>
      </trkpt>
      <trkpt lat="48.09952" lon="7.2304">
        <ele>659</ele>
        <time>2019-04-30T05:28:34Z</time>
      </trkpt>
      <trkpt lat="48.09967" lon="7.23068">
        <ele>658</ele>
        <time>2019-04-30T05:29:34Z</time>
      </trkpt>
      <trkpt lat="48.09978" lon="7.23112">
        <ele>657</ele>
        <time>2019-04-30T05:30:34Z</time>
      </trkpt>
      <trkpt lat="48.09988" lon="7.23171">
        <ele>655</ele>
        <time>2019-04-30T05:31:34Z</time>
      </trkpt>
      <trkpt lat="48.09988" lon="7.23212">
        <ele>655</ele>
        <time>2019-04-30T05:32:34Z</time>
      </trkpt>
      <trkpt lat="48.09984" lon="7.23253">
        <ele>654</ele>
        <time>2019-04-30T05:33:34Z</time>
      </trkpt>
      <trkpt lat="48.09982" lon="7.23267">
        <ele>654</ele>
        <time>2019-04-30T05:34:34Z</time>
      </trkpt>
      <trkpt lat="48.09973" lon="7.23291">
        <ele>652</ele>
        <time>2019-04-30T05:35:34Z</time>
      </trkpt>
      <trkpt lat="48.09937" lon="7.23365">
        <ele>645</ele>
        <time>2019-04-30T05:36:34Z</time>
      </trkpt>
      <trkpt lat="48.09932" lon="7.23392">
        <ele>645</ele>
        <time>2019-04-30T05:37:34Z</time>
      </trkpt>
      <trkpt lat="48.09932" lon="7.23412">
        <ele>645</ele>
        <time>2019-04-30T05:38:34Z</time>
      </trkpt>
      <trkpt lat="48.09941" lon="7.23437">
        <ele>647</ele>
        <time>2019-04-30T05:39:34Z</time>
      </trkpt>
      <trkpt lat="48.09941" lon="7.23449">
        <ele>646</ele>
        <time>2019-04-30T05:40:34Z</time>
      </trkpt>
      <trkpt lat="48.09937" lon="7.23453">
        <ele>645</ele>
        <time>2019-04-30T05:41:34Z</time>
      </trkpt>
      <trkpt lat="48.09932" lon="7.23453">
        <ele>644</ele>
        <time>2019-04-30T05:42:34Z</time>
      </trkpt>
      <trkpt lat="48.09922" lon="7.23442">
        <ele>642</ele>
        <time>2019-04-30T05:43:34Z</time>
      </trkpt>
      <trkpt lat="48.09917" lon="7.23415">
        <ele>642</ele>
        <time>2019-04-30T05:44:34Z</time>
      </trkpt>
      <trkpt lat="48.0992" lon="7.23354">
        <ele>640</ele>
        <time>2019-04-30T05:45:34Z</time>
      </trkpt>
      <trkpt lat="48.09914" lon="7.23339">
        <ele>638</ele>
        <time>2019-04-30T05:46:34Z</time>
      </trkpt>
      <trkpt lat="48.09901" lon="7.23337">
        <ele>634</ele>
        <time>2019-04-30T05:47:34Z</time>
      </trkpt>
      <trkpt lat="48.09892" lon="7.23354">
        <ele>633</ele>
        <time>2019-04-30T05:48:34Z</time>
      </trkpt>
      <trkpt lat="48.09884" lon="7.2343">
        <ele>635</ele>
        <time>2019-04-30T05:49:34Z</time>
      </trkpt>
      <trkpt lat="48.09878" lon="7.23454">
        <ele>633</ele>
        <time>2019-04-30T05:50:34Z</time>
      </trkpt>
      <trkpt lat="48.09864" lon="7.23471">
        <ele>630</ele>
        <time>2019-04-30T05:51:34Z</time>
      </trkpt>
      <trkpt lat="48.09857" lon="7.23475">
        <ele>628</ele>
        <time>2019-04-30T05:52:34Z</time>
      </trkpt>
      <trkpt lat="48.09837" lon="7.23466">
        <ele>624</ele>
        <time>2019-04-30T05:53:34Z</time>
      </trkpt>
      <trkpt lat="48.09828" lon="7.23457">
        <ele>623</ele>
        <time>2019-04-30T05:54:34Z</time>
      </trkpt>
      <trkpt lat="48.09818" lon="7.23433">
        <ele>622</ele>
        <time>2019-04-30T05:55:34Z</time>
      </trkpt>
      <trkpt lat="48.0982" lon="7.2339">
        <ele>621</ele>
        <time>2019-04-30T05:56:34Z</time>
      </trkpt>
      <trkpt lat="48.0984" lon="7.2335">
        <ele>621</ele>
        <time>2019-04-30T05:57:34Z</time>
      </trkpt>
      <trkpt lat="48.09884" lon="7.23276">
        <ele>626</ele>
        <time>2019-04-30T05:58:34Z</time>
      </trkpt>
      <trkpt lat="48.09896" lon="7.23247">
        <ele>628</ele>
        <time>2019-04-30T05:59:34Z</time>
      </trkpt>
      <trkpt lat="48.09899" lon="7.23214">
        <ele>632</ele>
        <time>2019-04-30T06:00:34Z</time>
      </trkpt>
      <trkpt lat="48.09892" lon="7.23181">
        <ele>632</ele>
        <time>2019-04-30T06:01:34Z</time>
      </trkpt>
      <trkpt lat="48.09886" lon="7.23165">
        <ele>632</ele>
        <time>2019-04-30T06:02:34Z</time>
      </trkpt>
      <trkpt lat="48.09869" lon="7.23137">
        <ele>631</ele>
        <time>2019-04-30T06:03:34Z</time>
      </trkpt>
      <trkpt lat="48.09834" lon="7.23109">
        <ele>626</ele>
        <time>2019-04-30T06:04:34Z</time>
      </trkpt>
      <trkpt lat="48.09683" lon="7.23039">
        <ele>621</ele>
        <time>2019-04-30T06:05:34Z</time>
      </trkpt>
      <trkpt lat="48.09642" lon="7.23047">
        <ele>614</ele>
        <time>2019-04-30T06:06:34Z</time>
      </trkpt>
      <trkpt lat="48.09603" lon="7.23066">
        <ele>603</ele>
        <time>2019-04-30T06:07:34Z</time>
      </trkpt>
      <trkpt lat="48.09579" lon="7.23073">
        <ele>598</ele>
        <time>2019-04-30T06:08:34Z</time>
      </trkpt>
      <trkpt lat="48.09442" lon="7.23062">
        <ele>578</ele>
        <time>2019-04-30T06:09:34Z</time>
      </trkpt>
      <trkpt lat="48.09419" lon="7.23055">
        <ele>575</ele>
        <time>2019-04-30T06:10:34Z</time>
      </trkpt>
      <trkpt lat="48.09409" lon="7.23046">
        <ele>575</ele>
        <time>2019-04-30T06:11:34Z</time>
      </trkpt>
      <trkpt lat="48.09402" lon="7.23031">
        <ele>576</ele>
        <time>2019-04-30T06:12:34Z</time>
      </trkpt>
      <trkpt lat="48.09386" lon="7.2298">
        <ele>575</ele>
        <time>2019-04-30T06:13:34Z</time>
      </trkpt>
      <trkpt lat="48.09384" lon="7.22961">
        <ele>574</ele>
        <time>2019-04-30T06:14:34Z</time>
      </trkpt>
      <trkpt lat="48.09385" lon="7.22941">
        <ele>573</ele>
        <time>2019-04-30T06:15:34Z</time>
      </trkpt>
      <trkpt lat="48.09389" lon="7.22922">
        <ele>574</ele>
        <time>2019-04-30T06:16:34Z</time>
      </trkpt>
      <trkpt lat="48.09395" lon="7.22906">
        <ele>575</ele>
        <time>2019-04-30T06:17:34Z</time>
      </trkpt>
      <trkpt lat="48.09412" lon="7.22882">
        <ele>577</ele>
        <time>2019-04-30T06:18:34Z</time>
      </trkpt>
      <trkpt lat="48.09419" lon="7.22856">
        <ele>575</ele>
        <time>2019-04-30T06:19:34Z</time>
      </trkpt>
      <trkpt lat="48.09413" lon="7.22832">
        <ele>568</ele>
        <time>2019-04-30T06:20:34Z</time>
      </trkpt>
      <trkpt lat="48.09401" lon="7.22822">
        <ele>562</ele>
        <time>2019-04-30T06:21:34Z</time>
      </trkpt>
      <trkpt lat="48.09388" lon="7.2282">
        <ele>556</ele>
        <time>2019-04-30T06:22:34Z</time>
      </trkpt>
      <trkpt lat="48.09381" lon="7.22824">
        <ele>555</ele>
        <time>2019-04-30T06:23:34Z</time>
      </trkpt>
      <trkpt lat="48.09371" lon="7.22831">
        <ele>552</ele>
        <time>2019-04-30T06:24:34Z</time>
      </trkpt>
      <trkpt lat="48.09363" lon="7.22845">
        <ele>552</ele>
        <time>2019-04-30T06:25:34Z</time>
      </trkpt>
      <trkpt lat="48.0935" lon="7.2288">
        <ele>553</ele>
        <time>2019-04-30T06:26:34Z</time>
      </trkpt>
      <trkpt lat="48.09344" lon="7.22915">
        <ele>556</ele>
        <time>2019-04-30T06:27:34Z</time>
      </trkpt>
      <trkpt lat="48.09352" lon="7.22987">
        <ele>562</ele>
        <time>2019-04-30T06:28:34Z</time>
      </trkpt>
      <trkpt lat="48.0936" lon="7.23032">
        <ele>561</ele>
        <time>2019-04-30T06:29:34Z</time>
      </trkpt>
      <trkpt lat="48.09367" lon="7.2305">
        <ele>561</ele>
        <time>2019-04-30T06:30:34Z</time>
      </trkpt>
      <trkpt lat="48.09377" lon="7.23066">
        <ele>561</ele>
        <time>2019-04-30T06:31:34Z</time>
      </trkpt>
      <trkpt lat="48.09387" lon="7.23079">
        <ele>562</ele>
        <time>2019-04-30T06:32:34Z</time>
      </trkpt>
      <trkpt lat="48.09397" lon="7.23086">
        <ele>562</ele>
        <time>2019-04-30T06:33:34Z</time>
      </trkpt>
      <trkpt lat="48.09422" lon="7.2309">
        <ele>566</ele>
        <time>2019-04-30T06:34:34Z</time>
      </trkpt>
      <trkpt lat="48.09447" lon="7.231">
        <ele>566</ele>
        <time>2019-04-30T06:35:34Z</time>
      </trkpt>
      <trkpt lat="48.09481" lon="7.23131">
        <ele>558</ele>
        <time>2019-04-30T06:36:34Z</time>
      </trkpt>
      <trkpt lat="48.09503" lon="7.23146">
        <ele>555</ele>
        <time>2019-04-30T06:37:34Z</time>
      </trkpt>
      <trkpt lat="48.09538" lon="7.23153">
        <ele>556</ele>
        <time>2019-04-30T06:38:34Z</time>
      </trkpt>
      <trkpt lat="48.09567" lon="7.2317">
        <ele>552</ele>
        <time>2019-04-30T06:39:34Z</time>
      </trkpt>
      <trkpt lat="48.09589" lon="7.23179">
        <ele>551</ele>
        <time>2019-04-30T06:40:34Z</time>
      </trkpt>
      <trkpt lat="48.09649" lon="7.23185">
        <ele>559</ele>
        <time>2019-04-30T06:41:34Z</time>
      </trkpt>
      <trkpt lat="48.09668" lon="7.23195">
        <ele>560</ele>
        <time>2019-04-30T06:42:34Z</time>
      </trkpt>
      <trkpt lat="48.09684" lon="7.23207">
        <ele>562</ele>
        <time>2019-04-30T06:43:34Z</time>
      </trkpt>
      <trkpt lat="48.09695" lon="7.23222">
        <ele>563</ele>
        <time>2019-04-30T06:44:34Z</time>
      </trkpt>
      <trkpt lat="48.09704" lon="7.23249">
        <ele>561</ele>
        <time>2019-04-30T06:45:34Z</time>
      </trkpt>
      <trkpt lat="48.09668" lon="7.23343">
        <ele>561</ele>
        <time>2019-04-30T06:46:34Z</time>
      </trkpt>
      <trkpt lat="48.09646" lon="7.23384">
        <ele>557</ele>
        <time>2019-04-30T06:47:34Z</time>
      </trkpt>
      <trkpt lat="48.09596" lon="7.23465">
        <ele>548</ele>
        <time>2019-04-30T06:48:34Z</time>
      </trkpt>
      <trkpt lat="48.09543" lon="7.23537">
        <ele>543</ele>
        <time>2019-04-30T06:49:34Z</time>
      </trkpt>
      <trkpt lat="48.09487" lon="7.23595">
        <ele>534</ele>
        <time>2019-04-30T06:50:34Z</time>
      </trkpt>
      <trkpt lat="48.09466" lon="7.2362">
        <ele>525</ele>
        <time>2019-04-30T06:51:34Z</time>
      </trkpt>
      <trkpt lat="48.0946" lon="7.23634">
        <ele>522</ele>
        <time>2019-04-30T06:52:34Z</time>
      </trkpt>
      <trkpt lat="48.09458" lon="7.2365">
        <ele>521</ele>
        <time>2019-04-30T06:53:34Z</time>
      </trkpt>
      <trkpt lat="48.09463" lon="7.23678">
        <ele>519</ele>
        <time>2019-04-30T06:54:34Z</time>
      </trkpt>
      <trkpt lat="48.09468" lon="7.2369">
        <ele>517</ele>
        <time>2019-04-30T06:55:34Z</time>
      </trkpt>
      <trkpt lat="48.0949" lon="7.23719">
        <ele>515</ele>
        <time>2019-04-30T06:56:34Z</time>
      </trkpt>
      <trkpt lat="48.09517" lon="7.23743">
        <ele>511</ele>
        <time>2019-04-30T06:57:34Z</time>
      </trkpt>
      <trkpt lat="48.09547" lon="7.23764">
        <ele>505</ele>
        <time>2019-04-30T06:58:34Z</time>
      </trkpt>
      <trkpt lat="48.09642" lon="7.23821">
        <ele>498</ele>
        <time>2019-04-30T06:59:34Z</time>
      </trkpt>
      <trkpt lat="48.0967" lon="7.23828">
        <ele>503</ele>
        <time>2019-04-30T07:00:34Z</time>
      </trkpt>
      <trkpt lat="48.09689" lon="7.2383">
        <ele>512</ele>
        <time>2019-04-30T07:01:34Z</time>
      </trkpt>
      <trkpt lat="48.09692" lon="7.23838">
        <ele>513</ele>
        <time>2019-04-30T07:02:34Z</time>
      </trkpt>
      <trkpt lat="48.0969" lon="7.2387">
        <ele>510</ele>
        <time>2019-04-30T07:03:34Z</time>
      </trkpt>
      <trkpt lat="48.09685" lon="7.23884">
        <ele>506</ele>
        <time>2019-04-30T07:04:34Z</time>
      </trkpt>
      <trkpt lat="48.09683" lon="7.239">
        <ele>504</ele>
        <time>2019-04-30T07:05:34Z</time>
      </trkpt>
      <trkpt lat="48.09682" lon="7.23916">
        <ele>503</ele>
        <time>2019-04-30T07:06:34Z</time>
      </trkpt>
      <trkpt lat="48.09685" lon="7.23947">
        <ele>507</ele>
        <time>2019-04-30T07:07:34Z</time>
      </trkpt>
      <trkpt lat="48.09683" lon="7.2396">
        <ele>508</ele>
        <time>2019-04-30T07:08:34Z</time>
      </trkpt>
      <trkpt lat="48.0966" lon="7.24013">
        <ele>507</ele>
        <time>2019-04-30T07:09:34Z</time>
      </trkpt>
      <trkpt lat="48.09642" lon="7.24035">
        <ele>510</ele>
        <time>2019-04-30T07:10:34Z</time>
      </trkpt>
      <trkpt lat="48.09631" lon="7.24044">
        <ele>511</ele>
        <time>2019-04-30T07:11:34Z</time>
      </trkpt>
      <trkpt lat="48.0957" lon="7.24083">
        <ele>511</ele>
        <time>2019-04-30T07:12:34Z</time>
      </trkpt>
      <trkpt lat="48.09557" lon="7.24087">
        <ele>508</ele>
        <time>2019-04-30T07:13:34Z</time>
      </trkpt>
      <trkpt lat="48.09521" lon="7.24105">
        <ele>501</ele>
        <time>2019-04-30T07:14:34Z</time>
      </trkpt>
      <trkpt lat="48.09465" lon="7.24126">
        <ele>486</ele>
        <time>2019-04-30T07:15:34Z</time>
      </trkpt>
      <trkpt lat="48.09445" lon="7.24129">
        <ele>480</ele>
        <time>2019-04-30T07:16:34Z</time>
      </trkpt>
      <trkpt lat="48.09427" lon="7.24125">
        <ele>475</ele>
        <time>2019-04-30T07:17:34Z</time>
      </trkpt>
      <trkpt lat="48.09419" lon="7.24141">
        <ele>473</ele>
        <time>2019-04-30T07:18:34Z</time>
      </trkpt>
      <trkpt lat="48.09421" lon="7.24183">
        <ele>480</ele>
        <time>2019-04-30T07:19:34Z</time>
      </trkpt>
      <trkpt lat="48.09416" lon="7.24221">
        <ele>490</ele>
        <time>2019-04-30T07:20:34Z</time>
      </trkpt>
      <trkpt lat="48.09409" lon="7.24244">
        <ele>496</ele>
        <time>2019-04-30T07:21:34Z</time>
      </trkpt>
      <trkpt lat="48.09397" lon="7.24265">
        <ele>503</ele>
        <time>2019-04-30T07:22:34Z</time>
      </trkpt>
      <trkpt lat="48.09362" lon="7.24285">
        <ele>509</ele>
        <time>2019-04-30T07:23:34Z</time>
      </trkpt>
      <trkpt lat="48.09349" lon="7.24287">
        <ele>509</ele>
        <time>2019-04-30T07:24:34Z</time>
      </trkpt>
      <trkpt lat="48.09313" lon="7.24273">
        <ele>506</ele>
        <time>2019-04-30T07:25:34Z</time>
      </trkpt>
      <trkpt lat="48.09292" lon="7.24246">
        <ele>499</ele>
        <time>2019-04-30T07:26:34Z</time>
      </trkpt>
      <trkpt lat="48.09278" lon="7.24217">
        <ele>492</ele>
        <time>2019-04-30T07:27:34Z</time>
      </trkpt>
      <trkpt lat="48.09254" lon="7.24186">
        <ele>487</ele>
        <time>2019-04-30T07:28:34Z</time>
      </trkpt>
      <trkpt lat="48.09186" lon="7.24123">
        <ele>479</ele>
        <time>2019-04-30T07:29:34Z</time>
      </trkpt>
      <trkpt lat="48.09161" lon="7.2411">
        <ele>478</ele>
        <time>2019-04-30T07:30:34Z</time>
      </trkpt>
      <trkpt lat="48.09135" lon="7.24102">
        <ele>476</ele>
        <time>2019-04-30T07:31:34Z</time>
      </trkpt>
      <trkpt lat="48.09069" lon="7.24091">
        <ele>470</ele>
        <time>2019-04-30T07:32:34Z</time>
      </trkpt>
      <trkpt lat="48.09014" lon="7.24087">
        <ele>462</ele>
        <time>2019-04-30T07:33:34Z</time>
      </trkpt>
      <trkpt lat="48.08947" lon="7.24102">
        <ele>451</ele>
        <time>2019-04-30T07:34:34Z</time>
      </trkpt>
      <trkpt lat="48.08896" lon="7.24129">
        <ele>442</ele>
        <time>2019-04-30T07:35:34Z</time>
      </trkpt>
      <trkpt lat="48.08872" lon="7.24163">
        <ele>439</ele>
        <time>2019-04-30T07:36:34Z</time>
      </trkpt>
      <trkpt lat="48.08851" lon="7.24227">
        <ele>431</ele>
        <time>2019-04-30T07:37:34Z</time>
      </trkpt>
      <trkpt lat="48.08851" lon="7.24234">
        <ele>430</ele>
        <time>2019-04-30T07:38:34Z</time>
      </trkpt>
      <trkpt lat="48.08855" lon="7.24239">
        <ele>432</ele>
        <time>2019-04-30T07:39:34Z</time>
      </trkpt>
      <trkpt lat="48.08877" lon="7.24254">
        <ele>439</ele>
        <time>2019-04-30T07:40:34Z</time>
      </trkpt>
      <trkpt lat="48.08888" lon="7.24259">
        <ele>443</ele>
        <time>2019-04-30T07:41:34Z</time>
      </trkpt>
      <trkpt lat="48.089" lon="7.24261">
        <ele>448</ele>
        <time>2019-04-30T07:42:34Z</time>
      </trkpt>
      <trkpt lat="48.08921" lon="7.2425">
        <ele>457</ele>
        <time>2019-04-30T07:43:34Z</time>
      </trkpt>
      <trkpt lat="48.08962" lon="7.2417">
        <ele>466</ele>
        <time>2019-04-30T07:44:34Z</time>
      </trkpt>
      <trkpt lat="48.0899" lon="7.2414">
        <ele>468</ele>
        <time>2019-04-30T07:45:34Z</time>
      </trkpt>
      <trkpt lat="48.0901" lon="7.24123">
        <ele>469</ele>
        <time>2019-04-30T07:46:34Z</time>
      </trkpt>
      <trkpt lat="48.09032" lon="7.24109">
        <ele>469</ele>
        <time>2019-04-30T07:47:34Z</time>
      </trkpt>
      <trkpt lat="48.09036" lon="7.24081">
        <ele>463</ele>
        <time>2019-04-30T07:48:34Z</time>
      </trkpt>
      <trkpt lat="48.09064" lon="7.24062">
        <ele>460</ele>
        <time>2019-04-30T07:49:34Z</time>
      </trkpt>
      <trkpt lat="48.09111" lon="7.23994">
        <ele>440</ele>
        <time>2019-04-30T07:50:34Z</time>
      </trkpt>
      <trkpt lat="48.0915" lon="7.23963">
        <ele>429</ele>
        <time>2019-04-30T07:51:34Z</time>
      </trkpt>
      <trkpt lat="48.09194" lon="7.23953">
        <ele>424</ele>
        <time>2019-04-30T07:52:34Z</time>
      </trkpt>
      <trkpt lat="48.09214" lon="7.23946">
        <ele>420</ele>
        <time>2019-04-30T07:53:34Z</time>
      </trkpt>
      <trkpt lat="48.09265" lon="7.23915">
        <ele>411</ele>
        <time>2019-04-30T07:54:34Z</time>
      </trkpt>
      <trkpt lat="48.09272" lon="7.23882">
        <ele>412</ele>
        <time>2019-04-30T07:55:34Z</time>
      </trkpt>
      <trkpt lat="48.09272" lon="7.23852">
        <ele>412</ele>
        <time>2019-04-30T07:56:34Z</time>
      </trkpt>
      <trkpt lat="48.09253" lon="7.23822">
        <ele>408</ele>
        <time>2019-04-30T07:57:34Z</time>
      </trkpt>
      <trkpt lat="48.09212" lon="7.23799">
        <ele>402</ele>
        <time>2019-04-30T07:58:34Z</time>
      </trkpt>
      <trkpt lat="48.0916" lon="7.23784">
        <ele>392</ele>
        <time>2019-04-30T07:59:34Z</time>
      </trkpt>
      <trkpt lat="48.09128" lon="7.23784">
        <ele>390</ele>
        <time>2019-04-30T08:00:34Z</time>
      </trkpt>
      <trkpt lat="48.091" lon="7.23789">
        <ele>388</ele>
        <time>2019-04-30T08:01:34Z</time>
      </trkpt>
      <trkpt lat="48.09046" lon="7.2381">
        <ele>381</ele>
        <time>2019-04-30T08:02:34Z</time>
      </trkpt>
      <trkpt lat="48.09007" lon="7.23809">
        <ele>378</ele>
        <time>2019-04-30T08:03:34Z</time>
      </trkpt>
      <trkpt lat="48.08973" lon="7.23803">
        <ele>376</ele>
        <time>2019-04-30T08:04:34Z</time>
      </trkpt>
      <trkpt lat="48.08909" lon="7.23784">
        <ele>373</ele>
        <time>2019-04-30T08:05:34Z</time>
      </trkpt>
      <trkpt lat="48.08893" lon="7.23759">
        <ele>373</ele>
        <time>2019-04-30T08:06:34Z</time>
      </trkpt>
      <trkpt lat="48.08877" lon="7.2372">
        <ele>376</ele>
        <time>2019-04-30T08:07:34Z</time>
      </trkpt>
      <trkpt lat="48.08873" lon="7.23684">
        <ele>381</ele>
        <time>2019-04-30T08:08:34Z</time>
      </trkpt>
      <trkpt lat="48.08861" lon="7.23651">
        <ele>381</ele>
        <time>2019-04-30T08:09:34Z</time>
      </trkpt>
      <trkpt lat="48.08841" lon="7.23636">
        <ele>378</ele>
        <time>2019-04-30T08:10:34Z</time>
      </trkpt>
      <trkpt lat="48.0883" lon="7.2364">
        <ele>376</ele>
        <time>2019-04-30T08:11:34Z</time>
      </trkpt>
      <trkpt lat="48.08822" lon="7.23651">
        <ele>375</ele>
        <time>2019-04-30T08:12:34Z</time>
      </trkpt>
      <trkpt lat="48.08812" lon="7.23683">
        <ele>372</ele>
        <time>2019-04-30T08:13:34Z</time>
      </trkpt>
      <trkpt lat="48.08799" lon="7.23821">
        <ele>357</ele>
        <time>2019-04-30T08:14:34Z</time>
      </trkpt>
      <trkpt lat="48.08794" lon="7.2384">
        <ele>355</ele>
        <time>2019-04-30T08:15:34Z</time>
      </trkpt>
      <trkpt lat="48.08765" lon="7.23881">
        <ele>355</ele>
        <time>2019-04-30T08:16:34Z</time>
      </trkpt>
      <trkpt lat="48.08729" lon="7.23886">
        <ele>353</ele>
        <time>2019-04-30T08:17:34Z</time>
      </trkpt>
      <trkpt lat="48.087" lon="7.23901">
        <ele>352</ele>
        <time>2019-04-30T08:18:34Z</time>
      </trkpt>
      <trkpt lat="48.08594" lon="7.23974">
        <ele>347</ele>
        <time>2019-04-30T08:19:34Z</time>
      </trkpt>
      <trkpt lat="48.0857" lon="7.23993">
        <ele>345</ele>
        <time>2019-04-30T08:20:34Z</time>
      </trkpt>
      <trkpt lat="48.08558" lon="7.24005">
        <ele>345</ele>
        <time>2019-04-30T08:21:34Z</time>
      </trkpt>
      <trkpt lat="48.08515" lon="7.24059">
        <ele>340</ele>
        <time>2019-04-30T08:22:34Z</time>
      </trkpt>
      <trkpt lat="48.08479" lon="7.24114">
        <ele>336</ele>
        <time>2019-04-30T08:23:34Z</time>
      </trkpt>
      <trkpt lat="48.0844" lon="7.24186">
        <ele>333</ele>
        <time>2019-04-30T08:24:34Z</time>
      </trkpt>
      <trkpt lat="48.08415" lon="7.24254">
        <ele>328</ele>
        <time>2019-04-30T08:25:34Z</time>
      </trkpt>
      <trkpt lat="48.08403" lon="7.24312">
        <ele>326</ele>
        <time>2019-04-30T08:26:34Z</time>
      </trkpt>
      <trkpt lat="48.08398" lon="7.24352">
        <ele>324</ele>
        <time>2019-04-30T08:27:34Z</time>
      </trkpt>
      <trkpt lat="48.08393" lon="7.24433">
        <ele>322</ele>
        <time>2019-04-30T08:28:34Z</time>
      </trkpt>
      <trkpt lat="48.0839" lon="7.24535">
        <ele>317</ele>
        <time>2019-04-30T08:29:34Z</time>
      </trkpt>
      <trkpt lat="48.08396" lon="7.24565">
        <ele>315</ele>
        <time>2019-04-30T08:30:34Z</time>
      </trkpt>
      <trkpt lat="48.08399" lon="7.24602">
        <ele>312</ele>
        <time>2019-04-30T08:31:34Z</time>
      </trkpt>
      <trkpt lat="48.08396" lon="7.24726">
        <ele>309</ele>
        <time>2019-04-30T08:32:34Z</time>
      </trkpt>
      <trkpt lat="48.08402" lon="7.24761">
        <ele>307</ele>
        <time>2019-04-30T08:33:34Z</time>
      </trkpt>
      <trkpt lat="48.084" lon="7.24781">
        <ele>307</ele>
        <time>2019-04-30T08:34:34Z</time>
      </trkpt>
      <trkpt lat="48.08403" lon="7.24798">
        <ele>306</ele>
        <time>2019-04-30T08:35:34Z</time>
      </trkpt>
      <trkpt lat="48.08407" lon="7.24869">
        <ele>302</ele>
        <time>2019-04-30T08:36:34Z</time>
      </trkpt>
      <trkpt lat="48.084" lon="7.25">
        <ele>296</ele>
        <time>2019-04-30T08:37:34Z</time>
      </trkpt>
      <trkpt lat="48.084" lon="7.25129">
        <ele>288</ele>
        <time>2019-04-30T08:38:34Z</time>
      </trkpt>
      <trkpt lat="48.08403" lon="7.25166">
        <ele>286</ele>
        <time>2019-04-30T08:39:34Z</time>
      </trkpt>
      <trkpt lat="48.08413" lon="7.2522">
        <ele>284</ele>
        <time>2019-04-30T08:40:34Z</time>
      </trkpt>
      <trkpt lat="48.08416" lon="7.25257">
        <ele>283</ele>
        <time>2019-04-30T08:41:34Z</time>
      </trkpt>
      <trkpt lat="48.08413" lon="7.25297">
        <ele>280</ele>
        <time>2019-04-30T08:42:34Z</time>
      </trkpt>
      <trkpt lat="48.08389" lon="7.25417">
        <ele>275</ele>
        <time>2019-04-30T08:43:34Z</time>
      </trkpt>
      <trkpt lat="48.08379" lon="7.25481">
        <ele>271</ele>
        <time>2019-04-30T08:44:34Z</time>
      </trkpt>
      <trkpt lat="48.08375" lon="7.25524">
        <ele>270</ele>
        <time>2019-04-30T08:45:34Z</time>
      </trkpt>
      <trkpt lat="48.08377" lon="7.25724">
        <ele>262</ele>
        <time>2019-04-30T08:46:34Z</time>
      </trkpt>
      <trkpt lat="48.08382" lon="7.25893">
        <ele>254</ele>
        <time>2019-04-30T08:47:34Z</time>
      </trkpt>
      <trkpt lat="48.08386" lon="7.25952">
        <ele>253</ele>
        <time>2019-04-30T08:48:34Z</time>
      </trkpt>
      <trkpt lat="48.08412" lon="7.261">
        <ele>250</ele>
        <time>2019-04-30T08:49:34Z</time>
      </trkpt>
      <trkpt lat="48.0843" lon="7.26162">
        <ele>247</ele>
        <time>2019-04-30T08:50:34Z</time>
      </trkpt>
      <trkpt lat="48.08464" lon="7.26261">
        <ele>245</ele>
        <time>2019-04-30T08:51:34Z</time>
      </trkpt>
      <trkpt lat="48.0852" lon="7.2644">
        <ele>243</ele>
        <time>2019-04-30T08:52:34Z</time>
      </trkpt>
      <trkpt lat="48.0855" lon="7.26542">
        <ele>244</ele>
        <time>2019-04-30T08:53:34Z</time>
      </trkpt>
      <trkpt lat="48.0857" lon="7.26624">
        <ele>244</ele>
        <time>2019-04-30T08:54:34Z</time>
      </trkpt>
      <trkpt lat="48.08578" lon="7.26696">
        <ele>243</ele>
        <time>2019-04-30T08:55:34Z</time>
      </trkpt>
      <trkpt lat="48.08584" lon="7.26806">
        <ele>245</ele>
        <time>2019-04-30T08:56:34Z</time>
      </trkpt>
      <trkpt lat="48.08584" lon="7.26967">
        <ele>243</ele>
        <time>2019-04-30T08:57:34Z</time>
      </trkpt>
      <trkpt lat="48.0858" lon="7.2703">
        <ele>241</ele>
        <time>2019-04-30T08:58:34Z</time>
      </trkpt>
      <trkpt lat="48.08576" lon="7.27043">
        <ele>240</ele>
        <time>2019-04-30T08:59:34Z</time>
      </trkpt>
      <trkpt lat="48.08516" lon="7.27026">
        <ele>240</ele>
        <time>2019-04-30T09:00:34Z</time>
      </trkpt>
      <trkpt lat="48.08478" lon="7.2702">
        <ele>240</ele>
        <time>2019-04-30T09:01:34Z</time>
      </trkpt>
      <trkpt lat="48.08423" lon="7.27021">
        <ele>241</ele>
        <time>2019-04-30T09:02:34Z</time>
      </trkpt>
      <trkpt lat="48.08413" lon="7.27015">
        <ele>241</ele>
        <time>2019-04-30T09:03:34Z</time>
      </trkpt>
      <trkpt lat="48.08398" lon="7.26993">
        <ele>241</ele>
        <time>2019-04-30T09:04:34Z</time>
      </trkpt>
      <trkpt lat="48.0837" lon="7.26906">
        <ele>242</ele>
        <time>2019-04-30T09:05:34Z</time>
      </trkpt>
      <trkpt lat="48.08349" lon="7.2686">
        <ele>243</ele>
        <time>2019-04-30T09:06:34Z</time>
      </trkpt>
      <trkpt lat="48.08332" lon="7.2684">
        <ele>243</ele>
        <time>2019-04-30T09:07:34Z</time>
      </trkpt>
      <trkpt lat="48.08322" lon="7.26832">
        <ele>243</ele>
        <time>2019-04-30T09:08:34Z</time>
      </trkpt>
      <trkpt lat="48.08285" lon="7.26813">
        <ele>242</ele>
        <time>2019-04-30T09:09:34Z</time>
      </trkpt>
      <trkpt lat="48.08242" lon="7.26785">
        <ele>243</ele>
        <time>2019-04-30T09:10:34Z</time>
      </trkpt>
      <trkpt lat="48.08204" lon="7.26721">
        <ele>244</ele>
        <time>2019-04-30T09:11:34Z</time>
      </trkpt>
      <trkpt lat="48.08161" lon="7.26673">
        <ele>245</ele>
        <time>2019-04-30T09:12:34Z</time>
      </trkpt>
      <trkpt lat="48.08129" lon="7.2663">
        <ele>245</ele>
        <time>2019-04-30T09:13:34Z</time>
      </trkpt>
      <trkpt lat="48.08075" lon="7.26494">
        <ele>246</ele>
        <time>2019-04-30T09:14:34Z</time>
      </trkpt>
      <trkpt lat="48.0805" lon="7.26417">
        <ele>247</ele>
        <time>2019-04-30T09:15:34Z</time>
      </trkpt>
      <trkpt lat="48.08031" lon="7.26344">
        <ele>247</ele>
        <time>2019-04-30T09:16:34Z</time>
      </trkpt>
      <trkpt lat="48.08001" lon="7.26277">
        <ele>247</ele>
        <time>2019-04-30T09:17:34Z</time>
      </trkpt>
      <trkpt lat="48.0795" lon="7.26185">
        <ele>249</ele>
        <time>2019-04-30T09:18:34Z</time>
      </trkpt>
      <trkpt lat="48.07884" lon="7.26019">
        <ele>250</ele>
        <time>2019-04-30T09:19:34Z</time>
      </trkpt>
      <trkpt lat="48.0785" lon="7.25954">
        <ele>250</ele>
        <time>2019-04-30T09:20:34Z</time>
      </trkpt>
      <trkpt lat="48.07815" lon="7.25907">
        <ele>249</ele>
        <time>2019-04-30T09:21:34Z</time>
      </trkpt>
      <trkpt lat="48.07765" lon="7.25856">
        <ele>251</ele>
        <time>2019-04-30T09:22:34Z</time>
      </trkpt>
      <trkpt lat="48.07669" lon="7.25775">
        <ele>254</ele>
        <time>2019-04-30T09:23:34Z</time>
      </trkpt>
      <trkpt lat="48.07643" lon="7.25756">
        <ele>254</ele>
        <time>2019-04-30T09:24:34Z</time>
      </trkpt>
      <trkpt lat="48.07632" lon="7.25754">
        <ele>254</ele>
        <time>2019-04-30T09:25:34Z</time>
      </trkpt>
      <trkpt lat="48.07621" lon="7.25761">
        <ele>254</ele>
        <time>2019-04-30T09:26:34Z</time>
      </trkpt>
      <trkpt lat="48.07617" lon="7.25769">
        <ele>254</ele>
        <time>2019-04-30T09:27:34Z</time>
      </trkpt>
      <trkpt lat="48.07617" lon="7.25784">
        <ele>254</ele>
        <time>2019-04-30T09:28:34Z</time>
      </trkpt>
      <trkpt lat="48.07679" lon="7.25894">
        <ele>252</ele>
        <time>2019-04-30T09:29:34Z</time>
      </trkpt>
      <trkpt lat="48.07716" lon="7.25972">
        <ele>251</ele>
        <time>2019-04-30T09:30:34Z</time>
      </trkpt>
      <trkpt lat="48.07748" lon="7.26057">
        <ele>250</ele>
        <time>2019-04-30T09:31:34Z</time>
      </trkpt>
      <trkpt lat="48.07775" lon="7.26153">
        <ele>249</ele>
        <time>2019-04-30T09:32:34Z</time>
      </trkpt>
      <trkpt lat="48.07793" lon="7.2624">
        <ele>249</ele>
        <time>2019-04-30T09:33:34Z</time>
      </trkpt>
      <trkpt lat="48.07807" lon="7.26337">
        <ele>249</ele>
        <time>2019-04-30T09:34:34Z</time>
      </trkpt>
      <trkpt lat="48.07811" lon="7.26381">
        <ele>249</ele>
        <time>2019-04-30T09:35:34Z</time>
      </trkpt>
      <trkpt lat="48.07816" lon="7.26512">
        <ele>249</ele>
        <time>2019-04-30T09:36:34Z</time>
      </trkpt>
      <trkpt lat="48.07811" lon="7.26613">
        <ele>249</ele>
        <time>2019-04-30T09:37:34Z</time>
      </trkpt>
      <trkpt lat="48.07802" lon="7.267">
        <ele>248</ele>
        <time>2019-04-30T09:38:34Z</time>
      </trkpt>
      <trkpt lat="48.07769" lon="7.26918">
        <ele>247</ele>
        <time>2019-04-30T09:39:34Z</time>
      </trkpt>
      <trkpt lat="48.07755" lon="7.27">
        <ele>246</ele>
        <time>2019-04-30T09:40:34Z</time>
      </trkpt>
      <trkpt lat="48.07751" lon="7.27007">
        <ele>246</ele>
        <time>2019-04-30T09:41:34Z</time>
      </trkpt>
      <trkpt lat="48.0774" lon="7.27012">
        <ele>246</ele>
        <time>2019-04-30T09:42:34Z</time>
      </trkpt>
      <trkpt lat="48.07722" lon="7.26996">
        <ele>247</ele>
        <time>2019-04-30T09:43:34Z</time>
      </trkpt>
      <trkpt lat="48.07699" lon="7.26969">
        <ele>248</ele>
        <time>2019-04-30T09:44:34Z</time>
      </trkpt>
      <trkpt lat="48.07688" lon="7.26869">
        <ele>249</ele>
        <time>2019-04-30T09:45:34Z</time>
      </trkpt>
      <trkpt lat="48.07673" lon="7.26816">
        <ele>248</ele>
        <time>2019-04-30T09:46:34Z</time>
      </trkpt>
      <trkpt lat="48.07652" lon="7.26753">
        <ele>251</ele>
        <time>2019-04-30T09:47:34Z</time>
      </trkpt>
      <trkpt lat="48.07633" lon="7.26705">
        <ele>256</ele>
        <time>2019-04-30T09:48:34Z</time>
      </trkpt>
      <trkpt lat="48.07575" lon="7.2658">
        <ele>259</ele>
        <time>2019-04-30T09:49:34Z</time>
      </trkpt>
      <trkpt lat="48.07506" lon="7.26525">
        <ele>265</ele>
        <time>2019-04-30T09:50:34Z</time>
      </trkpt>
      <trkpt lat="48.07447" lon="7.26496">
        <ele>269</ele>
        <time>2019-04-30T09:51:34Z</time>
      </trkpt>
      <trkpt lat="48.07376" lon="7.26476">
        <ele>275</ele>
        <time>2019-04-30T09:52:34Z</time>
      </trkpt>
      <trkpt lat="48.07283" lon="7.2644">
        <ele>279</ele>
        <time>2019-04-30T09:53:34Z</time>
      </trkpt>
      <trkpt lat="48.07252" lon="7.26431">
        <ele>280</ele>
        <time>2019-04-30T09:54:34Z</time>
      </trkpt>
      <trkpt lat="48.0719" lon="7.26426">
        <ele>290</ele>
        <time>2019-04-30T09:55:34Z</time>
      </trkpt>
      <trkpt lat="48.07167" lon="7.26419">
        <ele>293</ele>
        <time>2019-04-30T09:56:34Z</time>
      </trkpt>
      <trkpt lat="48.07125" lon="7.26398">
        <ele>297</ele>
        <time>2019-04-30T09:57:34Z</time>
      </trkpt>
      <trkpt lat="48.07106" lon="7.26392">
        <ele>299</ele>
        <time>2019-04-30T09:58:34Z</time>
      </trkpt>
      <trkpt lat="48.07096" lon="7.26392">
        <ele>300</ele>
        <time>2019-04-30T09:59:34Z</time>
      </trkpt>
      <trkpt lat="48.07094" lon="7.26394">
        <ele>301</ele>
        <time>2019-04-30T10:00:34Z</time>
      </trkpt>
      <trkpt lat="48.07094" lon="7.26416">
        <ele>304</ele>
        <time>2019-04-30T10:01:34Z</time>
      </trkpt>
      <trkpt lat="48.07102" lon="7.26434">
        <ele>307</ele>
        <time>2019-04-30T10:02:34Z</time>
      </trkpt>
      <trkpt lat="48.0711" lon="7.26442">
        <ele>307</ele>
        <time>2019-04-30T10:03:34Z</time>
      </trkpt>
      <trkpt lat="48.07118" lon="7.26455">
        <ele>308</ele>
        <time>2019-04-30T10:04:34Z</time>
      </trkpt>
      <trkpt lat="48.07145" lon="7.26511">
        <ele>314</ele>
        <time>2019-04-30T10:05:34Z</time>
      </trkpt>
      <trkpt lat="48.07158" lon="7.26532">
        <ele>317</ele>
        <time>2019-04-30T10:06:34Z</time>
      </trkpt>
      <trkpt lat="48.07189" lon="7.26566">
        <ele>320</ele>
        <time>2019-04-30T10:07:34Z</time>
      </trkpt>
      <trkpt lat="48.07222" lon="7.26583">
        <ele>319</ele>
        <time>2019-04-30T10:08:34Z</time>
      </trkpt>
      <trkpt lat="48.07261" lon="7.26609">
        <ele>320</ele>
        <time>2019-04-30T10:09:34Z</time>
      </trkpt>
      <trkpt lat="48.07271" lon="7.26621">
        <ele>321</ele>
        <time>2019-04-30T10:10:34Z</time>
      </trkpt>
      <trkpt lat="48.07301" lon="7.26646">
        <ele>322</ele>
        <time>2019-04-30T10:11:34Z</time>
      </trkpt>
      <trkpt lat="48.07314" lon="7.26672">
        <ele>325</ele>
        <time>2019-04-30T10:12:34Z</time>
      </trkpt>
      <trkpt lat="48.07331" lon="7.26686">
        <ele>324</ele>
        <time>2019-04-30T10:13:34Z</time>
      </trkpt>
      <trkpt lat="48.0734" lon="7.26699">
        <ele>325</ele>
        <time>2019-04-30T10:14:34Z</time>
      </trkpt>
      <trkpt lat="48.07374" lon="7.26762">
        <ele>331</ele>
        <time>2019-04-30T10:15:34Z</time>
      </trkpt>
      <trkpt lat="48.07394" lon="7.26792">
        <ele>332</ele>
        <time>2019-04-30T10:16:34Z</time>
      </trkpt>
      <trkpt lat="48.07406" lon="7.26818">
        <ele>335</ele>
        <time>2019-04-30T10:17:34Z</time>
      </trkpt>
      <trkpt lat="48.07424" lon="7.26866">
        <ele>337</ele>
        <time>2019-04-30T10:18:34Z</time>
      </trkpt>
      <trkpt lat="48.07427" lon="7.26889">
        <ele>339</ele>
        <time>2019-04-30T10:19:34Z</time>
      </trkpt>
      <trkpt lat="48.07425" lon="7.2689">
        <ele>339</ele>
        <time>2019-04-30T10:20:34Z</time>
      </trkpt>
      <trkpt lat="48.07418" lon="7.26891">
        <ele>342</ele>
        <time>2019-04-30T10:21:34Z</time>
      </trkpt>
      <trkpt lat="48.0738" lon="7.26839">
        <ele>347</ele>
        <time>2019-04-30T10:22:34Z</time>
      </trkpt>
      <trkpt lat="48.07341" lon="7.26804">
        <ele>350</ele>
        <time>2019-04-30T10:23:34Z</time>
      </trkpt>
      <trkpt lat="48.07329" lon="7.26783">
        <ele>349</ele>
        <time>2019-04-30T10:24:34Z</time>
      </trkpt>
      <trkpt lat="48.07314" lon="7.26767">
        <ele>349</ele>
        <time>2019-04-30T10:25:34Z</time>
      </trkpt>
      <trkpt lat="48.07295" lon="7.26755">
        <ele>351</ele>
        <time>2019-04-30T10:26:34Z</time>
      </trkpt>
      <trkpt lat="48.0726" lon="7.26743">
        <ele>357</ele>
        <time>2019-04-30T10:27:34Z</time>
      </trkpt>
      <trkpt lat="48.0722" lon="7.26734">
        <ele>362</ele>
        <time>2019-04-30T10:28:34Z</time>
      </trkpt>
      <trkpt lat="48.07203" lon="7.26733">
        <ele>364</ele>
        <time>2019-04-30T10:29:34Z</time>
      </trkpt>
      <trkpt lat="48.0716" lon="7.26739">
        <ele>372</ele>
        <time>2019-04-30T10:30:34Z</time>
      </trkpt>
      <trkpt lat="48.07139" lon="7.26746">
        <ele>377</ele>
        <time>2019-04-30T10:31:34Z</time>
      </trkpt>
      <trkpt lat="48.07112" lon="7.26747">
        <ele>381</ele>
        <time>2019-04-30T10:32:34Z</time>
      </trkpt>
      <trkpt lat="48.07096" lon="7.26743">
        <ele>382</ele>
        <time>2019-04-30T10:33:34Z</time>
      </trkpt>
      <trkpt lat="48.07074" lon="7.26733">
        <ele>382</ele>
        <time>2019-04-30T10:34:34Z</time>
      </trkpt>
      <trkpt lat="48.07025" lon="7.26704">
        <ele>380</ele>
        <time>2019-04-30T10:35:34Z</time>
      </trkpt>
      <trkpt lat="48.07009" lon="7.26702">
        <ele>381</ele>
        <time>2019-04-30T10:36:34Z</time>
      </trkpt>
      <trkpt lat="48.06991" lon="7.26707">
        <ele>385</ele>
        <time>2019-04-30T10:37:34Z</time>
      </trkpt>
      <trkpt lat="48.06933" lon="7.26704">
        <ele>390</ele>
        <time>2019-04-30T10:38:34Z</time>
      </trkpt>
      <trkpt lat="48.06915" lon="7.26706">
        <ele>393</ele>
        <time>2019-04-30T10:39:34Z</time>
      </trkpt>
      <trkpt lat="48.06866" lon="7.26698">
        <ele>400</ele>
        <time>2019-04-30T10:40:34Z</time>
      </trkpt>
      <trkpt lat="48.06843" lon="7.26689">
        <ele>402</ele>
        <time>2019-04-30T10:41:34Z</time>
      </trkpt>
      <trkpt lat="48.06827" lon="7.26677">
        <ele>404</ele>
        <time>2019-04-30T10:42:34Z</time>
      </trkpt>
      <trkpt lat="48.06789" lon="7.26612">
        <ele>405</ele>
        <time>2019-04-30T10:43:34Z</time>
      </trkpt>
      <trkpt lat="48.06762" lon="7.26571">
        <ele>408</ele>
        <time>2019-04-30T10:44:34Z</time>
      </trkpt>
      <trkpt lat="48.06754" lon="7.2655">
        <ele>409</ele>
        <time>2019-04-30T10:45:34Z</time>
      </trkpt>
      <trkpt lat="48.06731" lon="7.2646">
        <ele>419</ele>
        <time>2019-04-30T10:46:34Z</time>
      </trkpt>
      <trkpt lat="48.0673" lon="7.26446">
        <ele>421</ele>
        <time>2019-04-30T10:47:34Z</time>
      </trkpt>
      <trkpt lat="48.06733" lon="7.26423">
        <ele>421</ele>
        <time>2019-04-30T10:48:34Z</time>
      </trkpt>
      <trkpt lat="48.06746" lon="7.26396">
        <ele>418</ele>
        <time>2019-04-30T10:49:34Z</time>
      </trkpt>
      <trkpt lat="48.06776" lon="7.26352">
        <ele>408</ele>
        <time>2019-04-30T10:50:34Z</time>
      </trkpt>
      <trkpt lat="48.06788" lon="7.26329">
        <ele>402</ele>
        <time>2019-04-30T10:51:34Z</time>
      </trkpt>
      <trkpt lat="48.0679" lon="7.26309">
        <ele>400</ele>
        <time>2019-04-30T10:52:34Z</time>
      </trkpt>
      <trkpt lat="48.06787" lon="7.2627">
        <ele>401</ele>
        <time>2019-04-30T10:53:34Z</time>
      </trkpt>
      <trkpt lat="48.06776" lon="7.26211">
        <ele>402</ele>
        <time>2019-04-30T10:54:34Z</time>
      </trkpt>
      <trkpt lat="48.06749" lon="7.26149">
        <ele>409</ele>
        <time>2019-04-30T10:55:34Z</time>
      </trkpt>
      <trkpt lat="48.06714" lon="7.2606">
        <ele>413</ele>
        <time>2019-04-30T10:56:34Z</time>
      </trkpt>
      <trkpt lat="48.06691" lon="7.25992">
        <ele>414</ele>
        <time>2019-04-30T10:57:34Z</time>
      </trkpt>
      <trkpt lat="48.06676" lon="7.2596">
        <ele>417</ele>
        <time>2019-04-30T10:58:34Z</time>
      </trkpt>
      <trkpt lat="48.06653" lon="7.25926">
        <ele>420</ele>
        <time>2019-04-30T10:59:34Z</time>
      </trkpt>
      <trkpt lat="48.0662" lon="7.25885">
        <ele>424</ele>
        <time>2019-04-30T11:00:34Z</time>
      </trkpt>
      <trkpt lat="48.06607" lon="7.25876">
        <ele>424</ele>
        <time>2019-04-30T11:01:34Z</time>
      </trkpt>
      <trkpt lat="48.06591" lon="7.25875">
        <ele>425</ele>
        <time>2019-04-30T11:02:34Z</time>
      </trkpt>
      <trkpt lat="48.06579" lon="7.25887">
        <ele>426</ele>
        <time>2019-04-30T11:03:34Z</time>
      </trkpt>
      <trkpt lat="48.06571" lon="7.25912">
        <ele>428</ele>
        <time>2019-04-30T11:04:34Z</time>
      </trkpt>
      <trkpt lat="48.06569" lon="7.25923">
        <ele>429</ele>
        <time>2019-04-30T11:05:34Z</time>
      </trkpt>
      <trkpt lat="48.06569" lon="7.25964">
        <ele>433</ele>
        <time>2019-04-30T11:06:34Z</time>
      </trkpt>
      <trkpt lat="48.06562" lon="7.25985">
        <ele>435</ele>
        <time>2019-04-30T11:07:34Z</time>
      </trkpt>
      <trkpt lat="48.06553" lon="7.25996">
        <ele>436</ele>
        <time>2019-04-30T11:08:34Z</time>
      </trkpt>
      <trkpt lat="48.06527" lon="7.26012">
        <ele>439</ele>
        <time>2019-04-30T11:09:34Z</time>
      </trkpt>
      <trkpt lat="48.06488" lon="7.26027">
        <ele>443</ele>
        <time>2019-04-30T11:10:34Z</time>
      </trkpt>
      <trkpt lat="48.06448" lon="7.26053">
        <ele>450</ele>
        <time>2019-04-30T11:11:34Z</time>
      </trkpt>
      <trkpt lat="48.06425" lon="7.26063">
        <ele>454</ele>
        <time>2019-04-30T11:12:34Z</time>
      </trkpt>
      <trkpt lat="48.06397" lon="7.26068">
        <ele>455</ele>
        <time>2019-04-30T11:13:34Z</time>
      </trkpt>
      <trkpt lat="48.06367" lon="7.26067">
        <ele>455</ele>
        <time>2019-04-30T11:14:34Z</time>
      </trkpt>
      <trkpt lat="48.06348" lon="7.26069">
        <ele>455</ele>
        <time>2019-04-30T11:15:34Z</time>
      </trkpt>
      <trkpt lat="48.06335" lon="7.26076">
        <ele>457</ele>
        <time>2019-04-30T11:16:34Z</time>
      </trkpt>
      <trkpt lat="48.06324" lon="7.26088">
        <ele>457</ele>
        <time>2019-04-30T11:17:34Z</time>
      </trkpt>
      <trkpt lat="48.06328" lon="7.26104">
        <ele>459</ele>
        <time>2019-04-30T11:18:34Z</time>
      </trkpt>
      <trkpt lat="48.06341" lon="7.26103">
        <ele>461</ele>
        <time>2019-04-30T11:19:34Z</time>
      </trkpt>
      <trkpt lat="48.06354" lon="7.26095">
        <ele>460</ele>
        <time>2019-04-30T11:20:34Z</time>
      </trkpt>
      <trkpt lat="48.06363" lon="7.26095">
        <ele>460</ele>
        <time>2019-04-30T11:21:34Z</time>
      </trkpt>
      <trkpt lat="48.06371" lon="7.26099">
        <ele>461</ele>
        <time>2019-04-30T11:22:34Z</time>
      </trkpt>
      <trkpt lat="48.06404" lon="7.26129">
        <ele>468</ele>
        <time>2019-04-30T11:23:34Z</time>
      </trkpt>
      <trkpt lat="48.06446" lon="7.26157">
        <ele>473</ele>
        <time>2019-04-30T11:24:34Z</time>
      </trkpt>
      <trkpt lat="48.06475" lon="7.26191">
        <ele>476</ele>
        <time>2019-04-30T11:25:34Z</time>
      </trkpt>
      <trkpt lat="48.06495" lon="7.26231">
        <ele>479</ele>
        <time>2019-04-30T11:26:34Z</time>
      </trkpt>
      <trkpt lat="48.06511" lon="7.26302">
        <ele>486</ele>
        <time>2019-04-30T11:27:34Z</time>
      </trkpt>
      <trkpt lat="48.06533" lon="7.26368">
        <ele>491</ele>
        <time>2019-04-30T11:28:34Z</time>
      </trkpt>
      <trkpt lat="48.06542" lon="7.26404">
        <ele>492</ele>
        <time>2019-04-30T11:29:34Z</time>
      </trkpt>
      <trkpt lat="48.06545" lon="7.26452">
        <ele>494</ele>
        <time>2019-04-30T11:30:34Z</time>
      </trkpt>
      <trkpt lat="48.06542" lon="7.26472">
        <ele>496</ele>
        <time>2019-04-30T11:31:34Z</time>
      </trkpt>
      <trkpt lat="48.06542" lon="7.26572">
        <ele>499</ele>
        <time>2019-04-30T11:32:34Z</time>
      </trkpt>
      <trkpt lat="48.06538" lon="7.26612">
        <ele>502</ele>
        <time>2019-04-30T11:33:34Z</time>
      </trkpt>
      <trkpt lat="48.06503" lon="7.26838">
        <ele>517</ele>
        <time>2019-04-30T11:34:34Z</time>
      </trkpt>
      <trkpt lat="48.06481" lon="7.26912">
        <ele>524</ele>
        <time>2019-04-30T11:35:34Z</time>
      </trkpt>
      <trkpt lat="48.06466" lon="7.26981">
        <ele>523</ele>
        <time>2019-04-30T11:36:34Z</time>
      </trkpt>
      <trkpt lat="48.06458" lon="7.27003">
        <ele>522</ele>
        <time>2019-04-30T11:37:34Z</time>
      </trkpt>
      <trkpt lat="48.06453" lon="7.27012">
        <ele>521</ele>
        <time>2019-04-30T11:38:34Z</time>
      </trkpt>
      <trkpt lat="48.06447" lon="7.27016">
        <ele>521</ele>
        <time>2019-04-30T11:39:34Z</time>
      </trkpt>
      <trkpt lat="48.06438" lon="7.27016">
        <ele>523</ele>
        <time>2019-04-30T11:40:34Z</time>
      </trkpt>
      <trkpt lat="48.06432" lon="7.27014">
        <ele>524</ele>
        <time>2019-04-30T11:41:34Z</time>
      </trkpt>
      <trkpt lat="48.06415" lon="7.26998">
        <ele>529</ele>
        <time>2019-04-30T11:42:34Z</time>
      </trkpt>
      <trkpt lat="48.06401" lon="7.26982">
        <ele>531</ele>
        <time>2019-04-30T11:43:34Z</time>
      </trkpt>
      <trkpt lat="48.06371" lon="7.26931">
        <ele>538</ele>
        <time>2019-04-30T11:44:34Z</time>
      </trkpt>
      <trkpt lat="48.06351" lon="7.26876">
        <ele>543</ele>
        <time>2019-04-30T11:45:34Z</time>
      </trkpt>
      <trkpt lat="48.06332" lon="7.26861">
        <ele>544</ele>
        <time>2019-04-30T11:46:34Z</time>
      </trkpt>
      <trkpt lat="48.06308" lon="7.26859">
        <ele>544</ele>
        <time>2019-04-30T11:47:34Z</time>
      </trkpt>
      <trkpt lat="48.06282" lon="7.26851">
        <ele>545</ele>
        <time>2019-04-30T11:48:34Z</time>
      </trkpt>
      <trkpt lat="48.06258" lon="7.26853">
        <ele>544</ele>
        <time>2019-04-30T11:49:34Z</time>
      </trkpt>
      <trkpt lat="48.06237" lon="7.26871">
        <ele>546</ele>
        <time>2019-04-30T11:50:34Z</time>
      </trkpt>
      <trkpt lat="48.06226" lon="7.26886">
        <ele>549</ele>
        <time>2019-04-30T11:51:34Z</time>
      </trkpt>
      <trkpt lat="48.06218" lon="7.26922">
        <ele>550</ele>
        <time>2019-04-30T11:52:34Z</time>
      </trkpt>
      <trkpt lat="48.06217" lon="7.26956">
        <ele>551</ele>
        <time>2019-04-30T11:53:34Z</time>
      </trkpt>
      <trkpt lat="48.06177" lon="7.27027">
        <ele>560</ele>
        <time>2019-04-30T11:54:34Z</time>
      </trkpt>
      <trkpt lat="48.0616" lon="7.27064">
        <ele>561</ele>
        <time>2019-04-30T11:55:34Z</time>
      </trkpt>
      <trkpt lat="48.06125" lon="7.27096">
        <ele>567</ele>
        <time>2019-04-30T11:56:34Z</time>
      </trkpt>
      <trkpt lat="48.06098" lon="7.27111">
        <ele>572</ele>
        <time>2019-04-30T11:57:34Z</time>
      </trkpt>
      <trkpt lat="48.0607" lon="7.27136">
        <ele>575</ele>
        <time>2019-04-30T11:58:34Z</time>
      </trkpt>
      <trkpt lat="48.06048" lon="7.27158">
        <ele>575</ele>
        <time>2019-04-30T11:59:34Z</time>
      </trkpt>
      <trkpt lat="48.06016" lon="7.27201">
        <ele>573</ele>
        <time>2019-04-30T12:00:34Z</time>
      </trkpt>
      <trkpt lat="48.06005" lon="7.27207">
        <ele>574</ele>
        <time>2019-04-30T12:01:34Z</time>
      </trkpt>
      <trkpt lat="48.05992" lon="7.27203">
        <ele>574</ele>
        <time>2019-04-30T12:02:34Z</time>
      </trkpt>
      <trkpt lat="48.05987" lon="7.27197">
        <ele>575</ele>
        <time>2019-04-30T12:03:34Z</time>
      </trkpt>
      <trkpt lat="48.05952" lon="7.2713">
        <ele>585</ele>
        <time>2019-04-30T12:04:34Z</time>
      </trkpt>
      <trkpt lat="48.05919" lon="7.27087">
        <ele>592</ele>
        <time>2019-04-30T12:05:34Z</time>
      </trkpt>
      <trkpt lat="48.05906" lon="7.27064">
        <ele>594</ele>
        <time>2019-04-30T12:06:34Z</time>
      </trkpt>
      <trkpt lat="48.05841" lon="7.26918">
        <ele>594</ele>
        <time>2019-04-30T12:07:34Z</time>
      </trkpt>
      <trkpt lat="48.05814" lon="7.26849">
        <ele>597</ele>
        <time>2019-04-30T12:08:34Z</time>
      </trkpt>
      <trkpt lat="48.05793" lon="7.26814">
        <ele>594</ele>
        <time>2019-04-30T12:09:34Z</time>
      </trkpt>
      <trkpt lat="48.0577" lon="7.26808">
        <ele>590</ele>
        <time>2019-04-30T12:10:34Z</time>
      </trkpt>
      <trkpt lat="48.05749" lon="7.2681">
        <ele>586</ele>
        <time>2019-04-30T12:11:34Z</time>
      </trkpt>
      <trkpt lat="48.05742" lon="7.26817">
        <ele>588</ele>
        <time>2019-04-30T12:12:34Z</time>
      </trkpt>
      <trkpt lat="48.05712" lon="7.26884">
        <ele>594</ele>
        <time>2019-04-30T12:13:34Z</time>
      </trkpt>
      <trkpt lat="48.05691" lon="7.26922">
        <ele>597</ele>
        <time>2019-04-30T12:14:34Z</time>
      </trkpt>
      <trkpt lat="48.05683" lon="7.26934">
        <ele>597</ele>
        <time>2019-04-30T12:15:34Z</time>
      </trkpt>
      <trkpt lat="48.05653" lon="7.26961">
        <ele>598</ele>
        <time>2019-04-30T12:16:34Z</time>
      </trkpt>
      <trkpt lat="48.05645" lon="7.26964">
        <ele>599</ele>
        <time>2019-04-30T12:17:34Z</time>
      </trkpt>
      <trkpt lat="48.0563" lon="7.26965">
        <ele>600</ele>
        <time>2019-04-30T12:18:34Z</time>
      </trkpt>
      <trkpt lat="48.05572" lon="7.2696">
        <ele>604</ele>
        <time>2019-04-30T12:19:34Z</time>
      </trkpt>
      <trkpt lat="48.0554" lon="7.26947">
        <ele>604</ele>
        <time>2019-04-30T12:20:34Z</time>
      </trkpt>
      <trkpt lat="48.05522" lon="7.26933">
        <ele>604</ele>
        <time>2019-04-30T12:21:34Z</time>
      </trkpt>
      <trkpt lat="48.055" lon="7.26909">
        <ele>604</ele>
        <time>2019-04-30T12:22:34Z</time>
      </trkpt>
      <trkpt lat="48.05473" lon="7.2687">
        <ele>604</ele>
        <time>2019-04-30T12:23:34Z</time>
      </trkpt>
      <trkpt lat="48.05442" lon="7.26839">
        <ele>604</ele>
        <time>2019-04-30T12:24:34Z</time>
      </trkpt>
      <trkpt lat="48.05435" lon="7.26827">
        <ele>604</ele>
        <time>2019-04-30T12:25:34Z</time>
      </trkpt>
      <trkpt lat="48.0543" lon="7.26813">
        <ele>604</ele>
        <time>2019-04-30T12:26:34Z</time>
      </trkpt>
      <trkpt lat="48.05428" lon="7.26798">
        <ele>604</ele>
        <time>2019-04-30T12:27:34Z</time>
      </trkpt>
      <trkpt lat="48.05424" lon="7.26712">
        <ele>606</ele>
        <time>2019-04-30T12:28:34Z</time>
      </trkpt>
      <trkpt lat="48.05389" lon="7.26631">
        <ele>607</ele>
        <time>2019-04-30T12:29:34Z</time>
      </trkpt>
      <trkpt lat="48.05377" lon="7.26616">
        <ele>607</ele>
        <time>2019-04-30T12:30:34Z</time>
      </trkpt>
      <trkpt lat="48.05366" lon="7.26609">
        <ele>607</ele>
        <time>2019-04-30T12:31:34Z</time>
      </trkpt>
      <trkpt lat="48.0534" lon="7.26576">
        <ele>606</ele>
        <time>2019-04-30T12:32:34Z</time>
      </trkpt>
      <trkpt lat="48.05329" lon="7.26558">
        <ele>606</ele>
        <time>2019-04-30T12:33:34Z</time>
      </trkpt>
      <trkpt lat="48.05304" lon="7.26541">
        <ele>605</ele>
        <time>2019-04-30T12:34:34Z</time>
      </trkpt>
      <trkpt lat="48.05249" lon="7.26519">
        <ele>605</ele>
        <time>2019-04-30T12:35:34Z</time>
      </trkpt>
      <trkpt lat="48.05206" lon="7.26496">
        <ele>606</ele>
        <time>2019-04-30T12:36:34Z</time>
      </trkpt>
      <trkpt lat="48.05171" lon="7.26473">
        <ele>607</ele>
        <time>2019-04-30T12:37:34Z</time>
      </trkpt>
      <trkpt lat="48.0514" lon="7.26463">
        <ele>610</ele>
        <time>2019-04-30T12:38:34Z</time>
      </trkpt>
      <trkpt lat="48.05124" lon="7.26462">
        <ele>611</ele>
        <time>2019-04-30T12:39:34Z</time>
      </trkpt>
      <trkpt lat="48.05111" lon="7.26465">
        <ele>612</ele>
        <time>2019-04-30T12:40:34Z</time>
      </trkpt>
      <trkpt lat="48.05094" lon="7.2648">
        <ele>612</ele>
        <time>2019-04-30T12:41:34Z</time>
      </trkpt>
      <trkpt lat="48.05076" lon="7.26487">
        <ele>612</ele>
        <time>2019-04-30T12:42:34Z</time>
      </trkpt>
      <trkpt lat="48.05068" lon="7.26485">
        <ele>611</ele>
        <time>2019-04-30T12:43:34Z</time>
      </trkpt>
      <trkpt lat="48.05057" lon="7.26453">
        <ele>612</ele>
        <time>2019-04-30T12:44:34Z</time>
      </trkpt>
      <trkpt lat="48.05053" lon="7.26427">
        <ele>613</ele>
        <time>2019-04-30T12:45:34Z</time>
      </trkpt>
      <trkpt lat="48.0505" lon="7.26372">
        <ele>618</ele>
        <time>2019-04-30T12:46:34Z</time>
      </trkpt>
      <trkpt lat="48.05051" lon="7.26348">
        <ele>620</ele>
        <time>2019-04-30T12:47:34Z</time>
      </trkpt>
      <trkpt lat="48.05042" lon="7.26296">
        <ele>625</ele>
        <time>2019-04-30T12:48:34Z</time>
      </trkpt>
      <trkpt lat="48.05035" lon="7.26269">
        <ele>628</ele>
        <time>2019-04-30T12:49:34Z</time>
      </trkpt>
      <trkpt lat="48.05032" lon="7.26267">
        <ele>628</ele>
        <time>2019-04-30T12:50:34Z</time>
      </trkpt>
      <trkpt lat="48.05005" lon="7.26299">
        <ele>621</ele>
        <time>2019-04-30T12:51:34Z</time>
      </trkpt>
      <trkpt lat="48.04983" lon="7.26308">
        <ele>619</ele>
        <time>2019-04-30T12:52:34Z</time>
      </trkpt>
      <trkpt lat="48.04972" lon="7.26307">
        <ele>619</ele>
        <time>2019-04-30T12:53:34Z</time>
      </trkpt>
      <trkpt lat="48.04954" lon="7.26297">
        <ele>620</ele>
        <time>2019-04-30T12:54:34Z</time>
      </trkpt>
      <trkpt lat="48.0495" lon="7.2629">
        <ele>621</ele>
        <time>2019-04-30T12:55:34Z</time>
      </trkpt>
      <trkpt lat="48.04918" lon="7.26258">
        <ele>626</ele>
        <time>2019-04-30T12:56:34Z</time>
      </trkpt>
      <trkpt lat="48.04895" lon="7.26221">
        <ele>625</ele>
        <time>2019-04-30T12:57:34Z</time>
      </trkpt>
      <trkpt lat="48.04865" lon="7.2616">
        <ele>626</ele>
        <time>2019-04-30T12:58:34Z</time>
      </trkpt>
      <trkpt lat="48.04848" lon="7.26115">
        <ele>631</ele>
        <time>2019-04-30T12:59:34Z</time>
      </trkpt>
      <trkpt lat="48.04838" lon="7.26111">
        <ele>630</ele>
        <time>2019-04-30T13:00:34Z</time>
      </trkpt>
      <trkpt lat="48.04824" lon="7.26112">
        <ele>630</ele>
        <time>2019-04-30T13:01:34Z</time>
      </trkpt>
      <trkpt lat="48.0479" lon="7.26145">
        <ele>624</ele>
        <time>2019-04-30T13:02:34Z</time>
      </trkpt>
      <trkpt lat="48.04784" lon="7.26149">
        <ele>623</ele>
        <time>2019-04-30T13:03:34Z</time>
      </trkpt>
      <trkpt lat="48.04764" lon="7.26153">
        <ele>623</ele>
        <time>2019-04-30T13:04:34Z</time>
      </trkpt>
      <trkpt lat="48.04744" lon="7.26144">
        <ele>623</ele>
        <time>2019-04-30T13:05:34Z</time>
      </trkpt>
      <trkpt lat="48.04714" lon="7.26119">
        <ele>623</ele>
        <time>2019-04-30T13:06:34Z</time>
      </trkpt>
      <trkpt lat="48.04704" lon="7.26109">
        <ele>623</ele>
        <time>2019-04-30T13:07:34Z</time>
      </trkpt>
      <trkpt lat="48.04696" lon="7.26096">
        <ele>625</ele>
        <time>2019-04-30T13:08:34Z</time>
      </trkpt>
      <trkpt lat="48.04688" lon="7.26069">
        <ele>630</ele>
        <time>2019-04-30T13:09:34Z</time>
      </trkpt>
      <trkpt lat="48.04663" lon="7.26005">
        <ele>640</ele>
        <time>2019-04-30T13:10:34Z</time>
      </trkpt>
      <trkpt lat="48.04643" lon="7.25964">
        <ele>644</ele>
        <time>2019-04-30T13:11:34Z</time>
      </trkpt>
      <trkpt lat="48.04628" lon="7.25925">
        <ele>647</ele>
        <time>2019-04-30T13:12:34Z</time>
      </trkpt>
      <trkpt lat="48.04609" lon="7.259">
        <ele>646</ele>
        <time>2019-04-30T13:13:34Z</time>
      </trkpt>
      <trkpt lat="48.04595" lon="7.25887">
        <ele>645</ele>
        <time>2019-04-30T13:14:34Z</time>
      </trkpt>
      <trkpt lat="48.04571" lon="7.25871">
        <ele>642</ele>
        <time>2019-04-30T13:15:34Z</time>
      </trkpt>
      <trkpt lat="48.04565" lon="7.25862">
        <ele>643</ele>
        <time>2019-04-30T13:16:34Z</time>
      </trkpt>
      <trkpt lat="48.04554" lon="7.25855">
        <ele>642</ele>
        <time>2019-04-30T13:17:34Z</time>
      </trkpt>
      <trkpt lat="48.04531" lon="7.25855">
        <ele>639</ele>
        <time>2019-04-30T13:18:34Z</time>
      </trkpt>
      <trkpt lat="48.04504" lon="7.25851">
        <ele>637</ele>
        <time>2019-04-30T13:19:34Z</time>
      </trkpt>
      <trkpt lat="48.04496" lon="7.25846">
        <ele>637</ele>
        <time>2019-04-30T13:20:34Z</time>
      </trkpt>
      <trkpt lat="48.04477" lon="7.25826">
        <ele>638</ele>
        <time>2019-04-30T13:21:34Z</time>
      </trkpt>
      <trkpt lat="48.04447" lon="7.25758">
        <ele>645</ele>
        <time>2019-04-30T13:22:34Z</time>
      </trkpt>
      <trkpt lat="48.04426" lon="7.25733">
        <ele>645</ele>
        <time>2019-04-30T13:23:34Z</time>
      </trkpt>
      <trkpt lat="48.04402" lon="7.2573">
        <ele>644</ele>
        <time>2019-04-30T13:24:34Z</time>
      </trkpt>
      <trkpt lat="48.04294" lon="7.2574">
        <ele>635</ele>
        <time>2019-04-30T13:25:34Z</time>
      </trkpt>
      <trkpt lat="48.04277" lon="7.25732">
        <ele>634</ele>
        <time>2019-04-30T13:26:34Z</time>
      </trkpt>
      <trkpt lat="48.04264" lon="7.25721">
        <ele>635</ele>
        <time>2019-04-30T13:27:34Z</time>
      </trkpt>
      <trkpt lat="48.04249" lon="7.25713">
        <ele>635</ele>
        <time>2019-04-30T13:28:34Z</time>
      </trkpt>
      <trkpt lat="48.04214" lon="7.25702">
        <ele>637</ele>
        <time>2019-04-30T13:29:34Z</time>
      </trkpt>
      <trkpt lat="48.04169" lon="7.25681">
        <ele>641</ele>
        <time>2019-04-30T13:30:34Z</time>
      </trkpt>
      <trkpt lat="48.0415" lon="7.25682">
        <ele>645</ele>
        <time>2019-04-30T13:31:34Z</time>
      </trkpt>
      <trkpt lat="48.04145" lon="7.25685">
        <ele>646</ele>
        <time>2019-04-30T13:32:34Z</time>
      </trkpt>
      <trkpt lat="48.04137" lon="7.25699">
        <ele>646</ele>
        <time>2019-04-30T13:33:34Z</time>
      </trkpt>
      <trkpt lat="48.04132" lon="7.25721">
        <ele>644</ele>
        <time>2019-04-30T13:34:34Z</time>
      </trkpt>
      <trkpt lat="48.04127" lon="7.25763">
        <ele>640</ele>
        <time>2019-04-30T13:35:34Z</time>
      </trkpt>
      <trkpt lat="48.04127" lon="7.25807">
        <ele>635</ele>
        <time>2019-04-30T13:36:34Z</time>
      </trkpt>
      <trkpt lat="48.04134" lon="7.2587">
        <ele>626</ele>
        <time>2019-04-30T13:37:34Z</time>
      </trkpt>
      <trkpt lat="48.04146" lon="7.25935">
        <ele>616</ele>
        <time>2019-04-30T13:38:34Z</time>
      </trkpt>
      <trkpt lat="48.04162" lon="7.26001">
        <ele>610</ele>
        <time>2019-04-30T13:39:34Z</time>
      </trkpt>
      <trkpt lat="48.04173" lon="7.26146">
        <ele>601</ele>
        <time>2019-04-30T13:40:34Z</time>
      </trkpt>
      <trkpt lat="48.04169" lon="7.26193">
        <ele>601</ele>
        <time>2019-04-30T13:41:34Z</time>
      </trkpt>
      <trkpt lat="48.04157" lon="7.26238">
        <ele>603</ele>
        <time>2019-04-30T13:42:34Z</time>
      </trkpt>
      <trkpt lat="48.0409" lon="7.26421">
        <ele>601</ele>
        <time>2019-04-30T13:43:34Z</time>
      </trkpt>
      <trkpt lat="48.04087" lon="7.26484">
        <ele>597</ele>
        <time>2019-04-30T13:44:34Z</time>
      </trkpt>
      <trkpt lat="48.04092" lon="7.26545">
        <ele>590</ele>
        <time>2019-04-30T13:45:34Z</time>
      </trkpt>
      <trkpt lat="48.04095" lon="7.26626">
        <ele>583</ele>
        <time>2019-04-30T13:46:34Z</time>
      </trkpt>
      <trkpt lat="48.04091" lon="7.26691">
        <ele>582</ele>
        <time>2019-04-30T13:47:34Z</time>
      </trkpt>
      <trkpt lat="48.04068" lon="7.26839">
        <ele>572</ele>
        <time>2019-04-30T13:48:34Z</time>
      </trkpt>
      <trkpt lat="48.04062" lon="7.26857">
        <ele>570</ele>
        <time>2019-04-30T13:49:34Z</time>
      </trkpt>
      <trkpt lat="48.0403" lon="7.26912">
        <ele>563</ele>
        <time>2019-04-30T13:50:34Z</time>
      </trkpt>
      <trkpt lat="48.03985" lon="7.26929">
        <ele>560</ele>
        <time>2019-04-30T13:51:34Z</time>
      </trkpt>
      <trkpt lat="48.03945" lon="7.26936">
        <ele>556</ele>
        <time>2019-04-30T13:52:34Z</time>
      </trkpt>
      <trkpt lat="48.03935" lon="7.2693">
        <ele>556</ele>
        <time>2019-04-30T13:53:34Z</time>
      </trkpt>
      <trkpt lat="48.039" lon="7.26894">
        <ele>554</ele>
        <time>2019-04-30T13:54:34Z</time>
      </trkpt>
      <trkpt lat="48.03886" lon="7.26874">
        <ele>552</ele>
        <time>2019-04-30T13:55:34Z</time>
      </trkpt>
      <trkpt lat="48.03869" lon="7.26833">
        <ele>552</ele>
        <time>2019-04-30T13:56:34Z</time>
      </trkpt>
      <trkpt lat="48.03841" lon="7.26743">
        <ele>552</ele>
        <time>2019-04-30T13:57:34Z</time>
      </trkpt>
      <trkpt lat="48.03802" lon="7.26596">
        <ele>554</ele>
        <time>2019-04-30T13:58:34Z</time>
      </trkpt>
      <trkpt lat="48.03793" lon="7.26567">
        <ele>554</ele>
        <time>2019-04-30T13:59:34Z</time>
      </trkpt>
      <trkpt lat="48.03781" lon="7.2654">
        <ele>553</ele>
        <time>2019-04-30T14:00:34Z</time>
      </trkpt>
      <trkpt lat="48.03748" lon="7.26477">
        <ele>553</ele>
        <time>2019-04-30T14:01:34Z</time>
      </trkpt>
      <trkpt lat="48.0369" lon="7.26395">
        <ele>552</ele>
        <time>2019-04-30T14:02:34Z</time>
      </trkpt>
      <trkpt lat="48.03682" lon="7.2639">
        <ele>551</ele>
        <time>2019-04-30T14:03:34Z</time>
      </trkpt>
      <trkpt lat="48.03668" lon="7.26388">
        <ele>548</ele>
        <time>2019-04-30T14:04:34Z</time>
      </trkpt>
      <trkpt lat="48.03651" lon="7.26397">
        <ele>551</ele>
        <time>2019-04-30T14:05:34Z</time>
      </trkpt>
      <trkpt lat="48.03637" lon="7.26425">
        <ele>551</ele>
        <time>2019-04-30T14:06:34Z</time>
      </trkpt>
      <trkpt lat="48.03627" lon="7.26489">
        <ele>550</ele>
        <time>2019-04-30T14:07:34Z</time>
      </trkpt>
      <trkpt lat="48.03603" lon="7.2655">
        <ele>548</ele>
        <time>2019-04-30T14:08:34Z</time>
      </trkpt>
      <trkpt lat="48.03554" lon="7.26659">
        <ele>546</ele>
        <time>2019-04-30T14:09:34Z</time>
      </trkpt>
      <trkpt lat="48.0355" lon="7.26681">
        <ele>545</ele>
        <time>2019-04-30T14:10:34Z</time>
      </trkpt>
      <trkpt lat="48.03541" lon="7.26895">
        <ele>526</ele>
        <time>2019-04-30T14:11:34Z</time>
      </trkpt>
      <trkpt lat="48.03546" lon="7.27099">
        <ele>498</ele>
        <time>2019-04-30T14:12:34Z</time>
      </trkpt>
      <trkpt lat="48.03533" lon="7.27163">
        <ele>489</ele>
        <time>2019-04-30T14:13:34Z</time>
      </trkpt>
      <trkpt lat="48.03493" lon="7.27267">
        <ele>482</ele>
        <time>2019-04-30T14:14:34Z</time>
      </trkpt>
      <trkpt lat="48.03474" lon="7.27331">
        <ele>475</ele>
        <time>2019-04-30T14:15:34Z</time>
      </trkpt>
      <trkpt lat="48.03447" lon="7.27469">
        <ele>456</ele>
        <time>2019-04-30T14:16:34Z</time>
      </trkpt>
      <trkpt lat="48.03457" lon="7.27501">
        <ele>448</ele>
        <time>2019-04-30T14:17:34Z</time>
      </trkpt>
      <trkpt lat="48.03411" lon="7.27634">
        <ele>425</ele>
        <time>2019-04-30T14:18:34Z</time>
      </trkpt>
      <trkpt lat="48.03391" lon="7.27677">
        <ele>415</ele>
        <time>2019-04-30T14:19:34Z</time>
      </trkpt>
      <trkpt lat="48.03358" lon="7.27713">
        <ele>405</ele>
        <time>2019-04-30T14:20:34Z</time>
      </trkpt>
      <trkpt lat="48.03323" lon="7.27728">
        <ele>400</ele>
        <time>2019-04-30T14:21:34Z</time>
      </trkpt>
      <trkpt lat="48.03284" lon="7.27737">
        <ele>401</ele>
        <time>2019-04-30T14:22:34Z</time>
      </trkpt>
      <trkpt lat="48.03245" lon="7.2773">
        <ele>406</ele>
        <time>2019-04-30T14:23:34Z</time>
      </trkpt>
      <trkpt lat="48.03236" lon="7.27732">
        <ele>406</ele>
        <time>2019-04-30T14:24:34Z</time>
      </trkpt>
      <trkpt lat="48.03219" lon="7.27745">
        <ele>404</ele>
        <time>2019-04-30T14:25:34Z</time>
      </trkpt>
      <trkpt lat="48.03213" lon="7.27761">
        <ele>402</ele>
        <time>2019-04-30T14:26:34Z</time>
      </trkpt>
      <trkpt lat="48.032" lon="7.27822">
        <ele>396</ele>
        <time>2019-04-30T14:27:34Z</time>
      </trkpt>
      <trkpt lat="48.03186" lon="7.27868">
        <ele>393</ele>
        <time>2019-04-30T14:28:34Z</time>
      </trkpt>
      <trkpt lat="48.03169" lon="7.27963">
        <ele>386</ele>
        <time>2019-04-30T14:29:34Z</time>
      </trkpt>
      <trkpt lat="48.03162" lon="7.28026">
        <ele>381</ele>
        <time>2019-04-30T14:30:34Z</time>
      </trkpt>
      <trkpt lat="48.03143" lon="7.28083">
        <ele>374</ele>
        <time>2019-04-30T14:31:34Z</time>
      </trkpt>
      <trkpt lat="48.03142" lon="7.28099">
        <ele>372</ele>
        <time>2019-04-30T14:32:34Z</time>
      </trkpt>
      <trkpt lat="48.03144" lon="7.28106">
        <ele>372</ele>
        <time>2019-04-30T14:33:34Z</time>
      </trkpt>
      <trkpt lat="48.03154" lon="7.28079">
        <ele>375</ele>
        <time>2019-04-30T14:34:34Z</time>
      </trkpt>
      <trkpt lat="48.03162" lon="7.28046">
        <ele>378</ele>
        <time>2019-04-30T14:35:34Z</time>
      </trkpt>
      <trkpt lat="48.03161" lon="7.28041">
        <ele>379</ele>
        <time>2019-04-30T14:36:34Z</time>
      </trkpt>
      <trkpt lat="48.03135" lon="7.28067">
        <ele>376</ele>
        <time>2019-04-30T14:37:34Z</time>
      </trkpt>
      <trkpt lat="48.03127" lon="7.28071">
        <ele>375</ele>
        <time>2019-04-30T14:38:34Z</time>
      </trkpt>
      <trkpt lat="48.03085" lon="7.28079">
        <ele>375</ele>
        <time>2019-04-30T14:39:34Z</time>
      </trkpt>
      <trkpt lat="48.02958" lon="7.28122">
        <ele>367</ele>
        <time>2019-04-30T14:40:34Z</time>
      </trkpt>
      <trkpt lat="48.02838" lon="7.28166">
        <ele>357</ele>
        <time>2019-04-30T14:41:34Z</time>
      </trkpt>
      <trkpt lat="48.02793" lon="7.28178">
        <ele>354</ele>
        <time>2019-04-30T14:42:34Z</time>
      </trkpt>
      <trkpt lat="48.02771" lon="7.28179">
        <ele>353</ele>
        <time>2019-04-30T14:43:34Z</time>
      </trkpt>
      <trkpt lat="48.02692" lon="7.28173">
        <ele>352</ele>
        <time>2019-04-30T14:44:34Z</time>
      </trkpt>
      <trkpt lat="48.02607" lon="7.28154">
        <ele>349</ele>
        <time>2019-04-30T14:45:34Z</time>
      </trkpt>
      <trkpt lat="48.02587" lon="7.28152">
        <ele>348</ele>
        <time>2019-04-30T14:46:34Z</time>
      </trkpt>
      <trkpt lat="48.02567" lon="7.28156">
        <ele>348</ele>
        <time>2019-04-30T14:47:34Z</time>
      </trkpt>
      <trkpt lat="48.02546" lon="7.28165">
        <ele>346</ele>
        <time>2019-04-30T14:48:34Z</time>
      </trkpt>
      <trkpt lat="48.02526" lon="7.28179">
        <ele>344</ele>
        <time>2019-04-30T14:49:34Z</time>
      </trkpt>
      <trkpt lat="48.02508" lon="7.28198">
        <ele>342</ele>
        <time>2019-04-30T14:50:34Z</time>
      </trkpt>
      <trkpt lat="48.02492" lon="7.28221">
        <ele>341</ele>
        <time>2019-04-30T14:51:34Z</time>
      </trkpt>
      <trkpt lat="48.02479" lon="7.28248">
        <ele>339</ele>
        <time>2019-04-30T14:52:34Z</time>
      </trkpt>
      <trkpt lat="48.02469" lon="7.28279">
        <ele>337</ele>
        <time>2019-04-30T14:53:34Z</time>
      </trkpt>
      <trkpt lat="48.02458" lon="7.28345">
        <ele>332</ele>
        <time>2019-04-30T14:54:34Z</time>
      </trkpt>
      <trkpt lat="48.0245" lon="7.28379">
        <ele>331</ele>
        <time>2019-04-30T14:55:34Z</time>
      </trkpt>
      <trkpt lat="48.02438" lon="7.28408">
        <ele>330</ele>
        <time>2019-04-30T14:56:34Z</time>
      </trkpt>
      <trkpt lat="48.02422" lon="7.28431">
        <ele>330</ele>
        <time>2019-04-30T14:57:34Z</time>
      </trkpt>
      <trkpt lat="48.02394" lon="7.28454">
        <ele>330</ele>
        <time>2019-04-30T14:58:34Z</time>
      </trkpt>
      <trkpt lat="48.02375" lon="7.28464">
        <ele>330</ele>
        <time>2019-04-30T14:59:34Z</time>
      </trkpt>
      <trkpt lat="48.02341" lon="7.28487">
        <ele>329</ele>
        <time>2019-04-30T15:00:34Z</time>
      </trkpt>
      <trkpt lat="48.02318" lon="7.28487">
        <ele>328</ele>
        <time>2019-04-30T15:01:34Z</time>
      </trkpt>
      <trkpt lat="48.02293" lon="7.28475">
        <ele>328</ele>
        <time>2019-04-30T15:02:34Z</time>
      </trkpt>
      <trkpt lat="48.02216" lon="7.28455">
        <ele>326</ele>
        <time>2019-04-30T15:03:34Z</time>
      </trkpt>
      <trkpt lat="48.02166" lon="7.28437">
        <ele>326</ele>
        <time>2019-04-30T15:04:34Z</time>
      </trkpt>
      <trkpt lat="48.02153" lon="7.28423">
        <ele>327</ele>
        <time>2019-04-30T15:05:34Z</time>
      </trkpt>
      <trkpt lat="48.02143" lon="7.28404">
        <ele>328</ele>
        <time>2019-04-30T15:06:34Z</time>
      </trkpt>
      <trkpt lat="48.02119" lon="7.28294">
        <ele>333</ele>
        <time>2019-04-30T15:07:34Z</time>
      </trkpt>
      <trkpt lat="48.02116" lon="7.2829">
        <ele>333</ele>
        <time>2019-04-30T15:08:34Z</time>
      </trkpt>
      <trkpt lat="48.02109" lon="7.28286">
        <ele>334</ele>
        <time>2019-04-30T15:09:34Z</time>
      </trkpt>
      <trkpt lat="48.02001" lon="7.28272">
        <ele>332</ele>
        <time>2019-04-30T15:10:34Z</time>
      </trkpt>
      <trkpt lat="48.01989" lon="7.28266">
        <ele>332</ele>
        <time>2019-04-30T15:11:34Z</time>
      </trkpt>
      <trkpt lat="48.01969" lon="7.28245">
        <ele>332</ele>
        <time>2019-04-30T15:12:34Z</time>
      </trkpt>
      <trkpt lat="48.01953" lon="7.28203">
        <ele>334</ele>
        <time>2019-04-30T15:13:34Z</time>
      </trkpt>
      <trkpt lat="48.01932" lon="7.28197">
        <ele>333</ele>
        <time>2019-04-30T15:14:34Z</time>
      </trkpt>
      <trkpt lat="48.01903" lon="7.28197">
        <ele>331</ele>
        <time>2019-04-30T15:15:34Z</time>
      </trkpt>
      <trkpt lat="48.01867" lon="7.28211">
        <ele>327</ele>
        <time>2019-04-30T15:16:34Z</time>
      </trkpt>
      <trkpt lat="48.01843" lon="7.2821">
        <ele>325</ele>
        <time>2019-04-30T15:17:34Z</time>
      </trkpt>
      <trkpt lat="48.01717" lon="7.28156">
        <ele>312</ele>
        <time>2019-04-30T15:18:34Z</time>
      </trkpt>
      <trkpt lat="48.01679" lon="7.28143">
        <ele>307</ele>
        <time>2019-04-30T15:19:34Z</time>
      </trkpt>
      <trkpt lat="48.01621" lon="7.28129">
        <ele>300</ele>
        <time>2019-04-30T15:20:34Z</time>
      </trkpt>
      <trkpt lat="48.01561" lon="7.28125">
        <ele>292</ele>
        <time>2019-04-30T15:21:34Z</time>
      </trkpt>
      <trkpt lat="48.01536" lon="7.28116">
        <ele>289</ele>
        <time>2019-04-30T15:22:34Z</time>
      </trkpt>
      <trkpt lat="48.01472" lon="7.28082">
        <ele>284</ele>
        <time>2019-04-30T15:23:34Z</time>
      </trkpt>
      <trkpt lat="48.01429" lon="7.28063">
        <ele>282</ele>
        <time>2019-04-30T15:24:34Z</time>
      </trkpt>
      <trkpt lat="48.01391" lon="7.2805">
        <ele>279</ele>
        <time>2019-04-30T15:25:34Z</time>
      </trkpt>
      <trkpt lat="48.01356" lon="7.28031">
        <ele>279</ele>
        <time>2019-04-30T15:26:34Z</time>
      </trkpt>
      <trkpt lat="48.01348" lon="7.28019">
        <ele>279</ele>
        <time>2019-04-30T15:27:34Z</time>
      </trkpt>
      <trkpt lat="48.01326" lon="7.28003">
        <ele>280</ele>
        <time>2019-04-30T15:28:34Z</time>
      </trkpt>
      <trkpt lat="48.0132" lon="7.28001">
        <ele>280</ele>
        <time>2019-04-30T15:29:34Z</time>
      </trkpt>
      <trkpt lat="48.0126" lon="7.28002">
        <ele>279</ele>
        <time>2019-04-30T15:30:34Z</time>
      </trkpt>
      <trkpt lat="48.01179" lon="7.27987">
        <ele>281</ele>
        <time>2019-04-30T15:31:34Z</time>
      </trkpt>
      <trkpt lat="48.01136" lon="7.27975">
        <ele>280</ele>
        <time>2019-04-30T15:32:34Z</time>
      </trkpt>
      <trkpt lat="48.01054" lon="7.27924">
        <ele>279</ele>
        <time>2019-04-30T15:33:34Z</time>
      </trkpt>
      <trkpt lat="48.01024" lon="7.27897">
        <ele>279</ele>
        <time>2019-04-30T15:34:34Z</time>
      </trkpt>
      <trkpt lat="48.01001" lon="7.27863">
        <ele>280</ele>
        <time>2019-04-30T15:35:34Z</time>
      </trkpt>
      <trkpt lat="48.0094" lon="7.27816">
        <ele>279</ele>
        <time>2019-04-30T15:36:34Z</time>
      </trkpt>
      <trkpt lat="48.00907" lon="7.27804">
        <ele>278</ele>
        <time>2019-04-30T15:37:34Z</time>
      </trkpt>
      <trkpt lat="48.00885" lon="7.27803">
        <ele>278</ele>
        <time>2019-04-30T15:38:34Z</time>
      </trkpt>
      <trkpt lat="48.0087" lon="7.27805">
        <ele>278</ele>
        <time>2019-04-30T15:39:34Z</time>
      </trkpt>
      <trkpt lat="48.00836" lon="7.27801">
        <ele>278</ele>
        <time>2019-04-30T15:40:34Z</time>
      </trkpt>
      <trkpt lat="48.00813" lon="7.27794">
        <ele>277</ele>
        <time>2019-04-30T15:41:34Z</time>
      </trkpt>
      <trkpt lat="48.0076" lon="7.27772">
        <ele>274</ele>
        <time>2019-04-30T15:42:34Z</time>
      </trkpt>
      <trkpt lat="48.00694" lon="7.27721">
        <ele>271</ele>
        <time>2019-04-30T15:43:34Z</time>
      </trkpt>
      <trkpt lat="48.00678" lon="7.27713">
        <ele>270</ele>
        <time>2019-04-30T15:44:34Z</time>
      </trkpt>
      <trkpt lat="48.00657" lon="7.27711">
        <ele>268</ele>
        <time>2019-04-30T15:45:34Z</time>
      </trkpt>
      <trkpt lat="48.00649" lon="7.27708">
        <ele>268</ele>
        <time>2019-04-30T15:46:34Z</time>
      </trkpt>
      <trkpt lat="48.00621" lon="7.27692">
        <ele>266</ele>
        <time>2019-04-30T15:47:34Z</time>
      </trkpt>
      <trkpt lat="48.00615" lon="7.27682">
        <ele>266</ele>
        <time>2019-04-30T15:48:34Z</time>
      </trkpt>
      <trkpt lat="48.00618" lon="7.2767">
        <ele>267</ele>
        <time>2019-04-30T15:49:34Z</time>
      </trkpt>
      <trkpt lat="48.00627" lon="7.27653">
        <ele>269</ele>
        <time>2019-04-30T15:50:34Z</time>
      </trkpt>
      <trkpt lat="48.00642" lon="7.27599">
        <ele>275</ele>
        <time>2019-04-30T15:51:34Z</time>
      </trkpt>
      <trkpt lat="48.00647" lon="7.2759">
        <ele>277</ele>
        <time>2019-04-30T15:52:34Z</time>
      </trkpt>
      <trkpt lat="48.00653" lon="7.27585">
        <ele>278</ele>
        <time>2019-04-30T15:53:34Z</time>
      </trkpt>
      <trkpt lat="48.00682" lon="7.27571">
        <ele>284</ele>
        <time>2019-04-30T15:54:34Z</time>
      </trkpt>
      <trkpt lat="48.00704" lon="7.27569">
        <ele>288</ele>
        <time>2019-04-30T15:55:34Z</time>
      </trkpt>
      <trkpt lat="48.00726" lon="7.27574">
        <ele>290</ele>
        <time>2019-04-30T15:56:34Z</time>
      </trkpt>
      <trkpt lat="48.00761" lon="7.27594">
        <ele>292</ele>
        <time>2019-04-30T15:57:34Z</time>
      </trkpt>
      <trkpt lat="48.0078" lon="7.27603">
        <ele>293</ele>
        <time>2019-04-30T15:58:34Z</time>
      </trkpt>
      <trkpt lat="48.00795" lon="7.27607">
        <ele>294</ele>
        <time>2019-04-30T15:59:34Z</time>
      </trkpt>
      <trkpt lat="48.00807" lon="7.27606">
        <ele>295</ele>
        <time>2019-04-30T16:00:34Z</time>
      </trkpt>
      <trkpt lat="48.00842" lon="7.27595">
        <ele>301</ele>
        <time>2019-04-30T16:01:34Z</time>
      </trkpt>
      <trkpt lat="48.0086" lon="7.27595">
        <ele>304</ele>
        <time>2019-04-30T16:02:34Z</time>
      </trkpt>
      <trkpt lat="48.00866" lon="7.27585">
        <ele>306</ele>
        <time>2019-04-30T16:03:34Z</time>
      </trkpt>
      <trkpt lat="48.00865" lon="7.27574">
        <ele>309</ele>
        <time>2019-04-30T16:04:34Z</time>
      </trkpt>
      <trkpt lat="48.00859" lon="7.27565">
        <ele>311</ele>
        <time>2019-04-30T16:05:34Z</time>
      </trkpt>
      <trkpt lat="48.00831" lon="7.27537">
        <ele>314</ele>
        <time>2019-04-30T16:06:34Z</time>
      </trkpt>
      <trkpt lat="48.00808" lon="7.27496">
        <ele>321</ele>
        <time>2019-04-30T16:07:34Z</time>
      </trkpt>
      <trkpt lat="48.00801" lon="7.27491">
        <ele>321</ele>
        <time>2019-04-30T16:08:34Z</time>
      </trkpt>
      <trkpt lat="48.00767" lon="7.27487">
        <ele>316</ele>
        <time>2019-04-30T16:09:34Z</time>
      </trkpt>
      <trkpt lat="48.00705" lon="7.27393">
        <ele>328</ele>
        <time>2019-04-30T16:10:34Z</time>
      </trkpt>
      <trkpt lat="48.00666" lon="7.27357">
        <ele>330</ele>
        <time>2019-04-30T16:11:34Z</time>
      </trkpt>
      <trkpt lat="48.00652" lon="7.27347">
        <ele>331</ele>
        <time>2019-04-30T16:12:34Z</time>
      </trkpt>
      <trkpt lat="48.00618" lon="7.2733">
        <ele>331</ele>
        <time>2019-04-30T16:13:34Z</time>
      </trkpt>
      <trkpt lat="48.00609" lon="7.27314">
        <ele>331</ele>
        <time>2019-04-30T16:14:34Z</time>
      </trkpt>
      <trkpt lat="48.006" lon="7.27291">
        <ele>333</ele>
        <time>2019-04-30T16:15:34Z</time>
      </trkpt>
      <trkpt lat="48.00588" lon="7.27241">
        <ele>338</ele>
        <time>2019-04-30T16:16:34Z</time>
      </trkpt>
      <trkpt lat="48.00577" lon="7.27149">
        <ele>343</ele>
        <time>2019-04-30T16:17:34Z</time>
      </trkpt>
      <trkpt lat="48.00568" lon="7.27041">
        <ele>350</ele>
        <time>2019-04-30T16:18:34Z</time>
      </trkpt>
      <trkpt lat="48.00561" lon="7.2699">
        <ele>353</ele>
        <time>2019-04-30T16:19:34Z</time>
      </trkpt>
      <trkpt lat="48.00551" lon="7.26862">
        <ele>366</ele>
        <time>2019-04-30T16:20:34Z</time>
      </trkpt>
      <trkpt lat="48.00545" lon="7.26828">
        <ele>371</ele>
        <time>2019-04-30T16:21:34Z</time>
      </trkpt>
      <trkpt lat="48.00535" lon="7.26809">
        <ele>375</ele>
        <time>2019-04-30T16:22:34Z</time>
      </trkpt>
      <trkpt lat="48.00508" lon="7.26803">
        <ele>371</ele>
        <time>2019-04-30T16:23:34Z</time>
      </trkpt>
      <trkpt lat="48.00494" lon="7.26795">
        <ele>371</ele>
        <time>2019-04-30T16:24:34Z</time>
      </trkpt>
      <trkpt lat="48.00488" lon="7.26794">
        <ele>370</ele>
        <time>2019-04-30T16:25:34Z</time>
      </trkpt>
      <trkpt lat="48.00479" lon="7.26784">
        <ele>371</ele>
        <time>2019-04-30T16:26:34Z</time>
      </trkpt>
      <trkpt lat="48.00469" lon="7.26763">
        <ele>374</ele>
        <time>2019-04-30T16:27:34Z</time>
      </trkpt>
      <trkpt lat="48.0046" lon="7.26689">
        <ele>388</ele>
        <time>2019-04-30T16:28:34Z</time>
      </trkpt>
      <trkpt lat="48.00449" lon="7.26645">
        <ele>393</ele>
        <time>2019-04-30T16:29:34Z</time>
      </trkpt>
      <trkpt lat="48.00439" lon="7.26586">
        <ele>400</ele>
        <time>2019-04-30T16:30:34Z</time>
      </trkpt>
      <trkpt lat="48.00421" lon="7.26512">
        <ele>407</ele>
        <time>2019-04-30T16:31:34Z</time>
      </trkpt>
      <trkpt lat="48.00409" lon="7.26491">
        <ele>408</ele>
        <time>2019-04-30T16:32:34Z</time>
      </trkpt>
      <trkpt lat="48.00391" lon="7.26479">
        <ele>409</ele>
        <time>2019-04-30T16:33:34Z</time>
      </trkpt>
      <trkpt lat="48.0038" lon="7.26482">
        <ele>408</ele>
        <time>2019-04-30T16:34:34Z</time>
      </trkpt>
      <trkpt lat="48.00372" lon="7.26488">
        <ele>407</ele>
        <time>2019-04-30T16:35:34Z</time>
      </trkpt>
      <trkpt lat="48.00336" lon="7.26543">
        <ele>400</ele>
        <time>2019-04-30T16:36:34Z</time>
      </trkpt>
      <trkpt lat="48.00313" lon="7.26593">
        <ele>402</ele>
        <time>2019-04-30T16:37:34Z</time>
      </trkpt>
      <trkpt lat="48.00309" lon="7.26597">
        <ele>402</ele>
        <time>2019-04-30T16:38:34Z</time>
      </trkpt>
      <trkpt lat="48.00303" lon="7.26597">
        <ele>404</ele>
        <time>2019-04-30T16:39:34Z</time>
      </trkpt>
      <trkpt lat="48.00296" lon="7.26587">
        <ele>408</ele>
        <time>2019-04-30T16:40:34Z</time>
      </trkpt>
      <trkpt lat="48.00295" lon="7.26568">
        <ele>411</ele>
        <time>2019-04-30T16:41:34Z</time>
      </trkpt>
      <trkpt lat="48.00305" lon="7.26503">
        <ele>413</ele>
        <time>2019-04-30T16:42:34Z</time>
      </trkpt>
      <trkpt lat="48.00306" lon="7.26431">
        <ele>420</ele>
        <time>2019-04-30T16:43:34Z</time>
      </trkpt>
      <trkpt lat="48.00311" lon="7.2638">
        <ele>424</ele>
        <time>2019-04-30T16:44:34Z</time>
      </trkpt>
      <trkpt lat="48.00313" lon="7.26314">
        <ele>430</ele>
        <time>2019-04-30T16:45:34Z</time>
      </trkpt>
      <trkpt lat="48.00325" lon="7.26235">
        <ele>432</ele>
        <time>2019-04-30T16:46:34Z</time>
      </trkpt>
      <trkpt lat="48.00328" lon="7.2617">
        <ele>433</ele>
        <time>2019-04-30T16:47:34Z</time>
      </trkpt>
      <trkpt lat="48.00331" lon="7.26155">
        <ele>432</ele>
        <time>2019-04-30T16:48:34Z</time>
      </trkpt>
      <trkpt lat="48.00342" lon="7.26128">
        <ele>434</ele>
        <time>2019-04-30T16:49:34Z</time>
      </trkpt>
      <trkpt lat="48.00357" lon="7.26102">
        <ele>439</ele>
        <time>2019-04-30T16:50:34Z</time>
      </trkpt>
      <trkpt lat="48.00374" lon="7.26031">
        <ele>446</ele>
        <time>2019-04-30T16:51:34Z</time>
      </trkpt>
      <trkpt lat="48.0038" lon="7.25979">
        <ele>450</ele>
        <time>2019-04-30T16:52:34Z</time>
      </trkpt>
      <trkpt lat="48.0039" lon="7.25833">
        <ele>457</ele>
        <time>2019-04-30T16:53:34Z</time>
      </trkpt>
      <trkpt lat="48.00404" lon="7.25732">
        <ele>466</ele>
        <time>2019-04-30T16:54:34Z</time>
      </trkpt>
      <trkpt lat="48.00416" lon="7.25575">
        <ele>473</ele>
        <time>2019-04-30T16:55:34Z</time>
      </trkpt>
      <trkpt lat="48.00422" lon="7.25535">
        <ele>474</ele>
        <time>2019-04-30T16:56:34Z</time>
      </trkpt>
      <trkpt lat="48.00437" lon="7.25483">
        <ele>476</ele>
        <time>2019-04-30T16:57:34Z</time>
      </trkpt>
      <trkpt lat="48.00487" lon="7.25413">
        <ele>482</ele>
        <time>2019-04-30T16:58:34Z</time>
      </trkpt>
      <trkpt lat="48.00515" lon="7.25368">
        <ele>486</ele>
        <time>2019-04-30T16:59:34Z</time>
      </trkpt>
      <trkpt lat="48.00535" lon="7.25341">
        <ele>489</ele>
        <time>2019-04-30T17:00:34Z</time>
      </trkpt>
      <trkpt lat="48.00563" lon="7.25309">
        <ele>493</ele>
        <time>2019-04-30T17:01:34Z</time>
      </trkpt>
      <trkpt lat="48.00624" lon="7.25228">
        <ele>501</ele>
        <time>2019-04-30T17:02:34Z</time>
      </trkpt>
      <trkpt lat="48.00668" lon="7.25201">
        <ele>507</ele>
        <time>2019-04-30T17:03:34Z</time>
      </trkpt>
      <trkpt lat="48.0069" lon="7.25182">
        <ele>508</ele>
        <time>2019-04-30T17:04:34Z</time>
      </trkpt>
      <trkpt lat="48.00716" lon="7.25153">
        <ele>509</ele>
        <time>2019-04-30T17:05:34Z</time>
      </trkpt>
      <trkpt lat="48.00735" lon="7.25136">
        <ele>509</ele>
        <time>2019-04-30T17:06:34Z</time>
      </trkpt>
      <trkpt lat="48.0078" lon="7.25108">
        <ele>513</ele>
        <time>2019-04-30T17:07:34Z</time>
      </trkpt>
      <trkpt lat="48.00863" lon="7.25051">
        <ele>524</ele>
        <time>2019-04-30T17:08:34Z</time>
      </trkpt>
      <trkpt lat="48.00949" lon="7.24975">
        <ele>533</ele>
        <time>2019-04-30T17:09:34Z</time>
      </trkpt>
      <trkpt lat="48.00965" lon="7.24954">
        <ele>533</ele>
        <time>2019-04-30T17:10:34Z</time>
      </trkpt>
      <trkpt lat="48.01037" lon="7.24899">
        <ele>536</ele>
        <time>2019-04-30T17:11:34Z</time>
      </trkpt>
      <trkpt lat="48.01075" lon="7.2486">
        <ele>539</ele>
        <time>2019-04-30T17:12:34Z</time>
      </trkpt>
      <trkpt lat="48.0112" lon="7.24796">
        <ele>546</ele>
        <time>2019-04-30T17:13:34Z</time>
      </trkpt>
      <trkpt lat="48.01134" lon="7.24781">
        <ele>549</ele>
        <time>2019-04-30T17:14:34Z</time>
      </trkpt>
      <trkpt lat="48.01205" lon="7.24725">
        <ele>554</ele>
        <time>2019-04-30T17:15:34Z</time>
      </trkpt>
      <trkpt lat="48.01282" lon="7.24648">
        <ele>561</ele>
        <time>2019-04-30T17:16:34Z</time>
      </trkpt>
      <trkpt lat="48.01313" lon="7.24612">
        <ele>564</ele>
        <time>2019-04-30T17:17:34Z</time>
      </trkpt>
      <trkpt lat="48.01333" lon="7.24592">
        <ele>565</ele>
        <time>2019-04-30T17:18:34Z</time>
      </trkpt>
      <trkpt lat="48.01343" lon="7.24587">
        <ele>566</ele>
        <time>2019-04-30T17:19:34Z</time>
      </trkpt>
      <trkpt lat="48.01363" lon="7.24561">
        <ele>568</ele>
        <time>2019-04-30T17:20:34Z</time>
      </trkpt>
      <trkpt lat="48.01367" lon="7.24536">
        <ele>571</ele>
        <time>2019-04-30T17:21:34Z</time>
      </trkpt>
      <trkpt lat="48.01366" lon="7.24517">
        <ele>572</ele>
        <time>2019-04-30T17:22:34Z</time>
      </trkpt>
      <trkpt lat="48.01354" lon="7.24495">
        <ele>573</ele>
        <time>2019-04-30T17:23:34Z</time>
      </trkpt>
      <trkpt lat="48.01352" lon="7.24483">
        <ele>573</ele>
        <time>2019-04-30T17:24:34Z</time>
      </trkpt>
      <trkpt lat="48.01294" lon="7.24398">
        <ele>573</ele>
        <time>2019-04-30T17:25:34Z</time>
      </trkpt>
      <trkpt lat="48.01269" lon="7.24343">
        <ele>572</ele>
        <time>2019-04-30T17:26:34Z</time>
      </trkpt>
      <trkpt lat="48.01235" lon="7.24257">
        <ele>573</ele>
        <time>2019-04-30T17:27:34Z</time>
      </trkpt>
      <trkpt lat="48.01213" lon="7.24185">
        <ele>575</ele>
        <time>2019-04-30T17:28:34Z</time>
      </trkpt>
      <trkpt lat="48.012" lon="7.2413">
        <ele>575</ele>
        <time>2019-04-30T17:29:34Z</time>
      </trkpt>
      <trkpt lat="48.01188" lon="7.2411">
        <ele>575</ele>
        <time>2019-04-30T17:30:34Z</time>
      </trkpt>
      <trkpt lat="48.01184" lon="7.24089">
        <ele>574</ele>
        <time>2019-04-30T17:31:34Z</time>
      </trkpt>
      <trkpt lat="48.01177" lon="7.24073">
        <ele>574</ele>
        <time>2019-04-30T17:32:34Z</time>
      </trkpt>
      <trkpt lat="48.01165" lon="7.23956">
        <ele>567</ele>
        <time>2019-04-30T17:33:34Z</time>
      </trkpt>
      <trkpt lat="48.01156" lon="7.23923">
        <ele>565</ele>
        <time>2019-04-30T17:34:34Z</time>
      </trkpt>
      <trkpt lat="48.01143" lon="7.23903">
        <ele>564</ele>
        <time>2019-04-30T17:35:34Z</time>
      </trkpt>
      <trkpt lat="48.01107" lon="7.23866">
        <ele>561</ele>
        <time>2019-04-30T17:36:34Z</time>
      </trkpt>
      <trkpt lat="48.01088" lon="7.23824">
        <ele>556</ele>
        <time>2019-04-30T17:37:34Z</time>
      </trkpt>
      <trkpt lat="48.01078" lon="7.23808">
        <ele>555</ele>
        <time>2019-04-30T17:38:34Z</time>
      </trkpt>
      <trkpt lat="48.01073" lon="7.23776">
        <ele>552</ele>
        <time>2019-04-30T17:39:34Z</time>
      </trkpt>
      <trkpt lat="48.01075" lon="7.23743">
        <ele>549</ele>
        <time>2019-04-30T17:40:34Z</time>
      </trkpt>
      <trkpt lat="48.01112" lon="7.23538">
        <ele>544</ele>
        <time>2019-04-30T17:41:34Z</time>
      </trkpt>
      <trkpt lat="48.0112" lon="7.23473">
        <ele>545</ele>
        <time>2019-04-30T17:42:34Z</time>
      </trkpt>
      <trkpt lat="48.01119" lon="7.23449">
        <ele>546</ele>
        <time>2019-04-30T17:43:34Z</time>
      </trkpt>
      <trkpt lat="48.01108" lon="7.23417">
        <ele>546</ele>
        <time>2019-04-30T17:44:34Z</time>
      </trkpt>
      <trkpt lat="48.01052" lon="7.23314">
        <ele>550</ele>
        <time>2019-04-30T17:45:34Z</time>
      </trkpt>
      <trkpt lat="48.01004" lon="7.23247">
        <ele>560</ele>
        <time>2019-04-30T17:46:34Z</time>
      </trkpt>
      <trkpt lat="48.00987" lon="7.23216">
        <ele>563</ele>
        <time>2019-04-30T17:47:34Z</time>
      </trkpt>
      <trkpt lat="48.00975" lon="7.23176">
        <ele>567</ele>
        <time>2019-04-30T17:48:34Z</time>
      </trkpt>
      <trkpt lat="48.00978" lon="7.2313">
        <ele>572</ele>
        <time>2019-04-30T17:49:34Z</time>
      </trkpt>
      <trkpt lat="48.0099" lon="7.2304">
        <ele>581</ele>
        <time>2019-04-30T17:50:34Z</time>
      </trkpt>
      <trkpt lat="48.00985" lon="7.22912">
        <ele>588</ele>
        <time>2019-04-30T17:51:34Z</time>
      </trkpt>
      <trkpt lat="48.00988" lon="7.22859">
        <ele>593</ele>
        <time>2019-04-30T17:52:34Z</time>
      </trkpt>
      <trkpt lat="48.00993" lon="7.22831">
        <ele>595</ele>
        <time>2019-04-30T17:53:34Z</time>
      </trkpt>
      <trkpt lat="48.01002" lon="7.22809">
        <ele>597</ele>
        <time>2019-04-30T17:54:34Z</time>
      </trkpt>
      <trkpt lat="48.01012" lon="7.22746">
        <ele>602</ele>
        <time>2019-04-30T17:55:34Z</time>
      </trkpt>
      <trkpt lat="48.01011" lon="7.22671">
        <ele>605</ele>
        <time>2019-04-30T17:56:34Z</time>
      </trkpt>
      <trkpt lat="48.01008" lon="7.22643">
        <ele>605</ele>
        <time>2019-04-30T17:57:34Z</time>
      </trkpt>
      <trkpt lat="48.00996" lon="7.22584">
        <ele>604</ele>
        <time>2019-04-30T17:58:34Z</time>
      </trkpt>
      <trkpt lat="48.00983" lon="7.2247">
        <ele>607</ele>
        <time>2019-04-30T17:59:34Z</time>
      </trkpt>
      <trkpt lat="48.0097" lon="7.22388">
        <ele>611</ele>
        <time>2019-04-30T18:00:34Z</time>
      </trkpt>
      <trkpt lat="48.00967" lon="7.22337">
        <ele>614</ele>
        <time>2019-04-30T18:01:34Z</time>
      </trkpt>
      <trkpt lat="48.00961" lon="7.22305">
        <ele>616</ele>
        <time>2019-04-30T18:02:34Z</time>
      </trkpt>
      <trkpt lat="48.00955" lon="7.22299">
        <ele>616</ele>
        <time>2019-04-30T18:03:34Z</time>
      </trkpt>
      <trkpt lat="48.0095" lon="7.22298">
        <ele>615</ele>
        <time>2019-04-30T18:04:34Z</time>
      </trkpt>
      <trkpt lat="48.00941" lon="7.22301">
        <ele>614</ele>
        <time>2019-04-30T18:05:34Z</time>
      </trkpt>
      <trkpt lat="48.00929" lon="7.22316">
        <ele>612</ele>
        <time>2019-04-30T18:06:34Z</time>
      </trkpt>
      <trkpt lat="48.00898" lon="7.22371">
        <ele>605</ele>
        <time>2019-04-30T18:07:34Z</time>
      </trkpt>
      <trkpt lat="48.00882" lon="7.22403">
        <ele>603</ele>
        <time>2019-04-30T18:08:34Z</time>
      </trkpt>
      <trkpt lat="48.00869" lon="7.22439">
        <ele>601</ele>
        <time>2019-04-30T18:09:34Z</time>
      </trkpt>
      <trkpt lat="48.00843" lon="7.22529">
        <ele>596</ele>
        <time>2019-04-30T18:10:34Z</time>
      </trkpt>
      <trkpt lat="48.00833" lon="7.2255">
        <ele>594</ele>
        <time>2019-04-30T18:11:34Z</time>
      </trkpt>
      <trkpt lat="48.00817" lon="7.22569">
        <ele>593</ele>
        <time>2019-04-30T18:12:34Z</time>
      </trkpt>
      <trkpt lat="48.00786" lon="7.22582">
        <ele>590</ele>
        <time>2019-04-30T18:13:34Z</time>
      </trkpt>
      <trkpt lat="48.00657" lon="7.22599">
        <ele>581</ele>
        <time>2019-04-30T18:14:34Z</time>
      </trkpt>
      <trkpt lat="48.00604" lon="7.22613">
        <ele>579</ele>
        <time>2019-04-30T18:15:34Z</time>
      </trkpt>
      <trkpt lat="48.00586" lon="7.2262">
        <ele>577</ele>
        <time>2019-04-30T18:16:34Z</time>
      </trkpt>
      <trkpt lat="48.00563" lon="7.22624">
        <ele>575</ele>
        <time>2019-04-30T18:17:34Z</time>
      </trkpt>
      <trkpt lat="48.00484" lon="7.22611">
        <ele>572</ele>
        <time>2019-04-30T18:18:34Z</time>
      </trkpt>
      <trkpt lat="48.00436" lon="7.22584">
        <ele>570</ele>
        <time>2019-04-30T18:19:34Z</time>
      </trkpt>
      <trkpt lat="48.00424" lon="7.22575">
        <ele>569</ele>
        <time>2019-04-30T18:20:34Z</time>
      </trkpt>
      <trkpt lat="48.00396" lon="7.22545">
        <ele>567</ele>
        <time>2019-04-30T18:21:34Z</time>
      </trkpt>
      <trkpt lat="48.00362" lon="7.22497">
        <ele>564</ele>
        <time>2019-04-30T18:22:34Z</time>
      </trkpt>
      <trkpt lat="48.00331" lon="7.22433">
        <ele>561</ele>
        <time>2019-04-30T18:23:34Z</time>
      </trkpt>
      <trkpt lat="48.00311" lon="7.22381">
        <ele>556</ele>
        <time>2019-04-30T18:24:34Z</time>
      </trkpt>
      <trkpt lat="48.003" lon="7.22318">
        <ele>552</ele>
        <time>2019-04-30T18:25:34Z</time>
      </trkpt>
      <trkpt lat="48.00285" lon="7.22159">
        <ele>540</ele>
        <time>2019-04-30T18:26:34Z</time>
      </trkpt>
      <trkpt lat="48.00286" lon="7.22129">
        <ele>536</ele>
        <time>2019-04-30T18:27:34Z</time>
      </trkpt>
      <trkpt lat="48.00292" lon="7.22115">
        <ele>534</ele>
        <time>2019-04-30T18:28:34Z</time>
      </trkpt>
      <trkpt lat="48.00307" lon="7.22096">
        <ele>534</ele>
        <time>2019-04-30T18:29:34Z</time>
      </trkpt>
      <trkpt lat="48.00335" lon="7.22079">
        <ele>536</ele>
        <time>2019-04-30T18:30:34Z</time>
      </trkpt>
      <trkpt lat="48.00377" lon="7.22064">
        <ele>536</ele>
        <time>2019-04-30T18:31:34Z</time>
      </trkpt>
      <trkpt lat="48.0042" lon="7.22045">
        <ele>535</ele>
        <time>2019-04-30T18:32:34Z</time>
      </trkpt>
      <trkpt lat="48.00475" lon="7.22028">
        <ele>533</ele>
        <time>2019-04-30T18:33:34Z</time>
      </trkpt>
      <trkpt lat="48.00499" lon="7.22017">
        <ele>532</ele>
        <time>2019-04-30T18:34:34Z</time>
      </trkpt>
      <trkpt lat="48.00538" lon="7.21989">
        <ele>533</ele>
        <time>2019-04-30T18:35:34Z</time>
      </trkpt>
      <trkpt lat="48.00573" lon="7.21958">
        <ele>535</ele>
        <time>2019-04-30T18:36:34Z</time>
      </trkpt>
      <trkpt lat="48.00593" lon="7.21935">
        <ele>537</ele>
        <time>2019-04-30T18:37:34Z</time>
      </trkpt>
      <trkpt lat="48.00646" lon="7.21838">
        <ele>553</ele>
        <time>2019-04-30T18:38:34Z</time>
      </trkpt>
      <trkpt lat="48.00653" lon="7.21833">
        <ele>554</ele>
        <time>2019-04-30T18:39:34Z</time>
      </trkpt>
      <trkpt lat="48.00651" lon="7.21842">
        <ele>553</ele>
        <time>2019-04-30T18:40:34Z</time>
      </trkpt>
      <trkpt lat="48.00589" lon="7.21855">
        <ele>541</ele>
        <time>2019-04-30T18:41:34Z</time>
      </trkpt>
      <trkpt lat="48.00544" lon="7.21875">
        <ele>533</ele>
        <time>2019-04-30T18:42:34Z</time>
      </trkpt>
      <trkpt lat="48.00524" lon="7.21881">
        <ele>530</ele>
        <time>2019-04-30T18:43:34Z</time>
      </trkpt>
      <trkpt lat="48.00511" lon="7.21881">
        <ele>528</ele>
        <time>2019-04-30T18:44:34Z</time>
      </trkpt>
      <trkpt lat="48.00488" lon="7.21843">
        <ele>531</ele>
        <time>2019-04-30T18:45:34Z</time>
      </trkpt>
      <trkpt lat="48.00471" lon="7.21828">
        <ele>533</ele>
        <time>2019-04-30T18:46:34Z</time>
      </trkpt>
      <trkpt lat="48.00462" lon="7.21825">
        <ele>533</ele>
        <time>2019-04-30T18:47:34Z</time>
      </trkpt>
      <trkpt lat="48.00429" lon="7.21822">
        <ele>531</ele>
        <time>2019-04-30T18:48:34Z</time>
      </trkpt>
      <trkpt lat="48.00421" lon="7.21818">
        <ele>531</ele>
        <time>2019-04-30T18:49:34Z</time>
      </trkpt>
      <trkpt lat="48.00358" lon="7.2177">
        <ele>533</ele>
        <time>2019-04-30T18:50:34Z</time>
      </trkpt>
      <trkpt lat="48.00325" lon="7.21747">
        <ele>533</ele>
        <time>2019-04-30T18:51:34Z</time>
      </trkpt>
      <trkpt lat="48.00304" lon="7.21736">
        <ele>532</ele>
        <time>2019-04-30T18:52:34Z</time>
      </trkpt>
      <trkpt lat="48.00253" lon="7.21729">
        <ele>525</ele>
        <time>2019-04-30T18:53:34Z</time>
      </trkpt>
      <trkpt lat="48.00232" lon="7.21712">
        <ele>527</ele>
        <time>2019-04-30T18:54:34Z</time>
      </trkpt>
      <trkpt lat="48.00219" lon="7.21687">
        <ele>530</ele>
        <time>2019-04-30T18:55:34Z</time>
      </trkpt>
      <trkpt lat="48.00215" lon="7.21673">
        <ele>531</ele>
        <time>2019-04-30T18:56:34Z</time>
      </trkpt>
      <trkpt lat="48.00213" lon="7.21648">
        <ele>529</ele>
        <time>2019-04-30T18:57:34Z</time>
      </trkpt>
      <trkpt lat="48.00221" lon="7.21628">
        <ele>527</ele>
        <time>2019-04-30T18:58:34Z</time>
      </trkpt>
      <trkpt lat="48.00236" lon="7.21618">
        <ele>527</ele>
        <time>2019-04-30T18:59:34Z</time>
      </trkpt>
      <trkpt lat="48.00252" lon="7.21615">
        <ele>529</ele>
        <time>2019-04-30T19:00:34Z</time>
      </trkpt>
      <trkpt lat="48.00292" lon="7.21615">
        <ele>535</ele>
        <time>2019-04-30T19:01:34Z</time>
      </trkpt>
      <trkpt lat="48.00307" lon="7.21612">
        <ele>536</ele>
        <time>2019-04-30T19:02:34Z</time>
      </trkpt>
      <trkpt lat="48.00375" lon="7.2158">
        <ele>544</ele>
        <time>2019-04-30T19:03:34Z</time>
      </trkpt>
      <trkpt lat="48.00389" lon="7.21577">
        <ele>546</ele>
        <time>2019-04-30T19:04:34Z</time>
      </trkpt>
      <trkpt lat="48.004" lon="7.21578">
        <ele>549</ele>
        <time>2019-04-30T19:05:34Z</time>
      </trkpt>
      <trkpt lat="48.00426" lon="7.21586">
        <ele>554</ele>
        <time>2019-04-30T19:06:34Z</time>
      </trkpt>
      <trkpt lat="48.00449" lon="7.21588">
        <ele>557</ele>
        <time>2019-04-30T19:07:34Z</time>
      </trkpt>
      <trkpt lat="48.00463" lon="7.2158">
        <ele>559</ele>
        <time>2019-04-30T19:08:34Z</time>
      </trkpt>
      <trkpt lat="48.00473" lon="7.21564">
        <ele>561</ele>
        <time>2019-04-30T19:09:34Z</time>
      </trkpt>
      <trkpt lat="48.00481" lon="7.21538">
        <ele>562</ele>
        <time>2019-04-30T19:10:34Z</time>
      </trkpt>
      <trkpt lat="48.00481" lon="7.2148">
        <ele>562</ele>
        <time>2019-04-30T19:11:34Z</time>
      </trkpt>
      <trkpt lat="48.00485" lon="7.21448">
        <ele>564</ele>
        <time>2019-04-30T19:12:34Z</time>
      </trkpt>
      <trkpt lat="48.00496" lon="7.21419">
        <ele>566</ele>
        <time>2019-04-30T19:13:34Z</time>
      </trkpt>
      <trkpt lat="48.00511" lon="7.21394">
        <ele>570</ele>
        <time>2019-04-30T19:14:34Z</time>
      </trkpt>
      <trkpt lat="48.0056" lon="7.21327">
        <ele>580</ele>
        <time>2019-04-30T19:15:34Z</time>
      </trkpt>
      <trkpt lat="48.00568" lon="7.21309">
        <ele>583</ele>
        <time>2019-04-30T19:16:34Z</time>
      </trkpt>
      <trkpt lat="48.00571" lon="7.21285">
        <ele>585</ele>
        <time>2019-04-30T19:17:34Z</time>
      </trkpt>
      <trkpt lat="48.00568" lon="7.21273">
        <ele>586</ele>
        <time>2019-04-30T19:18:34Z</time>
      </trkpt>
      <trkpt lat="48.00556" lon="7.2127">
        <ele>586</ele>
        <time>2019-04-30T19:19:34Z</time>
      </trkpt>
      <trkpt lat="48.00537" lon="7.21275">
        <ele>584</ele>
        <time>2019-04-30T19:20:34Z</time>
      </trkpt>
      <trkpt lat="48.00498" lon="7.2128">
        <ele>580</ele>
        <time>2019-04-30T19:21:34Z</time>
      </trkpt>
      <trkpt lat="48.00477" lon="7.21287">
        <ele>578</ele>
        <time>2019-04-30T19:22:34Z</time>
      </trkpt>
      <trkpt lat="48.00458" lon="7.2129">
        <ele>577</ele>
        <time>2019-04-30T19:23:34Z</time>
      </trkpt>
      <trkpt lat="48.00435" lon="7.21275">
        <ele>578</ele>
        <time>2019-04-30T19:24:34Z</time>
      </trkpt>
      <trkpt lat="48.00425" lon="7.21254">
        <ele>580</ele>
        <time>2019-04-30T19:25:34Z</time>
      </trkpt>
      <trkpt lat="48.00416" lon="7.21222">
        <ele>582</ele>
        <time>2019-04-30T19:26:34Z</time>
      </trkpt>
      <trkpt lat="48.0041" lon="7.21182">
        <ele>585</ele>
        <time>2019-04-30T19:27:34Z</time>
      </trkpt>
      <trkpt lat="48.00403" lon="7.21123">
        <ele>587</ele>
        <time>2019-04-30T19:28:34Z</time>
      </trkpt>
      <trkpt lat="48.004" lon="7.21059">
        <ele>591</ele>
        <time>2019-04-30T19:29:34Z</time>
      </trkpt>
      <trkpt lat="48.00395" lon="7.21029">
        <ele>593</ele>
        <time>2019-04-30T19:30:34Z</time>
      </trkpt>
      <trkpt lat="48.00392" lon="7.20988">
        <ele>596</ele>
        <time>2019-04-30T19:31:34Z</time>
      </trkpt>
      <trkpt lat="48.00391" lon="7.20914">
        <ele>601</ele>
        <time>2019-04-30T19:32:34Z</time>
      </trkpt>
      <trkpt lat="48.00398" lon="7.20833">
        <ele>614</ele>
        <time>2019-04-30T19:33:34Z</time>
      </trkpt>
      <trkpt lat="48.00395" lon="7.20827">
        <ele>614</ele>
        <time>2019-04-30T19:34:34Z</time>
      </trkpt>
      <trkpt lat="48.00385" lon="7.20821">
        <ele>614</ele>
        <time>2019-04-30T19:35:34Z</time>
      </trkpt>
      <trkpt lat="48.00369" lon="7.20823">
        <ele>610</ele>
        <time>2019-04-30T19:36:34Z</time>
      </trkpt>
      <trkpt lat="48.0036" lon="7.20822">
        <ele>609</ele>
        <time>2019-04-30T19:37:34Z</time>
      </trkpt>
      <trkpt lat="48.00349" lon="7.20817">
        <ele>608</ele>
        <time>2019-04-30T19:38:34Z</time>
      </trkpt>
      <trkpt lat="48.0034" lon="7.20809">
        <ele>607</ele>
        <time>2019-04-30T19:39:34Z</time>
      </trkpt>
      <trkpt lat="48.00312" lon="7.20773">
        <ele>607</ele>
        <time>2019-04-30T19:40:34Z</time>
      </trkpt>
      <trkpt lat="48.00298" lon="7.20751">
        <ele>607</ele>
        <time>2019-04-30T19:41:34Z</time>
      </trkpt>
      <trkpt lat="48.00289" lon="7.20724">
        <ele>608</ele>
        <time>2019-04-30T19:42:34Z</time>
      </trkpt>
      <trkpt lat="48.00283" lon="7.20688">
        <ele>610</ele>
        <time>2019-04-30T19:43:34Z</time>
      </trkpt>
      <trkpt lat="48.00285" lon="7.20656">
        <ele>615</ele>
        <time>2019-04-30T19:44:34Z</time>
      </trkpt>
      <trkpt lat="48.0029" lon="7.20638">
        <ele>619</ele>
        <time>2019-04-30T19:45:34Z</time>
      </trkpt>
      <trkpt lat="48.00294" lon="7.20607">
        <ele>625</ele>
        <time>2019-04-30T19:46:34Z</time>
      </trkpt>
      <trkpt lat="48.00289" lon="7.20587">
        <ele>626</ele>
        <time>2019-04-30T19:47:34Z</time>
      </trkpt>
      <trkpt lat="48.00279" lon="7.2058">
        <ele>626</ele>
        <time>2019-04-30T19:48:34Z</time>
      </trkpt>
      <trkpt lat="48.00268" lon="7.20576">
        <ele>624</ele>
        <time>2019-04-30T19:49:34Z</time>
      </trkpt>
      <trkpt lat="48.00231" lon="7.20585">
        <ele>615</ele>
        <time>2019-04-30T19:50:34Z</time>
      </trkpt>
      <trkpt lat="48.00204" lon="7.20587">
        <ele>611</ele>
        <time>2019-04-30T19:51:34Z</time>
      </trkpt>
      <trkpt lat="48.00189" lon="7.20574">
        <ele>612</ele>
        <time>2019-04-30T19:52:34Z</time>
      </trkpt>
      <trkpt lat="48.00184" lon="7.20565">
        <ele>614</ele>
        <time>2019-04-30T19:53:34Z</time>
      </trkpt>
      <trkpt lat="48.00169" lon="7.20529">
        <ele>621</ele>
        <time>2019-04-30T19:54:34Z</time>
      </trkpt>
      <trkpt lat="48.00157" lon="7.20491">
        <ele>627</ele>
        <time>2019-04-30T19:55:34Z</time>
      </trkpt>
      <trkpt lat="48.00127" lon="7.20346">
        <ele>640</ele>
        <time>2019-04-30T19:56:34Z</time>
      </trkpt>
      <trkpt lat="48.00126" lon="7.20326">
        <ele>641</ele>
        <time>2019-04-30T19:57:34Z</time>
      </trkpt>
      <trkpt lat="48.00131" lon="7.20252">
        <ele>647</ele>
        <time>2019-04-30T19:58:34Z</time>
      </trkpt>
      <trkpt lat="48.00132" lon="7.20145">
        <ele>655</ele>
        <time>2019-04-30T19:59:34Z</time>
      </trkpt>
      <trkpt lat="48.0013" lon="7.20129">
        <ele>657</ele>
        <time>2019-04-30T20:00:34Z</time>
      </trkpt>
      <trkpt lat="48.00118" lon="7.20091">
        <ele>659</ele>
        <time>2019-04-30T20:01:34Z</time>
      </trkpt>
      <trkpt lat="48.00088" lon="7.20018">
        <ele>660</ele>
        <time>2019-04-30T20:02:34Z</time>
      </trkpt>
      <trkpt lat="48.00088" lon="7.20001">
        <ele>663</ele>
        <time>2019-04-30T20:03:34Z</time>
      </trkpt>
      <trkpt lat="48.00092" lon="7.19987">
        <ele>667</ele>
        <time>2019-04-30T20:04:34Z</time>
      </trkpt>
      <trkpt lat="48.00095" lon="7.19953">
        <ele>675</ele>
        <time>2019-04-30T20:05:34Z</time>
      </trkpt>
      <trkpt lat="48.00094" lon="7.1995">
        <ele>675</ele>
        <time>2019-04-30T20:06:34Z</time>
      </trkpt>
      <trkpt lat="48.00082" lon="7.19945">
        <ele>674</ele>
        <time>2019-04-30T20:07:34Z</time>
      </trkpt>
      <trkpt lat="48.00056" lon="7.19951">
        <ele>669</ele>
        <time>2019-04-30T20:08:34Z</time>
      </trkpt>
      <trkpt lat="48.00034" lon="7.19947">
        <ele>667</ele>
        <time>2019-04-30T20:09:34Z</time>
      </trkpt>
      <trkpt lat="48.00014" lon="7.19933">
        <ele>667</ele>
        <time>2019-04-30T20:10:34Z</time>
      </trkpt>
      <trkpt lat="48.00005" lon="7.19923">
        <ele>668</ele>
        <time>2019-04-30T20:11:34Z</time>
      </trkpt>
      <trkpt lat="47.99989" lon="7.19891">
        <ele>672</ele>
        <time>2019-04-30T20:12:34Z</time>
      </trkpt>
      <trkpt lat="47.99974" lon="7.19827">
        <ele>679</ele>
        <time>2019-04-30T20:13:34Z</time>
      </trkpt>
      <trkpt lat="47.99957" lon="7.19779">
        <ele>680</ele>
        <time>2019-04-30T20:14:34Z</time>
      </trkpt>
      <trkpt lat="47.99936" lon="7.19676">
        <ele>685</ele>
        <time>2019-04-30T20:15:34Z</time>
      </trkpt>
      <trkpt lat="47.99935" lon="7.1961">
        <ele>689</ele>
        <time>2019-04-30T20:16:34Z</time>
      </trkpt>
      <trkpt lat="47.99928" lon="7.19552">
        <ele>687</ele>
        <time>2019-04-30T20:17:34Z</time>
      </trkpt>
      <trkpt lat="47.99939" lon="7.19495">
        <ele>693</ele>
        <time>2019-04-30T20:18:34Z</time>
      </trkpt>
      <trkpt lat="47.99942" lon="7.19462">
        <ele>697</ele>
        <time>2019-04-30T20:19:34Z</time>
      </trkpt>
      <trkpt lat="47.99942" lon="7.19428">
        <ele>698</ele>
        <time>2019-04-30T20:20:34Z</time>
      </trkpt>
      <trkpt lat="47.99937" lon="7.19357">
        <ele>705</ele>
        <time>2019-04-30T20:21:34Z</time>
      </trkpt>
      <trkpt lat="47.99929" lon="7.19279">
        <ele>711</ele>
        <time>2019-04-30T20:22:34Z</time>
      </trkpt>
      <trkpt lat="47.99915" lon="7.19204">
        <ele>715</ele>
        <time>2019-04-30T20:23:34Z</time>
      </trkpt>
      <trkpt lat="47.99911" lon="7.19156">
        <ele>719</ele>
        <time>2019-04-30T20:24:34Z</time>
      </trkpt>
      <trkpt lat="47.99885" lon="7.18977">
        <ele>722</ele>
        <time>2019-04-30T20:25:34Z</time>
      </trkpt>
      <trkpt lat="47.99885" lon="7.18928">
        <ele>722</ele>
        <time>2019-04-30T20:26:34Z</time>
      </trkpt>
      <trkpt lat="47.99906" lon="7.18876">
        <ele>730</ele>
        <time>2019-04-30T20:27:34Z</time>
      </trkpt>
      <trkpt lat="47.9991" lon="7.1884">
        <ele>731</ele>
        <time>2019-04-30T20:28:34Z</time>
      </trkpt>
      <trkpt lat="47.99905" lon="7.18819">
        <ele>728</ele>
        <time>2019-04-30T20:29:34Z</time>
      </trkpt>
      <trkpt lat="47.99903" lon="7.1877">
        <ele>725</ele>
        <time>2019-04-30T20:30:34Z</time>
      </trkpt>
      <trkpt lat="47.99912" lon="7.18736">
        <ele>727</ele>
        <time>2019-04-30T20:31:34Z</time>
      </trkpt>
      <trkpt lat="47.99916" lon="7.18696">
        <ele>728</ele>
        <time>2019-04-30T20:32:34Z</time>
      </trkpt>
      <trkpt lat="47.99923" lon="7.18672">
        <ele>728</ele>
        <time>2019-04-30T20:33:34Z</time>
      </trkpt>
      <trkpt lat="47.99926" lon="7.18647">
        <ele>727</ele>
        <time>2019-04-30T20:34:34Z</time>
      </trkpt>
      <trkpt lat="47.99921" lon="7.1861">
        <ele>726</ele>
        <time>2019-04-30T20:35:34Z</time>
      </trkpt>
      <trkpt lat="47.99923" lon="7.18554">
        <ele>724</ele>
        <time>2019-04-30T20:36:34Z</time>
      </trkpt>
      <trkpt lat="47.99931" lon="7.18529">
        <ele>721</ele>
        <time>2019-04-30T20:37:34Z</time>
      </trkpt>
      <trkpt lat="47.99942" lon="7.18513">
        <ele>719</ele>
        <time>2019-04-30T20:38:34Z</time>
      </trkpt>
      <trkpt lat="47.99949" lon="7.18514">
        <ele>718</ele>
        <time>2019-04-30T20:39:34Z</time>
      </trkpt>
      <trkpt lat="47.99961" lon="7.18523">
        <ele>717</ele>
        <time>2019-04-30T20:40:34Z</time>
      </trkpt>
      <trkpt lat="48.00009" lon="7.18569">
        <ele>715</ele>
        <time>2019-04-30T20:41:34Z</time>
      </trkpt>
      <trkpt lat="48.00099" lon="7.18702">
        <ele>711</ele>
        <time>2019-04-30T20:42:34Z</time>
      </trkpt>
      <trkpt lat="48.00111" lon="7.18725">
        <ele>710</ele>
        <time>2019-04-30T20:43:34Z</time>
      </trkpt>
      <trkpt lat="48.00121" lon="7.18752">
        <ele>709</ele>
        <time>2019-04-30T20:44:34Z</time>
      </trkpt>
      <trkpt lat="48.00136" lon="7.18812">
        <ele>706</ele>
        <time>2019-04-30T20:45:34Z</time>
      </trkpt>
      <trkpt lat="48.00169" lon="7.18988">
        <ele>699</ele>
        <time>2019-04-30T20:46:34Z</time>
      </trkpt>
      <trkpt lat="48.00192" lon="7.1906">
        <ele>696</ele>
        <time>2019-04-30T20:47:34Z</time>
      </trkpt>
      <trkpt lat="48.00212" lon="7.1911">
        <ele>694</ele>
        <time>2019-04-30T20:48:34Z</time>
      </trkpt>
      <trkpt lat="48.00236" lon="7.19152">
        <ele>692</ele>
        <time>2019-04-30T20:49:34Z</time>
      </trkpt>
      <trkpt lat="48.00257" lon="7.19178">
        <ele>692</ele>
        <time>2019-04-30T20:50:34Z</time>
      </trkpt>
      <trkpt lat="48.00267" lon="7.19186">
        <ele>692</ele>
        <time>2019-04-30T20:51:34Z</time>
      </trkpt>
      <trkpt lat="48.0028" lon="7.19192">
        <ele>692</ele>
        <time>2019-04-30T20:52:34Z</time>
      </trkpt>
      <trkpt lat="48.00317" lon="7.19195">
        <ele>690</ele>
        <time>2019-04-30T20:53:34Z</time>
      </trkpt>
      <trkpt lat="48.00366" lon="7.19185">
        <ele>686</ele>
        <time>2019-04-30T20:54:34Z</time>
      </trkpt>
      <trkpt lat="48.00416" lon="7.19171">
        <ele>680</ele>
        <time>2019-04-30T20:55:34Z</time>
      </trkpt>
      <trkpt lat="48.00472" lon="7.1916">
        <ele>677</ele>
        <time>2019-04-30T20:56:34Z</time>
      </trkpt>
      <trkpt lat="48.00529" lon="7.1915">
        <ele>672</ele>
        <time>2019-04-30T20:57:34Z</time>
      </trkpt>
      <trkpt lat="48.00574" lon="7.19145">
        <ele>667</ele>
        <time>2019-04-30T20:58:34Z</time>
      </trkpt>
      <trkpt lat="48.00627" lon="7.19127">
        <ele>661</ele>
        <time>2019-04-30T20:59:34Z</time>
      </trkpt>
      <trkpt lat="48.00657" lon="7.19121">
        <ele>659</ele>
        <time>2019-04-30T21:00:34Z</time>
      </trkpt>
      <trkpt lat="48.00696" lon="7.19109">
        <ele>658</ele>
        <time>2019-04-30T21:01:34Z</time>
      </trkpt>
      <trkpt lat="48.00717" lon="7.19097">
        <ele>658</ele>
        <time>2019-04-30T21:02:34Z</time>
      </trkpt>
      <trkpt lat="48.00726" lon="7.19089">
        <ele>657</ele>
        <time>2019-04-30T21:03:34Z</time>
      </trkpt>
      <trkpt lat="48.0074" lon="7.19068">
        <ele>655</ele>
        <time>2019-04-30T21:04:34Z</time>
      </trkpt>
      <trkpt lat="48.00743" lon="7.19053">
        <ele>654</ele>
        <time>2019-04-30T21:05:34Z</time>
      </trkpt>
      <trkpt lat="48.00742" lon="7.19026">
        <ele>649</ele>
        <time>2019-04-30T21:06:34Z</time>
      </trkpt>
      <trkpt lat="48.00745" lon="7.18997">
        <ele>646</ele>
        <time>2019-04-30T21:07:34Z</time>
      </trkpt>
      <trkpt lat="48.0077" lon="7.18923">
        <ele>634</ele>
        <time>2019-04-30T21:08:34Z</time>
      </trkpt>
      <trkpt lat="48.00792" lon="7.18895">
        <ele>630</ele>
        <time>2019-04-30T21:09:34Z</time>
      </trkpt>
      <trkpt lat="48.00841" lon="7.18863">
        <ele>627</ele>
        <time>2019-04-30T21:10:34Z</time>
      </trkpt>
      <trkpt lat="48.0086" lon="7.18821">
        <ele>619</ele>
        <time>2019-04-30T21:11:34Z</time>
      </trkpt>
      <trkpt lat="48.00863" lon="7.18809">
        <ele>615</ele>
        <time>2019-04-30T21:12:34Z</time>
      </trkpt>
      <trkpt lat="48.00873" lon="7.1879">
        <ele>611</ele>
        <time>2019-04-30T21:13:34Z</time>
      </trkpt>
      <trkpt lat="48.00888" lon="7.18771">
        <ele>608</ele>
        <time>2019-04-30T21:14:34Z</time>
      </trkpt>
      <trkpt lat="48.0091" lon="7.18753">
        <ele>605</ele>
        <time>2019-04-30T21:15:34Z</time>
      </trkpt>
      <trkpt lat="48.00919" lon="7.1875">
        <ele>605</ele>
        <time>2019-04-30T21:16:34Z</time>
      </trkpt>
      <trkpt lat="48.00944" lon="7.18732">
        <ele>600</ele>
        <time>2019-04-30T21:17:34Z</time>
      </trkpt>
      <trkpt lat="48.00989" lon="7.18696">
        <ele>589</ele>
        <time>2019-04-30T21:18:34Z</time>
      </trkpt>
      <trkpt lat="48.01023" lon="7.18696">
        <ele>589</ele>
        <time>2019-04-30T21:19:34Z</time>
      </trkpt>
      <trkpt lat="48.01046" lon="7.187">
        <ele>589</ele>
        <time>2019-04-30T21:20:34Z</time>
      </trkpt>
      <trkpt lat="48.01075" lon="7.18711">
        <ele>592</ele>
        <time>2019-04-30T21:21:34Z</time>
      </trkpt>
      <trkpt lat="48.01169" lon="7.18728">
        <ele>584</ele>
        <time>2019-04-30T21:22:34Z</time>
      </trkpt>
      <trkpt lat="48.01209" lon="7.18755">
        <ele>587</ele>
        <time>2019-04-30T21:23:34Z</time>
      </trkpt>
      <trkpt lat="48.01269" lon="7.18815">
        <ele>591</ele>
        <time>2019-04-30T21:24:34Z</time>
      </trkpt>
      <trkpt lat="48.01329" lon="7.18886">
        <ele>578</ele>
        <time>2019-04-30T21:25:34Z</time>
      </trkpt>
      <trkpt lat="48.01366" lon="7.18987">
        <ele>580</ele>
        <time>2019-04-30T21:26:34Z</time>
      </trkpt>
      <trkpt lat="48.01373" lon="7.18999">
        <ele>579</ele>
        <time>2019-04-30T21:27:34Z</time>
      </trkpt>
      <trkpt lat="48.01397" lon="7.19026">
        <ele>578</ele>
        <time>2019-04-30T21:28:34Z</time>
      </trkpt>
      <trkpt lat="48.01465" lon="7.19068">
        <ele>565</ele>
        <time>2019-04-30T21:29:34Z</time>
      </trkpt>
      <trkpt lat="48.01482" lon="7.19083">
        <ele>562</ele>
        <time>2019-04-30T21:30:34Z</time>
      </trkpt>
      <trkpt lat="48.01522" lon="7.19135">
        <ele>542</ele>
        <time>2019-04-30T21:31:34Z</time>
      </trkpt>
      <trkpt lat="48.01534" lon="7.19156">
        <ele>534</ele>
        <time>2019-04-30T21:32:34Z</time>
      </trkpt>
      <trkpt lat="48.01537" lon="7.19168">
        <ele>531</ele>
        <time>2019-04-30T21:33:34Z</time>
      </trkpt>
      <trkpt lat="48.01529" lon="7.1922">
        <ele>527</ele>
        <time>2019-04-30T21:34:34Z</time>
      </trkpt>
      <trkpt lat="48.01476" lon="7.19348">
        <ele>530</ele>
        <time>2019-04-30T21:35:34Z</time>
      </trkpt>
      <trkpt lat="48.01453" lon="7.19396">
        <ele>527</ele>
        <time>2019-04-30T21:36:34Z</time>
      </trkpt>
      <trkpt lat="48.01397" lon="7.19455">
        <ele>529</ele>
        <time>2019-04-30T21:37:34Z</time>
      </trkpt>
      <trkpt lat="48.01322" lon="7.19546">
        <ele>527</ele>
        <time>2019-04-30T21:38:34Z</time>
      </trkpt>
      <trkpt lat="48.01294" lon="7.19584">
        <ele>524</ele>
        <time>2019-04-30T21:39:34Z</time>
      </trkpt>
      <trkpt lat="48.01202" lon="7.19666">
        <ele>539</ele>
        <time>2019-04-30T21:40:34Z</time>
      </trkpt>
      <trkpt lat="48.01185" lon="7.19674">
        <ele>545</ele>
        <time>2019-04-30T21:41:34Z</time>
      </trkpt>
      <trkpt lat="48.01186" lon="7.19677">
        <ele>546</ele>
        <time>2019-04-30T21:42:34Z</time>
      </trkpt>
      <trkpt lat="48.01195" lon="7.19679">
        <ele>544</ele>
        <time>2019-04-30T21:43:34Z</time>
      </trkpt>
      <trkpt lat="48.01214" lon="7.19678">
        <ele>540</ele>
        <time>2019-04-30T21:44:34Z</time>
      </trkpt>
      <trkpt lat="48.01258" lon="7.19671">
        <ele>528</ele>
        <time>2019-04-30T21:45:34Z</time>
      </trkpt>
      <trkpt lat="48.01277" lon="7.19673">
        <ele>525</ele>
        <time>2019-04-30T21:46:34Z</time>
      </trkpt>
      <trkpt lat="48.01291" lon="7.1969">
        <ele>525</ele>
        <time>2019-04-30T21:47:34Z</time>
      </trkpt>
      <trkpt lat="48.01303" lon="7.19713">
        <ele>526</ele>
        <time>2019-04-30T21:48:34Z</time>
      </trkpt>
      <trkpt lat="48.01311" lon="7.19721">
        <ele>525</ele>
        <time>2019-04-30T21:49:34Z</time>
      </trkpt>
      <trkpt lat="48.01321" lon="7.19724">
        <ele>523</ele>
        <time>2019-04-30T21:50:34Z</time>
      </trkpt>
      <trkpt lat="48.01333" lon="7.19723">
        <ele>520</ele>
        <time>2019-04-30T21:51:34Z</time>
      </trkpt>
      <trkpt lat="48.01359" lon="7.19712">
        <ele>525</ele>
        <time>2019-04-30T21:52:34Z</time>
      </trkpt>
      <trkpt lat="48.01374" lon="7.197">
        <ele>526</ele>
        <time>2019-04-30T21:53:34Z</time>
      </trkpt>
      <trkpt lat="48.01396" lon="7.19675">
        <ele>524</ele>
        <time>2019-04-30T21:54:34Z</time>
      </trkpt>
      <trkpt lat="48.0143" lon="7.19622">
        <ele>515</ele>
        <time>2019-04-30T21:55:34Z</time>
      </trkpt>
      <trkpt lat="48.01466" lon="7.19588">
        <ele>506</ele>
        <time>2019-04-30T21:56:34Z</time>
      </trkpt>
      <trkpt lat="48.01508" lon="7.19565">
        <ele>502</ele>
        <time>2019-04-30T21:57:34Z</time>
      </trkpt>
      <trkpt lat="48.01554" lon="7.19553">
        <ele>503</ele>
        <time>2019-04-30T21:58:34Z</time>
      </trkpt>
      <trkpt lat="48.01566" lon="7.19543">
        <ele>501</ele>
        <time>2019-04-30T21:59:34Z</time>
      </trkpt>
      <trkpt lat="48.01598" lon="7.19503">
        <ele>491</ele>
        <time>2019-04-30T22:00:34Z</time>
      </trkpt>
      <trkpt lat="48.01619" lon="7.19481">
        <ele>489</ele>
        <time>2019-04-30T22:01:34Z</time>
      </trkpt>
      <trkpt lat="48.01663" lon="7.19453">
        <ele>485</ele>
        <time>2019-04-30T22:02:34Z</time>
      </trkpt>
      <trkpt lat="48.01685" lon="7.19426">
        <ele>481</ele>
        <time>2019-04-30T22:03:34Z</time>
      </trkpt>
      <trkpt lat="48.01744" lon="7.19313">
        <ele>469</ele>
        <time>2019-04-30T22:04:34Z</time>
      </trkpt>
      <trkpt lat="48.0176" lon="7.19289">
        <ele>464</ele>
        <time>2019-04-30T22:05:34Z</time>
      </trkpt>
      <trkpt lat="48.01769" lon="7.1928">
        <ele>463</ele>
        <time>2019-04-30T22:06:34Z</time>
      </trkpt>
      <trkpt lat="48.01792" lon="7.19264">
        <ele>462</ele>
        <time>2019-04-30T22:07:34Z</time>
      </trkpt>
      <trkpt lat="48.01831" lon="7.19225">
        <ele>457</ele>
        <time>2019-04-30T22:08:34Z</time>
      </trkpt>
      <trkpt lat="48.0184" lon="7.1922">
        <ele>455</ele>
        <time>2019-04-30T22:09:34Z</time>
      </trkpt>
      <trkpt lat="48.01858" lon="7.19218">
        <ele>453</ele>
        <time>2019-04-30T22:10:34Z</time>
      </trkpt>
      <trkpt lat="48.01874" lon="7.19226">
        <ele>453</ele>
        <time>2019-04-30T22:11:34Z</time>
      </trkpt>
      <trkpt lat="48.01901" lon="7.19255">
        <ele>458</ele>
        <time>2019-04-30T22:12:34Z</time>
      </trkpt>
      <trkpt lat="48.0191" lon="7.19269">
        <ele>461</ele>
        <time>2019-04-30T22:13:34Z</time>
      </trkpt>
      <trkpt lat="48.01941" lon="7.19334">
        <ele>468</ele>
        <time>2019-04-30T22:14:34Z</time>
      </trkpt>
      <trkpt lat="48.01989" lon="7.19411">
        <ele>465</ele>
        <time>2019-04-30T22:15:34Z</time>
      </trkpt>
      <trkpt lat="48.02091" lon="7.19537">
        <ele>458</ele>
        <time>2019-04-30T22:16:34Z</time>
      </trkpt>
      <trkpt lat="48.02134" lon="7.19578">
        <ele>452</ele>
        <time>2019-04-30T22:17:34Z</time>
      </trkpt>
      <trkpt lat="48.02157" lon="7.19605">
        <ele>447</ele>
        <time>2019-04-30T22:18:34Z</time>
      </trkpt>
      <trkpt lat="48.02167" lon="7.19621">
        <ele>445</ele>
        <time>2019-04-30T22:19:34Z</time>
      </trkpt>
      <trkpt lat="48.02174" lon="7.19638">
        <ele>443</ele>
        <time>2019-04-30T22:20:34Z</time>
      </trkpt>
      <trkpt lat="48.02188" lon="7.1969">
        <ele>441</ele>
        <time>2019-04-30T22:21:34Z</time>
      </trkpt>
      <trkpt lat="48.02201" lon="7.1972">
        <ele>438</ele>
        <time>2019-04-30T22:22:34Z</time>
      </trkpt>
      <trkpt lat="48.02228" lon="7.19771">
        <ele>434</ele>
        <time>2019-04-30T22:23:34Z</time>
      </trkpt>
      <trkpt lat="48.02239" lon="7.19801">
        <ele>434</ele>
        <time>2019-04-30T22:24:34Z</time>
      </trkpt>
      <trkpt lat="48.02268" lon="7.19855">
        <ele>432</ele>
        <time>2019-04-30T22:25:34Z</time>
      </trkpt>
      <trkpt lat="48.02323" lon="7.19935">
        <ele>428</ele>
        <time>2019-04-30T22:26:34Z</time>
      </trkpt>
      <trkpt lat="48.02336" lon="7.1994">
        <ele>426</ele>
        <time>2019-04-30T22:27:34Z</time>
      </trkpt>
      <trkpt lat="48.0235" lon="7.19941">
        <ele>426</ele>
        <time>2019-04-30T22:28:34Z</time>
      </trkpt>
      <trkpt lat="48.02364" lon="7.19938">
        <ele>426</ele>
        <time>2019-04-30T22:29:34Z</time>
      </trkpt>
      <trkpt lat="48.02396" lon="7.19911">
        <ele>422</ele>
        <time>2019-04-30T22:30:34Z</time>
      </trkpt>
      <trkpt lat="48.0241" lon="7.19862">
        <ele>416</ele>
        <time>2019-04-30T22:31:34Z</time>
      </trkpt>
      <trkpt lat="48.02428" lon="7.19818">
        <ele>408</ele>
        <time>2019-04-30T22:32:34Z</time>
      </trkpt>
      <trkpt lat="48.02435" lon="7.19807">
        <ele>404</ele>
        <time>2019-04-30T22:33:34Z</time>
      </trkpt>
      <trkpt lat="48.02451" lon="7.19794">
        <ele>399</ele>
        <time>2019-04-30T22:34:34Z</time>
      </trkpt>
      <trkpt lat="48.0247" lon="7.19788">
        <ele>395</ele>
        <time>2019-04-30T22:35:34Z</time>
      </trkpt>
      <trkpt lat="48.0248" lon="7.19789">
        <ele>393</ele>
        <time>2019-04-30T22:36:34Z</time>
      </trkpt>
      <trkpt lat="48.0254" lon="7.19808">
        <ele>388</ele>
        <time>2019-04-30T22:37:34Z</time>
      </trkpt>
      <trkpt lat="48.02565" lon="7.1982">
        <ele>385</ele>
        <time>2019-04-30T22:38:34Z</time>
      </trkpt>
      <trkpt lat="48.02651" lon="7.19874">
        <ele>381</ele>
        <time>2019-04-30T22:39:34Z</time>
      </trkpt>
      <trkpt lat="48.02687" lon="7.19892">
        <ele>377</ele>
        <time>2019-04-30T22:40:34Z</time>
      </trkpt>
      <trkpt lat="48.02713" lon="7.19899">
        <ele>374</ele>
        <time>2019-04-30T22:41:34Z</time>
      </trkpt>
      <trkpt lat="48.02817" lon="7.19918">
        <ele>365</ele>
        <time>2019-04-30T22:42:34Z</time>
      </trkpt>
      <trkpt lat="48.02846" lon="7.1992">
        <ele>363</ele>
        <time>2019-04-30T22:43:34Z</time>
      </trkpt>
      <trkpt lat="48.02873" lon="7.19928">
        <ele>362</ele>
        <time>2019-04-30T22:44:34Z</time>
      </trkpt>
      <trkpt lat="48.02912" lon="7.19935">
        <ele>359</ele>
        <time>2019-04-30T22:45:34Z</time>
      </trkpt>
      <trkpt lat="48.02948" lon="7.19949">
        <ele>357</ele>
        <time>2019-04-30T22:46:34Z</time>
      </trkpt>
      <trkpt lat="48.02979" lon="7.19968">
        <ele>356</ele>
        <time>2019-04-30T22:47:34Z</time>
      </trkpt>
      <trkpt lat="48.03028" lon="7.20003">
        <ele>354</ele>
        <time>2019-04-30T22:48:34Z</time>
      </trkpt>
      <trkpt lat="48.0305" lon="7.20015">
        <ele>353</ele>
        <time>2019-04-30T22:49:34Z</time>
      </trkpt>
      <trkpt lat="48.03106" lon="7.20038">
        <ele>349</ele>
        <time>2019-04-30T22:50:34Z</time>
      </trkpt>
      <trkpt lat="48.03125" lon="7.20049">
        <ele>349</ele>
        <time>2019-04-30T22:51:34Z</time>
      </trkpt>
      <trkpt lat="48.03143" lon="7.20064">
        <ele>348</ele>
        <time>2019-04-30T22:52:34Z</time>
      </trkpt>
      <trkpt lat="48.03167" lon="7.20089">
        <ele>348</ele>
        <time>2019-04-30T22:53:34Z</time>
      </trkpt>
      <trkpt lat="48.03249" lon="7.20216">
        <ele>353</ele>
        <time>2019-04-30T22:54:34Z</time>
      </trkpt>
      <trkpt lat="48.03288" lon="7.20264">
        <ele>356</ele>
        <time>2019-04-30T22:55:34Z</time>
      </trkpt>
      <trkpt lat="48.03307" lon="7.20277">
        <ele>357</ele>
        <time>2019-04-30T22:56:34Z</time>
      </trkpt>
      <trkpt lat="48.03313" lon="7.20279">
        <ele>357</ele>
        <time>2019-04-30T22:57:34Z</time>
      </trkpt>
      <trkpt lat="48.03383" lon="7.20283">
        <ele>349</ele>
        <time>2019-04-30T22:58:34Z</time>
      </trkpt>
      <trkpt lat="48.0344" lon="7.20302">
        <ele>346</ele>
        <time>2019-04-30T22:59:34Z</time>
      </trkpt>
      <trkpt lat="48.0362" lon="7.20376">
        <ele>341</ele>
        <time>2019-04-30T23:00:34Z</time>
      </trkpt>
      <trkpt lat="48.03667" lon="7.20386">
        <ele>341</ele>
        <time>2019-04-30T23:01:34Z</time>
      </trkpt>
      <trkpt lat="48.03711" lon="7.20387">
        <ele>340</ele>
        <time>2019-04-30T23:02:34Z</time>
      </trkpt>
      <trkpt lat="48.03744" lon="7.20379">
        <ele>339</ele>
        <time>2019-04-30T23:03:34Z</time>
      </trkpt>
      <trkpt lat="48.03753" lon="7.20374">
        <ele>339</ele>
        <time>2019-04-30T23:04:34Z</time>
      </trkpt>
      <trkpt lat="48.03762" lon="7.20364">
        <ele>338</ele>
        <time>2019-04-30T23:05:34Z</time>
      </trkpt>
      <trkpt lat="48.03773" lon="7.20343">
        <ele>337</ele>
        <time>2019-04-30T23:06:34Z</time>
      </trkpt>
      <trkpt lat="48.03783" lon="7.20331">
        <ele>336</ele>
        <time>2019-04-30T23:07:34Z</time>
      </trkpt>
      <trkpt lat="48.03801" lon="7.20322">
        <ele>336</ele>
        <time>2019-04-30T23:08:34Z</time>
      </trkpt>
      <trkpt lat="48.03903" lon="7.20333">
        <ele>334</ele>
        <time>2019-04-30T23:09:34Z</time>
      </trkpt>
      <trkpt lat="48.04061" lon="7.20342">
        <ele>331</ele>
        <time>2019-04-30T23:10:34Z</time>
      </trkpt>
      <trkpt lat="48.04083" lon="7.20345">
        <ele>331</ele>
        <time>2019-04-30T23:11:34Z</time>
      </trkpt>
      <trkpt lat="48.04116" lon="7.20354">
        <ele>330</ele>
        <time>2019-04-30T23:12:34Z</time>
      </trkpt>
      <trkpt lat="48.04181" lon="7.20377">
        <ele>327</ele>
        <time>2019-04-30T23:13:34Z</time>
      </trkpt>
      <trkpt lat="48.04229" lon="7.20399">
        <ele>324</ele>
        <time>2019-04-30T23:14:34Z</time>
      </trkpt>
      <trkpt lat="48.04256" lon="7.20416">
        <ele>322</ele>
        <time>2019-04-30T23:15:34Z</time>
      </trkpt>
      <trkpt lat="48.04282" lon="7.20436">
        <ele>323</ele>
        <time>2019-04-30T23:16:34Z</time>
      </trkpt>
      <trkpt lat="48.04355" lon="7.20502">
        <ele>318</ele>
        <time>2019-04-30T23:17:34Z</time>
      </trkpt>
      <trkpt lat="48.04398" lon="7.20566">
        <ele>316</ele>
        <time>2019-04-30T23:18:34Z</time>
      </trkpt>
      <trkpt lat="48.04457" lon="7.20642">
        <ele>312</ele>
        <time>2019-04-30T23:19:34Z</time>
      </trkpt>
      <trkpt lat="48.04491" lon="7.20704">
        <ele>311</ele>
        <time>2019-04-30T23:20:34Z</time>
      </trkpt>
      <trkpt lat="48.04513" lon="7.20735">
        <ele>311</ele>
        <time>2019-04-30T23:21:34Z</time>
      </trkpt>
      <trkpt lat="48.04539" lon="7.20764">
        <ele>310</ele>
        <time>2019-04-30T23:22:34Z</time>
      </trkpt>
      <trkpt lat="48.04571" lon="7.2079">
        <ele>309</ele>
        <time>2019-04-30T23:23:34Z</time>
      </trkpt>
      <trkpt lat="48.04611" lon="7.20791">
        <ele>309</ele>
        <time>2019-04-30T23:24:34Z</time>
      </trkpt>
      <trkpt lat="48.04613" lon="7.20793">
        <ele>309</ele>
        <time>2019-04-30T23:25:34Z</time>
      </trkpt>
      <trkpt lat="48.04664" lon="7.20897">
        <ele>309</ele>
        <time>2019-04-30T23:26:34Z</time>
      </trkpt>
      <trkpt lat="48.04678" lon="7.20915">
        <ele>309</ele>
        <time>2019-04-30T23:27:34Z</time>
      </trkpt>
      <trkpt lat="48.04692" lon="7.20901">
        <ele>309</ele>
        <time>2019-04-30T23:28:34Z</time>
      </trkpt>
      <trkpt lat="48.04726" lon="7.20856">
        <ele>308</ele>
        <time>2019-04-30T23:29:34Z</time>
      </trkpt>
      <trkpt lat="48.04765" lon="7.20824">
        <ele>307</ele>
        <time>2019-04-30T23:30:34Z</time>
      </trkpt>
      <trkpt lat="48.04769" lon="7.2081">
        <ele>307</ele>
        <time>2019-04-30T23:31:34Z</time>
      </trkpt>
      <trkpt lat="48.04768" lon="7.20798">
        <ele>306</ele>
        <time>2019-04-30T23:32:34Z</time>
      </trkpt>
      <trkpt lat="48.04756" lon="7.20778">
        <ele>306</ele>
        <time>2019-04-30T23:33:34Z</time>
      </trkpt>
      <trkpt lat="48.0474" lon="7.20737">
        <ele>305</ele>
        <time>2019-04-30T23:34:34Z</time>
      </trkpt>
      <trkpt lat="48.04721" lon="7.20609">
        <ele>305</ele>
        <time>2019-04-30T23:35:34Z</time>
      </trkpt>
      <trkpt lat="48.04638" lon="7.20299">
        <ele>310</ele>
        <time>2019-04-30T23:36:34Z</time>
      </trkpt>
      <trkpt lat="48.0462" lon="7.20222">
        <ele>311</ele>
        <time>2019-04-30T23:37:34Z</time>
      </trkpt>
      <trkpt lat="48.04608" lon="7.2016">
        <ele>311</ele>
        <time>2019-04-30T23:38:34Z</time>
      </trkpt>
      <trkpt lat="48.04598" lon="7.20063">
        <ele>312</ele>
        <time>2019-04-30T23:39:34Z</time>
      </trkpt>
      <trkpt lat="48.04591" lon="7.20017">
        <ele>313</ele>
        <time>2019-04-30T23:40:34Z</time>
      </trkpt>
      <trkpt lat="48.0457" lon="7.19935">
        <ele>314</ele>
        <time>2019-04-30T23:41:34Z</time>
      </trkpt>
      <trkpt lat="48.04551" lon="7.19833">
        <ele>314</ele>
        <time>2019-04-30T23:42:34Z</time>
      </trkpt>
      <trkpt lat="48.04521" lon="7.19705">
        <ele>315</ele>
        <time>2019-04-30T23:43:34Z</time>
      </trkpt>
      <trkpt lat="48.04515" lon="7.19688">
        <ele>315</ele>
        <time>2019-04-30T23:44:34Z</time>
      </trkpt>
      <trkpt lat="48.04457" lon="7.19565">
        <ele>318</ele>
        <time>2019-04-30T23:45:34Z</time>
      </trkpt>
      <trkpt lat="48.04456" lon="7.19558">
        <ele>319</ele>
        <time>2019-04-30T23:46:34Z</time>
      </trkpt>
      <trkpt lat="48.04462" lon="7.1955">
        <ele>319</ele>
        <time>2019-04-30T23:47:34Z</time>
      </trkpt>
      <trkpt lat="48.04477" lon="7.19539">
        <ele>318</ele>
        <time>2019-04-30T23:48:34Z</time>
      </trkpt>
      <trkpt lat="48.04743" lon="7.19368">
        <ele>318</ele>
        <time>2019-04-30T23:49:34Z</time>
      </trkpt>
      <trkpt lat="48.04757" lon="7.19356">
        <ele>318</ele>
        <time>2019-04-30T23:50:34Z</time>
      </trkpt>
      <trkpt lat="48.04758" lon="7.19349">
        <ele>318</ele>
        <time>2019-04-30T23:51:34Z</time>
      </trkpt>
      <trkpt lat="48.04732" lon="7.1927">
        <ele>320</ele>
        <time>2019-04-30T23:52:34Z</time>
      </trkpt>
      <trkpt lat="48.04681" lon="7.19096">
        <ele>321</ele>
        <time>2019-04-30T23:53:34Z</time>
      </trkpt>
      <trkpt lat="48.04685" lon="7.19058">
        <ele>322</ele>
        <time>2019-04-30T23:54:34Z</time>
      </trkpt>
      <trkpt lat="48.04694" lon="7.19011">
        <ele>323</ele>
        <time>2019-04-30T23:55:34Z</time>
      </trkpt>
      <trkpt lat="48.04695" lon="7.18991">
        <ele>323</ele>
        <time>2019-04-30T23:56:34Z</time>
      </trkpt>
      <trkpt lat="48.04633" lon="7.18655">
        <ele>327</ele>
        <time>2019-04-30T23:57:34Z</time>
      </trkpt>
      <trkpt lat="48.04634" lon="7.1865">
        <ele>327</ele>
        <time>2019-04-30T23:58:34Z</time>
      </trkpt>
      <trkpt lat="48.04639" lon="7.18645">
        <ele>327</ele>
        <time>2019-04-30T23:59:34Z</time>
      </trkpt>
      <trkpt lat="48.04688" lon="7.18626">
        <ele>328</ele>
        <time>2019-05-01T00:00:34Z</time>
      </trkpt>
      <trkpt lat="48.04698" lon="7.18617">
        <ele>329</ele>
        <time>2019-05-01T00:01:34Z</time>
      </trkpt>
      <trkpt lat="48.04698" lon="7.1861">
        <ele>329</ele>
        <time>2019-05-01T00:02:34Z</time>
      </trkpt>
      <trkpt lat="48.04681" lon="7.18518">
        <ele>329</ele>
        <time>2019-05-01T00:03:34Z</time>
      </trkpt>
      <trkpt lat="48.04675" lon="7.18492">
        <ele>329</ele>
        <time>2019-05-01T00:04:34Z</time>
      </trkpt>
      <trkpt lat="48.04666" lon="7.18469">
        <ele>329</ele>
        <time>2019-05-01T00:05:34Z</time>
      </trkpt>
      <trkpt lat="48.04639" lon="7.18408">
        <ele>329</ele>
        <time>2019-05-01T00:06:34Z</time>
      </trkpt>
      <trkpt lat="48.04613" lon="7.18366">
        <ele>329</ele>
        <time>2019-05-01T00:07:34Z</time>
      </trkpt>
      <trkpt lat="48.04576" lon="7.18328">
        <ele>328</ele>
        <time>2019-05-01T00:08:34Z</time>
      </trkpt>
      <trkpt lat="48.04568" lon="7.18305">
        <ele>329</ele>
        <time>2019-05-01T00:09:34Z</time>
      </trkpt>
      <trkpt lat="48.0454" lon="7.18177">
        <ele>332</ele>
        <time>2019-05-01T00:10:34Z</time>
      </trkpt>
      <trkpt lat="48.04536" lon="7.18124">
        <ele>333</ele>
        <time>2019-05-01T00:11:34Z</time>
      </trkpt>
      <trkpt lat="48.04524" lon="7.18063">
        <ele>333</ele>
        <time>2019-05-01T00:12:34Z</time>
      </trkpt>
      <trkpt lat="48.04522" lon="7.18038">
        <ele>334</ele>
        <time>2019-05-01T00:13:34Z</time>
      </trkpt>
      <trkpt lat="48.04527" lon="7.18004">
        <ele>334</ele>
        <time>2019-05-01T00:14:34Z</time>
      </trkpt>
      <trkpt lat="48.04525" lon="7.17999">
        <ele>334</ele>
        <time>2019-05-01T00:15:34Z</time>
      </trkpt>
      <trkpt lat="48.04519" lon="7.17994">
        <ele>334</ele>
        <time>2019-05-01T00:16:34Z</time>
      </trkpt>
      <trkpt lat="48.04501" lon="7.18004">
        <ele>334</ele>
        <time>2019-05-01T00:17:34Z</time>
      </trkpt>
      <trkpt lat="48.04488" lon="7.18008">
        <ele>334</ele>
        <time>2019-05-01T00:18:34Z</time>
      </trkpt>
      <trkpt lat="48.04479" lon="7.17864">
        <ele>334</ele>
        <time>2019-05-01T00:19:34Z</time>
      </trkpt>
      <trkpt lat="48.0446" lon="7.17739">
        <ele>335</ele>
        <time>2019-05-01T00:20:34Z</time>
      </trkpt>
      <trkpt lat="48.04455" lon="7.17683">
        <ele>336</ele>
        <time>2019-05-01T00:21:34Z</time>
      </trkpt>
      <trkpt lat="48.04454" lon="7.17637">
        <ele>336</ele>
        <time>2019-05-01T00:22:34Z</time>
      </trkpt>
      <trkpt lat="48.04457" lon="7.1757">
        <ele>337</ele>
        <time>2019-05-01T00:23:34Z</time>
      </trkpt>
      <trkpt lat="48.04466" lon="7.17522">
        <ele>338</ele>
        <time>2019-05-01T00:24:34Z</time>
      </trkpt>
      <trkpt lat="48.04456" lon="7.17517">
        <ele>338</ele>
        <time>2019-05-01T00:25:34Z</time>
      </trkpt>
      <trkpt lat="48.04431" lon="7.17513">
        <ele>338</ele>
        <time>2019-05-01T00:26:34Z</time>
      </trkpt>
      <trkpt lat="48.04401" lon="7.17502">
        <ele>338</ele>
        <time>2019-05-01T00:27:34Z</time>
      </trkpt>
      <trkpt lat="48.04401" lon="7.17489">
        <ele>338</ele>
        <time>2019-05-01T00:28:34Z</time>
      </trkpt>
      <trkpt lat="48.04427" lon="7.17382">
        <ele>338</ele>
        <time>2019-05-01T00:29:34Z</time>
      </trkpt>
      <trkpt lat="48.04434" lon="7.17369">
        <ele>338</ele>
        <time>2019-05-01T00:30:34Z</time>
      </trkpt>
      <trkpt lat="48.04438" lon="7.17308">
        <ele>338</ele>
        <time>2019-05-01T00:31:34Z</time>
      </trkpt>
      <trkpt lat="48.04447" lon="7.17265">
        <ele>338</ele>
        <time>2019-05-01T00:32:34Z</time>
      </trkpt>
      <trkpt lat="48.04416" lon="7.16948">
        <ele>340</ele>
        <time>2019-05-01T00:33:34Z</time>
      </trkpt>
      <trkpt lat="48.04408" lon="7.16906">
        <ele>340</ele>
        <time>2019-05-01T00:34:34Z</time>
      </trkpt>
      <trkpt lat="48.04413" lon="7.16751">
        <ele>341</ele>
        <time>2019-05-01T00:35:34Z</time>
      </trkpt>
      <trkpt lat="48.04425" lon="7.16627">
        <ele>343</ele>
        <time>2019-05-01T00:36:34Z</time>
      </trkpt>
      <trkpt lat="48.0442" lon="7.16621">
        <ele>343</ele>
        <time>2019-05-01T00:37:34Z</time>
      </trkpt>
      <trkpt lat="48.04362" lon="7.16626">
        <ele>343</ele>
        <time>2019-05-01T00:38:34Z</time>
      </trkpt>
      <trkpt lat="48.04343" lon="7.16622">
        <ele>343</ele>
        <time>2019-05-01T00:39:34Z</time>
      </trkpt>
      <trkpt lat="48.04337" lon="7.16611">
        <ele>344</ele>
        <time>2019-05-01T00:40:34Z</time>
      </trkpt>
      <trkpt lat="48.04331" lon="7.16197">
        <ele>349</ele>
        <time>2019-05-01T00:41:34Z</time>
      </trkpt>
      <trkpt lat="48.04329" lon="7.16118">
        <ele>350</ele>
        <time>2019-05-01T00:42:34Z</time>
      </trkpt>
      <trkpt lat="48.04326" lon="7.16085">
        <ele>350</ele>
        <time>2019-05-01T00:43:34Z</time>
      </trkpt>
      <trkpt lat="48.04324" lon="7.16079">
        <ele>350</ele>
        <time>2019-05-01T00:44:34Z</time>
      </trkpt>
      <trkpt lat="48.04311" lon="7.16062">
        <ele>350</ele>
        <time>2019-05-01T00:45:34Z</time>
      </trkpt>
      <trkpt lat="48.04258" lon="7.1603">
        <ele>352</ele>
        <time>2019-05-01T00:46:34Z</time>
      </trkpt>
      <trkpt lat="48.04248" lon="7.1602">
        <ele>353</ele>
        <time>2019-05-01T00:47:34Z</time>
      </trkpt>
      <trkpt lat="48.04243" lon="7.15992">
        <ele>353</ele>
        <time>2019-05-01T00:48:34Z</time>
      </trkpt>
      <trkpt lat="48.04236" lon="7.15973">
        <ele>353</ele>
        <time>2019-05-01T00:49:34Z</time>
      </trkpt>
      <trkpt lat="48.04217" lon="7.1596">
        <ele>354</ele>
        <time>2019-05-01T00:50:34Z</time>
      </trkpt>
      <trkpt lat="48.04211" lon="7.15959">
        <ele>354</ele>
        <time>2019-05-01T00:51:34Z</time>
      </trkpt>
      <trkpt lat="48.04191" lon="7.15941">
        <ele>354</ele>
        <time>2019-05-01T00:52:34Z</time>
      </trkpt>
      <trkpt lat="48.04184" lon="7.15916">
        <ele>354</ele>
        <time>2019-05-01T00:53:34Z</time>
      </trkpt>
      <trkpt lat="48.0408" lon="7.15121">
        <ele>361</ele>
        <time>2019-05-01T00:54:34Z</time>
      </trkpt>
      <trkpt lat="48.04064" lon="7.15011">
        <ele>361</ele>
        <time>2019-05-01T00:55:34Z</time>
      </trkpt>
      <trkpt lat="48.04059" lon="7.15001">
        <ele>362</ele>
        <time>2019-05-01T00:56:34Z</time>
      </trkpt>
      <trkpt lat="48.04055" lon="7.15001">
        <ele>362</ele>
        <time>2019-05-01T00:57:34Z</time>
      </trkpt>
      <trkpt lat="48.03993" lon="7.15072">
        <ele>364</ele>
        <time>2019-05-01T00:58:34Z</time>
      </trkpt>
    </trkseg>
  </trk>
</gpx>